<?xml version="1.0" encoding="UTF-8" standalone="no" ?>
<gpx xmlns="http://www.topografix.com/GPX/1/1" xmlns:xsi="http://www.w3.org/2001/XMLSchema-instance" xsi:schemaLocation="http://www.topografix.com/GPX/1/1 http://www.topografix.com/GPX/1/1/gpx.xsd" version="1.1" creator="VisuGPX - https://www.visugpx.com">
  <metadata>
    <name>27 novembre 2020 à 3 (2 goudronnages nouveaux)</name>
    <desc><![CDATA[A 14h : 10° et grand soleil. C'est le dernier jour du confinement strict, on est 3, avec Jacky, et après un échauffement le long de la voie ferrée, Chris a voulu voir la source du Perchet et même un peu plus (nouveauté de l'autre coté du Durgeon) Ensuite on a pris le chemin de Pusy (= chemin de la ferme Millot) nouvellement goudronné et arrivé en haut on s'est aventuré dans des prés très gadouilleux pour retrouver un chemin descendant à Villeparois. De là, montée par le lotissement et montée vers le réservoir (km 9, altitude 312m) , descente dans un champ (de fèves ?) et chemin des asperges. Surprise encore de voir le chemin des Epenottes goudronné jusqu'au bout.
Lavage des vélos  ]]></desc>
  </metadata>
  <wpt lat="47.64437" lon="6.18305">
    <ele>229.2</ele>
    <name><![CDATA[0000121]]></name>
    <type><![CDATA[Point de départ]]></type>
  </wpt>
  <wpt lat="47.64443" lon="6.18309">
    <ele>230.6</ele>
    <name><![CDATA[0000122]]></name>
    <type><![CDATA[Point d'arrivée]]></type>
  </wpt>
  <trk>
    <name><![CDATA[2020-11-27 14:05]]></name>
    <desc><![CDATA[<p>Heure de départ: 11/27/2020 14:05<br/>Heure d'arrivée: 11/27/2020 15:41<br/>Distance: 11,9 km (01:36)<br/>Temps déplacement: 01:21<br/>Vitesse moyenne: 7,43 km/h<br/>Vitesse moyenne mouv.: 8,8 km/h<br/>Vitesse Max.: 26,5 km/h<br/>Altitude minimale: 207 m<br/>Altitude maximale: 304 m<br/>Vitesse de montée: 156 m/h<br/>Vitesse de descente: -188 m/h<br/>Gain d'altitude: 135 m<br/>Perte d'altitude: -116 m<br/>Temps de montée: 00:52<br/>Temps de descente: 00:37<br/></p><hr align="center" width="480" style="height: 2px; width: 517px"/>]]></desc>
    <trkseg>
      <trkpt lat="47.64437" lon="6.18305">
        <ele>229.2</ele>
        <time>2020-11-27T13:05:01Z</time>
      </trkpt>
      <trkpt lat="47.64432" lon="6.183">
        <ele>228</ele>
        <time>2020-11-27T13:05:03Z</time>
      </trkpt>
      <trkpt lat="47.64425" lon="6.18291">
        <ele>226.1</ele>
        <time>2020-11-27T13:05:05Z</time>
      </trkpt>
      <trkpt lat="47.6442" lon="6.18287">
        <ele>225.2</ele>
        <time>2020-11-27T13:05:21Z</time>
      </trkpt>
      <trkpt lat="47.6442" lon="6.18279">
        <ele>224.6</ele>
        <time>2020-11-27T13:05:22Z</time>
      </trkpt>
      <trkpt lat="47.64416" lon="6.18276">
        <ele>223.8</ele>
        <time>2020-11-27T13:05:23Z</time>
      </trkpt>
      <trkpt lat="47.64411" lon="6.18272">
        <ele>223.4</ele>
        <time>2020-11-27T13:05:25Z</time>
      </trkpt>
      <trkpt lat="47.64407" lon="6.18268">
        <ele>223</ele>
        <time>2020-11-27T13:05:26Z</time>
      </trkpt>
      <trkpt lat="47.64402" lon="6.18262">
        <ele>222.5</ele>
        <time>2020-11-27T13:05:29Z</time>
      </trkpt>
      <trkpt lat="47.64396" lon="6.18257">
        <ele>222.1</ele>
        <time>2020-11-27T13:05:31Z</time>
      </trkpt>
      <trkpt lat="47.64392" lon="6.18252">
        <ele>221.8</ele>
        <time>2020-11-27T13:05:31Z</time>
      </trkpt>
      <trkpt lat="47.64385" lon="6.18246">
        <ele>221.7</ele>
        <time>2020-11-27T13:05:33Z</time>
      </trkpt>
      <trkpt lat="47.64381" lon="6.1824">
        <ele>221.7</ele>
        <time>2020-11-27T13:05:35Z</time>
      </trkpt>
      <trkpt lat="47.64375" lon="6.18235">
        <ele>221.8</ele>
        <time>2020-11-27T13:05:37Z</time>
      </trkpt>
      <trkpt lat="47.6437" lon="6.1823">
        <ele>221.8</ele>
        <time>2020-11-27T13:05:39Z</time>
      </trkpt>
      <trkpt lat="47.64365" lon="6.18224">
        <ele>221.9</ele>
        <time>2020-11-27T13:05:41Z</time>
      </trkpt>
      <trkpt lat="47.64362" lon="6.18218">
        <ele>222</ele>
        <time>2020-11-27T13:05:42Z</time>
      </trkpt>
      <trkpt lat="47.64359" lon="6.18212">
        <ele>222.1</ele>
        <time>2020-11-27T13:05:43Z</time>
      </trkpt>
      <trkpt lat="47.64353" lon="6.18205">
        <ele>222.2</ele>
        <time>2020-11-27T13:05:47Z</time>
      </trkpt>
      <trkpt lat="47.64347" lon="6.18199">
        <ele>222.3</ele>
        <time>2020-11-27T13:05:49Z</time>
      </trkpt>
      <trkpt lat="47.64343" lon="6.18194">
        <ele>222.4</ele>
        <time>2020-11-27T13:05:49Z</time>
      </trkpt>
      <trkpt lat="47.64338" lon="6.18188">
        <ele>222.5</ele>
        <time>2020-11-27T13:05:53Z</time>
      </trkpt>
      <trkpt lat="47.64334" lon="6.18185">
        <ele>222.6</ele>
        <time>2020-11-27T13:05:53Z</time>
      </trkpt>
      <trkpt lat="47.64328" lon="6.18183">
        <ele>222.5</ele>
        <time>2020-11-27T13:05:57Z</time>
      </trkpt>
      <trkpt lat="47.64322" lon="6.1818">
        <ele>222.5</ele>
        <time>2020-11-27T13:05:59Z</time>
      </trkpt>
      <trkpt lat="47.64315" lon="6.1818">
        <ele>222.4</ele>
        <time>2020-11-27T13:05:59Z</time>
      </trkpt>
      <trkpt lat="47.64309" lon="6.1818">
        <ele>222.2</ele>
        <time>2020-11-27T13:06:01Z</time>
      </trkpt>
      <trkpt lat="47.64304" lon="6.18181">
        <ele>222.1</ele>
        <time>2020-11-27T13:06:02Z</time>
      </trkpt>
      <trkpt lat="47.64296" lon="6.18185">
        <ele>222</ele>
        <time>2020-11-27T13:06:04Z</time>
      </trkpt>
      <trkpt lat="47.64291" lon="6.18188">
        <ele>221.9</ele>
        <time>2020-11-27T13:06:06Z</time>
      </trkpt>
      <trkpt lat="47.64285" lon="6.18191">
        <ele>221.8</ele>
        <time>2020-11-27T13:06:08Z</time>
      </trkpt>
      <trkpt lat="47.6428" lon="6.18195">
        <ele>221.7</ele>
        <time>2020-11-27T13:06:10Z</time>
      </trkpt>
      <trkpt lat="47.64273" lon="6.182">
        <ele>221.6</ele>
        <time>2020-11-27T13:06:15Z</time>
      </trkpt>
      <trkpt lat="47.64269" lon="6.18203">
        <ele>221.6</ele>
        <time>2020-11-27T13:06:17Z</time>
      </trkpt>
      <trkpt lat="47.64264" lon="6.18206">
        <ele>221.6</ele>
        <time>2020-11-27T13:06:19Z</time>
      </trkpt>
      <trkpt lat="47.64259" lon="6.18209">
        <ele>221.6</ele>
        <time>2020-11-27T13:06:20Z</time>
      </trkpt>
      <trkpt lat="47.64254" lon="6.18215">
        <ele>221.6</ele>
        <time>2020-11-27T13:06:25Z</time>
      </trkpt>
      <trkpt lat="47.6425" lon="6.18219">
        <ele>221.6</ele>
        <time>2020-11-27T13:06:26Z</time>
      </trkpt>
      <trkpt lat="47.64245" lon="6.18223">
        <ele>221.7</ele>
        <time>2020-11-27T13:06:31Z</time>
      </trkpt>
      <trkpt lat="47.64241" lon="6.18228">
        <ele>221.8</ele>
        <time>2020-11-27T13:06:34Z</time>
      </trkpt>
      <trkpt lat="47.64236" lon="6.18233">
        <ele>221.9</ele>
        <time>2020-11-27T13:06:38Z</time>
      </trkpt>
      <trkpt lat="47.64232" lon="6.18237">
        <ele>222</ele>
        <time>2020-11-27T13:06:41Z</time>
      </trkpt>
      <trkpt lat="47.64228" lon="6.18242">
        <ele>222.1</ele>
        <time>2020-11-27T13:06:44Z</time>
      </trkpt>
      <trkpt lat="47.64224" lon="6.18248">
        <ele>222.3</ele>
        <time>2020-11-27T13:06:47Z</time>
      </trkpt>
      <trkpt lat="47.64219" lon="6.18255">
        <ele>222.5</ele>
        <time>2020-11-27T13:06:50Z</time>
      </trkpt>
      <trkpt lat="47.64214" lon="6.1826">
        <ele>222.9</ele>
        <time>2020-11-27T13:06:53Z</time>
      </trkpt>
      <trkpt lat="47.64208" lon="6.18263">
        <ele>223.1</ele>
        <time>2020-11-27T13:06:54Z</time>
      </trkpt>
      <trkpt lat="47.64202" lon="6.18263">
        <ele>223.3</ele>
        <time>2020-11-27T13:06:56Z</time>
      </trkpt>
      <trkpt lat="47.64197" lon="6.18263">
        <ele>223.4</ele>
        <time>2020-11-27T13:06:57Z</time>
      </trkpt>
      <trkpt lat="47.64192" lon="6.18263">
        <ele>223.6</ele>
        <time>2020-11-27T13:07:00Z</time>
      </trkpt>
      <trkpt lat="47.64186" lon="6.18262">
        <ele>223.6</ele>
        <time>2020-11-27T13:07:01Z</time>
      </trkpt>
      <trkpt lat="47.64165" lon="6.18256">
        <ele>223.6</ele>
        <time>2020-11-27T13:07:03Z</time>
      </trkpt>
      <trkpt lat="47.64158" lon="6.18254">
        <ele>223.4</ele>
        <time>2020-11-27T13:07:04Z</time>
      </trkpt>
      <trkpt lat="47.64152" lon="6.18249">
        <ele>223.2</ele>
        <time>2020-11-27T13:07:05Z</time>
      </trkpt>
      <trkpt lat="47.64145" lon="6.18244">
        <ele>223</ele>
        <time>2020-11-27T13:07:06Z</time>
      </trkpt>
      <trkpt lat="47.64139" lon="6.18239">
        <ele>222.8</ele>
        <time>2020-11-27T13:07:07Z</time>
      </trkpt>
      <trkpt lat="47.64133" lon="6.18234">
        <ele>222.7</ele>
        <time>2020-11-27T13:07:08Z</time>
      </trkpt>
      <trkpt lat="47.64127" lon="6.18229">
        <ele>222.6</ele>
        <time>2020-11-27T13:07:09Z</time>
      </trkpt>
      <trkpt lat="47.64122" lon="6.18224">
        <ele>222.5</ele>
        <time>2020-11-27T13:07:10Z</time>
      </trkpt>
      <trkpt lat="47.64117" lon="6.18219">
        <ele>222.4</ele>
        <time>2020-11-27T13:07:11Z</time>
      </trkpt>
      <trkpt lat="47.64112" lon="6.18215">
        <ele>222.3</ele>
        <time>2020-11-27T13:07:12Z</time>
      </trkpt>
      <trkpt lat="47.64107" lon="6.18211">
        <ele>222.2</ele>
        <time>2020-11-27T13:07:13Z</time>
      </trkpt>
      <trkpt lat="47.64102" lon="6.18207">
        <ele>222.1</ele>
        <time>2020-11-27T13:07:14Z</time>
      </trkpt>
      <trkpt lat="47.64098" lon="6.18203">
        <ele>222</ele>
        <time>2020-11-27T13:07:15Z</time>
      </trkpt>
      <trkpt lat="47.64094" lon="6.18198">
        <ele>221.9</ele>
        <time>2020-11-27T13:07:16Z</time>
      </trkpt>
      <trkpt lat="47.6409" lon="6.18193">
        <ele>221.8</ele>
        <time>2020-11-27T13:07:17Z</time>
      </trkpt>
      <trkpt lat="47.64085" lon="6.1819">
        <ele>221.8</ele>
        <time>2020-11-27T13:07:18Z</time>
      </trkpt>
      <trkpt lat="47.6408" lon="6.18188">
        <ele>221.8</ele>
        <time>2020-11-27T13:07:19Z</time>
      </trkpt>
      <trkpt lat="47.64076" lon="6.18189">
        <ele>221.9</ele>
        <time>2020-11-27T13:07:20Z</time>
      </trkpt>
      <trkpt lat="47.64072" lon="6.18195">
        <ele>222.1</ele>
        <time>2020-11-27T13:07:22Z</time>
      </trkpt>
      <trkpt lat="47.64071" lon="6.18203">
        <ele>222.5</ele>
        <time>2020-11-27T13:07:24Z</time>
      </trkpt>
      <trkpt lat="47.64069" lon="6.1821">
        <ele>222.7</ele>
        <time>2020-11-27T13:07:26Z</time>
      </trkpt>
      <trkpt lat="47.64072" lon="6.18206">
        <ele>222.6</ele>
        <time>2020-11-27T13:07:26Z</time>
      </trkpt>
      <trkpt lat="47.64068" lon="6.18212">
        <ele>222.8</ele>
        <time>2020-11-27T13:07:28Z</time>
      </trkpt>
      <trkpt lat="47.64062" lon="6.18217">
        <ele>223.1</ele>
        <time>2020-11-27T13:07:30Z</time>
      </trkpt>
      <trkpt lat="47.64056" lon="6.18219">
        <ele>223.2</ele>
        <time>2020-11-27T13:07:32Z</time>
      </trkpt>
      <trkpt lat="47.64051" lon="6.18219">
        <ele>223.3</ele>
        <time>2020-11-27T13:07:34Z</time>
      </trkpt>
      <trkpt lat="47.64045" lon="6.18216">
        <ele>223.2</ele>
        <time>2020-11-27T13:07:36Z</time>
      </trkpt>
      <trkpt lat="47.64041" lon="6.18213">
        <ele>223.2</ele>
        <time>2020-11-27T13:07:38Z</time>
      </trkpt>
      <trkpt lat="47.64035" lon="6.18209">
        <ele>223.1</ele>
        <time>2020-11-27T13:07:42Z</time>
      </trkpt>
      <trkpt lat="47.6403" lon="6.18206">
        <ele>223</ele>
        <time>2020-11-27T13:07:42Z</time>
      </trkpt>
      <trkpt lat="47.64024" lon="6.18201">
        <ele>222.9</ele>
        <time>2020-11-27T13:07:46Z</time>
      </trkpt>
      <trkpt lat="47.64018" lon="6.18198">
        <ele>222.9</ele>
        <time>2020-11-27T13:07:48Z</time>
      </trkpt>
      <trkpt lat="47.64013" lon="6.18196">
        <ele>222.9</ele>
        <time>2020-11-27T13:07:48Z</time>
      </trkpt>
      <trkpt lat="47.64007" lon="6.18193">
        <ele>222.9</ele>
        <time>2020-11-27T13:07:50Z</time>
      </trkpt>
      <trkpt lat="47.64002" lon="6.1819">
        <ele>222.8</ele>
        <time>2020-11-27T13:07:52Z</time>
      </trkpt>
      <trkpt lat="47.63995" lon="6.18187">
        <ele>223.2</ele>
        <time>2020-11-27T13:07:54Z</time>
      </trkpt>
      <trkpt lat="47.63991" lon="6.18185">
        <ele>223.5</ele>
        <time>2020-11-27T13:07:56Z</time>
      </trkpt>
      <trkpt lat="47.63985" lon="6.18181">
        <ele>223.8</ele>
        <time>2020-11-27T13:07:58Z</time>
      </trkpt>
      <trkpt lat="47.63979" lon="6.18178">
        <ele>224.1</ele>
        <time>2020-11-27T13:08:00Z</time>
      </trkpt>
      <trkpt lat="47.63974" lon="6.18175">
        <ele>224.4</ele>
        <time>2020-11-27T13:08:02Z</time>
      </trkpt>
      <trkpt lat="47.63969" lon="6.18172">
        <ele>224.6</ele>
        <time>2020-11-27T13:08:05Z</time>
      </trkpt>
      <trkpt lat="47.63964" lon="6.18167">
        <ele>224.7</ele>
        <time>2020-11-27T13:08:05Z</time>
      </trkpt>
      <trkpt lat="47.63959" lon="6.18162">
        <ele>224.7</ele>
        <time>2020-11-27T13:08:07Z</time>
      </trkpt>
      <trkpt lat="47.63954" lon="6.18157">
        <ele>224.8</ele>
        <time>2020-11-27T13:08:08Z</time>
      </trkpt>
      <trkpt lat="47.63949" lon="6.18152">
        <ele>224.8</ele>
        <time>2020-11-27T13:08:10Z</time>
      </trkpt>
      <trkpt lat="47.63943" lon="6.18144">
        <ele>224.8</ele>
        <time>2020-11-27T13:08:12Z</time>
      </trkpt>
      <trkpt lat="47.63939" lon="6.18138">
        <ele>224.7</ele>
        <time>2020-11-27T13:08:14Z</time>
      </trkpt>
      <trkpt lat="47.63935" lon="6.18133">
        <ele>224.5</ele>
        <time>2020-11-27T13:08:17Z</time>
      </trkpt>
      <trkpt lat="47.63931" lon="6.18127">
        <ele>224.4</ele>
        <time>2020-11-27T13:08:17Z</time>
      </trkpt>
      <trkpt lat="47.63926" lon="6.1812">
        <ele>224.2</ele>
        <time>2020-11-27T13:08:21Z</time>
      </trkpt>
      <trkpt lat="47.63921" lon="6.18114">
        <ele>224</ele>
        <time>2020-11-27T13:08:23Z</time>
      </trkpt>
      <trkpt lat="47.63918" lon="6.1811">
        <ele>223.8</ele>
        <time>2020-11-27T13:08:23Z</time>
      </trkpt>
      <trkpt lat="47.63913" lon="6.18104">
        <ele>223.9</ele>
        <time>2020-11-27T13:08:25Z</time>
      </trkpt>
      <trkpt lat="47.63909" lon="6.18099">
        <ele>224</ele>
        <time>2020-11-27T13:08:27Z</time>
      </trkpt>
      <trkpt lat="47.63905" lon="6.18093">
        <ele>223.9</ele>
        <time>2020-11-27T13:08:29Z</time>
      </trkpt>
      <trkpt lat="47.639" lon="6.18087">
        <ele>223.9</ele>
        <time>2020-11-27T13:08:31Z</time>
      </trkpt>
      <trkpt lat="47.63896" lon="6.18082">
        <ele>223.9</ele>
        <time>2020-11-27T13:08:33Z</time>
      </trkpt>
      <trkpt lat="47.63893" lon="6.18077">
        <ele>224</ele>
        <time>2020-11-27T13:08:35Z</time>
      </trkpt>
      <trkpt lat="47.63888" lon="6.1807">
        <ele>224.2</ele>
        <time>2020-11-27T13:08:38Z</time>
      </trkpt>
      <trkpt lat="47.63884" lon="6.18063">
        <ele>224.3</ele>
        <time>2020-11-27T13:08:41Z</time>
      </trkpt>
      <trkpt lat="47.63881" lon="6.18058">
        <ele>224.4</ele>
        <time>2020-11-27T13:08:42Z</time>
      </trkpt>
      <trkpt lat="47.63877" lon="6.18052">
        <ele>224.5</ele>
        <time>2020-11-27T13:08:45Z</time>
      </trkpt>
      <trkpt lat="47.63873" lon="6.18047">
        <ele>224.6</ele>
        <time>2020-11-27T13:08:46Z</time>
      </trkpt>
      <trkpt lat="47.6387" lon="6.18041">
        <ele>224.7</ele>
        <time>2020-11-27T13:08:48Z</time>
      </trkpt>
      <trkpt lat="47.63866" lon="6.18036">
        <ele>224.8</ele>
        <time>2020-11-27T13:08:49Z</time>
      </trkpt>
      <trkpt lat="47.63861" lon="6.18028">
        <ele>224.9</ele>
        <time>2020-11-27T13:08:52Z</time>
      </trkpt>
      <trkpt lat="47.63856" lon="6.18021">
        <ele>225</ele>
        <time>2020-11-27T13:08:54Z</time>
      </trkpt>
      <trkpt lat="47.63853" lon="6.18016">
        <ele>225.1</ele>
        <time>2020-11-27T13:08:56Z</time>
      </trkpt>
      <trkpt lat="47.63848" lon="6.18007">
        <ele>225.1</ele>
        <time>2020-11-27T13:08:58Z</time>
      </trkpt>
      <trkpt lat="47.63844" lon="6.18002">
        <ele>225.2</ele>
        <time>2020-11-27T13:09:00Z</time>
      </trkpt>
      <trkpt lat="47.63841" lon="6.17997">
        <ele>225.2</ele>
        <time>2020-11-27T13:09:02Z</time>
      </trkpt>
      <trkpt lat="47.63838" lon="6.17992">
        <ele>225.2</ele>
        <time>2020-11-27T13:09:04Z</time>
      </trkpt>
      <trkpt lat="47.63834" lon="6.17986">
        <ele>225.3</ele>
        <time>2020-11-27T13:09:06Z</time>
      </trkpt>
      <trkpt lat="47.6383" lon="6.1798">
        <ele>225.4</ele>
        <time>2020-11-27T13:09:08Z</time>
      </trkpt>
      <trkpt lat="47.63826" lon="6.17976">
        <ele>225.6</ele>
        <time>2020-11-27T13:09:10Z</time>
      </trkpt>
      <trkpt lat="47.63822" lon="6.1797">
        <ele>225.8</ele>
        <time>2020-11-27T13:09:13Z</time>
      </trkpt>
      <trkpt lat="47.63819" lon="6.17964">
        <ele>225.8</ele>
        <time>2020-11-27T13:09:15Z</time>
      </trkpt>
      <trkpt lat="47.63815" lon="6.17959">
        <ele>225.9</ele>
        <time>2020-11-27T13:09:18Z</time>
      </trkpt>
      <trkpt lat="47.63812" lon="6.17954">
        <ele>226</ele>
        <time>2020-11-27T13:09:21Z</time>
      </trkpt>
      <trkpt lat="47.63807" lon="6.17948">
        <ele>226</ele>
        <time>2020-11-27T13:09:24Z</time>
      </trkpt>
      <trkpt lat="47.63803" lon="6.17943">
        <ele>226</ele>
        <time>2020-11-27T13:09:27Z</time>
      </trkpt>
      <trkpt lat="47.638" lon="6.17938">
        <ele>225.9</ele>
        <time>2020-11-27T13:09:30Z</time>
      </trkpt>
      <trkpt lat="47.63797" lon="6.17933">
        <ele>225.9</ele>
        <time>2020-11-27T13:09:32Z</time>
      </trkpt>
      <trkpt lat="47.63793" lon="6.17928">
        <ele>225.8</ele>
        <time>2020-11-27T13:09:34Z</time>
      </trkpt>
      <trkpt lat="47.6379" lon="6.17924">
        <ele>225.7</ele>
        <time>2020-11-27T13:09:36Z</time>
      </trkpt>
      <trkpt lat="47.63784" lon="6.17917">
        <ele>225.5</ele>
        <time>2020-11-27T13:09:39Z</time>
      </trkpt>
      <trkpt lat="47.6378" lon="6.17911">
        <ele>225.6</ele>
        <time>2020-11-27T13:09:41Z</time>
      </trkpt>
      <trkpt lat="47.63775" lon="6.17905">
        <ele>225.6</ele>
        <time>2020-11-27T13:09:43Z</time>
      </trkpt>
      <trkpt lat="47.63772" lon="6.179">
        <ele>225.6</ele>
        <time>2020-11-27T13:09:44Z</time>
      </trkpt>
      <trkpt lat="47.63766" lon="6.17892">
        <ele>225.5</ele>
        <time>2020-11-27T13:09:47Z</time>
      </trkpt>
      <trkpt lat="47.63761" lon="6.17884">
        <ele>225.4</ele>
        <time>2020-11-27T13:09:48Z</time>
      </trkpt>
      <trkpt lat="47.63756" lon="6.17879">
        <ele>225.4</ele>
        <time>2020-11-27T13:09:50Z</time>
      </trkpt>
      <trkpt lat="47.63752" lon="6.17873">
        <ele>225.3</ele>
        <time>2020-11-27T13:09:52Z</time>
      </trkpt>
      <trkpt lat="47.63748" lon="6.17868">
        <ele>225.2</ele>
        <time>2020-11-27T13:09:53Z</time>
      </trkpt>
      <trkpt lat="47.63743" lon="6.17863">
        <ele>225.2</ele>
        <time>2020-11-27T13:09:54Z</time>
      </trkpt>
      <trkpt lat="47.63737" lon="6.17857">
        <ele>225.1</ele>
        <time>2020-11-27T13:09:57Z</time>
      </trkpt>
      <trkpt lat="47.63733" lon="6.17852">
        <ele>225</ele>
        <time>2020-11-27T13:09:58Z</time>
      </trkpt>
      <trkpt lat="47.63729" lon="6.17847">
        <ele>224.8</ele>
        <time>2020-11-27T13:09:59Z</time>
      </trkpt>
      <trkpt lat="47.63725" lon="6.17843">
        <ele>224.6</ele>
        <time>2020-11-27T13:10:01Z</time>
      </trkpt>
      <trkpt lat="47.63722" lon="6.17838">
        <ele>224.4</ele>
        <time>2020-11-27T13:10:03Z</time>
      </trkpt>
      <trkpt lat="47.63718" lon="6.17834">
        <ele>224.2</ele>
        <time>2020-11-27T13:10:04Z</time>
      </trkpt>
      <trkpt lat="47.6371" lon="6.17828">
        <ele>224.2</ele>
        <time>2020-11-27T13:10:07Z</time>
      </trkpt>
      <trkpt lat="47.63705" lon="6.17823">
        <ele>224.1</ele>
        <time>2020-11-27T13:10:08Z</time>
      </trkpt>
      <trkpt lat="47.637" lon="6.17817">
        <ele>224</ele>
        <time>2020-11-27T13:10:10Z</time>
      </trkpt>
      <trkpt lat="47.63697" lon="6.17812">
        <ele>223.8</ele>
        <time>2020-11-27T13:10:12Z</time>
      </trkpt>
      <trkpt lat="47.63692" lon="6.17807">
        <ele>223.7</ele>
        <time>2020-11-27T13:10:13Z</time>
      </trkpt>
      <trkpt lat="47.63687" lon="6.17801">
        <ele>223.5</ele>
        <time>2020-11-27T13:10:15Z</time>
      </trkpt>
      <trkpt lat="47.63681" lon="6.17796">
        <ele>223.4</ele>
        <time>2020-11-27T13:10:18Z</time>
      </trkpt>
      <trkpt lat="47.63677" lon="6.17792">
        <ele>223.3</ele>
        <time>2020-11-27T13:10:19Z</time>
      </trkpt>
      <trkpt lat="47.63673" lon="6.17789">
        <ele>223.2</ele>
        <time>2020-11-27T13:10:21Z</time>
      </trkpt>
      <trkpt lat="47.63668" lon="6.17787">
        <ele>223.2</ele>
        <time>2020-11-27T13:10:22Z</time>
      </trkpt>
      <trkpt lat="47.63663" lon="6.17783">
        <ele>223.4</ele>
        <time>2020-11-27T13:10:24Z</time>
      </trkpt>
      <trkpt lat="47.63658" lon="6.17778">
        <ele>223.7</ele>
        <time>2020-11-27T13:10:27Z</time>
      </trkpt>
      <trkpt lat="47.63653" lon="6.17772">
        <ele>223.8</ele>
        <time>2020-11-27T13:10:29Z</time>
      </trkpt>
      <trkpt lat="47.6365" lon="6.17767">
        <ele>223.8</ele>
        <time>2020-11-27T13:10:30Z</time>
      </trkpt>
      <trkpt lat="47.63644" lon="6.1776">
        <ele>223.9</ele>
        <time>2020-11-27T13:10:32Z</time>
      </trkpt>
      <trkpt lat="47.63639" lon="6.17755">
        <ele>224</ele>
        <time>2020-11-27T13:10:34Z</time>
      </trkpt>
      <trkpt lat="47.63635" lon="6.17751">
        <ele>224.1</ele>
        <time>2020-11-27T13:10:36Z</time>
      </trkpt>
      <trkpt lat="47.63629" lon="6.17745">
        <ele>224.4</ele>
        <time>2020-11-27T13:10:38Z</time>
      </trkpt>
      <trkpt lat="47.63624" lon="6.1774">
        <ele>224.7</ele>
        <time>2020-11-27T13:10:40Z</time>
      </trkpt>
      <trkpt lat="47.6362" lon="6.17736">
        <ele>224.9</ele>
        <time>2020-11-27T13:10:42Z</time>
      </trkpt>
      <trkpt lat="47.63616" lon="6.17731">
        <ele>225.1</ele>
        <time>2020-11-27T13:10:44Z</time>
      </trkpt>
      <trkpt lat="47.6361" lon="6.17726">
        <ele>225.4</ele>
        <time>2020-11-27T13:10:46Z</time>
      </trkpt>
      <trkpt lat="47.63605" lon="6.17721">
        <ele>225.5</ele>
        <time>2020-11-27T13:10:48Z</time>
      </trkpt>
      <trkpt lat="47.636" lon="6.17718">
        <ele>225.8</ele>
        <time>2020-11-27T13:10:51Z</time>
      </trkpt>
      <trkpt lat="47.63593" lon="6.17711">
        <ele>225.9</ele>
        <time>2020-11-27T13:10:53Z</time>
      </trkpt>
      <trkpt lat="47.63588" lon="6.17706">
        <ele>226</ele>
        <time>2020-11-27T13:10:56Z</time>
      </trkpt>
      <trkpt lat="47.63584" lon="6.17701">
        <ele>226</ele>
        <time>2020-11-27T13:10:57Z</time>
      </trkpt>
      <trkpt lat="47.6358" lon="6.17697">
        <ele>226.1</ele>
        <time>2020-11-27T13:10:59Z</time>
      </trkpt>
      <trkpt lat="47.63575" lon="6.17692">
        <ele>226.3</ele>
        <time>2020-11-27T13:11:01Z</time>
      </trkpt>
      <trkpt lat="47.63569" lon="6.17686">
        <ele>226.4</ele>
        <time>2020-11-27T13:11:03Z</time>
      </trkpt>
      <trkpt lat="47.63564" lon="6.17681">
        <ele>226.6</ele>
        <time>2020-11-27T13:11:05Z</time>
      </trkpt>
      <trkpt lat="47.63558" lon="6.17675">
        <ele>226.7</ele>
        <time>2020-11-27T13:11:08Z</time>
      </trkpt>
      <trkpt lat="47.63554" lon="6.17671">
        <ele>226.8</ele>
        <time>2020-11-27T13:11:09Z</time>
      </trkpt>
      <trkpt lat="47.63549" lon="6.17665">
        <ele>226.8</ele>
        <time>2020-11-27T13:11:12Z</time>
      </trkpt>
      <trkpt lat="47.63545" lon="6.17661">
        <ele>226.9</ele>
        <time>2020-11-27T13:11:13Z</time>
      </trkpt>
      <trkpt lat="47.6354" lon="6.17656">
        <ele>227.1</ele>
        <time>2020-11-27T13:11:15Z</time>
      </trkpt>
      <trkpt lat="47.63535" lon="6.17651">
        <ele>227.1</ele>
        <time>2020-11-27T13:11:17Z</time>
      </trkpt>
      <trkpt lat="47.63531" lon="6.17647">
        <ele>227.2</ele>
        <time>2020-11-27T13:11:20Z</time>
      </trkpt>
      <trkpt lat="47.63525" lon="6.17641">
        <ele>227.3</ele>
        <time>2020-11-27T13:11:22Z</time>
      </trkpt>
      <trkpt lat="47.63521" lon="6.17637">
        <ele>227.2</ele>
        <time>2020-11-27T13:11:24Z</time>
      </trkpt>
      <trkpt lat="47.63516" lon="6.17632">
        <ele>227.1</ele>
        <time>2020-11-27T13:11:27Z</time>
      </trkpt>
      <trkpt lat="47.63511" lon="6.17627">
        <ele>227</ele>
        <time>2020-11-27T13:11:30Z</time>
      </trkpt>
      <trkpt lat="47.63507" lon="6.17622">
        <ele>226.9</ele>
        <time>2020-11-27T13:11:33Z</time>
      </trkpt>
      <trkpt lat="47.63502" lon="6.17617">
        <ele>226.7</ele>
        <time>2020-11-27T13:11:36Z</time>
      </trkpt>
      <trkpt lat="47.63498" lon="6.17613">
        <ele>226.7</ele>
        <time>2020-11-27T13:11:38Z</time>
      </trkpt>
      <trkpt lat="47.63493" lon="6.17608">
        <ele>226.6</ele>
        <time>2020-11-27T13:11:41Z</time>
      </trkpt>
      <trkpt lat="47.63489" lon="6.17604">
        <ele>226.6</ele>
        <time>2020-11-27T13:11:44Z</time>
      </trkpt>
      <trkpt lat="47.63485" lon="6.176">
        <ele>226.6</ele>
        <time>2020-11-27T13:11:46Z</time>
      </trkpt>
      <trkpt lat="47.63479" lon="6.17595">
        <ele>226.5</ele>
        <time>2020-11-27T13:11:49Z</time>
      </trkpt>
      <trkpt lat="47.63475" lon="6.17591">
        <ele>226.5</ele>
        <time>2020-11-27T13:11:51Z</time>
      </trkpt>
      <trkpt lat="47.6347" lon="6.17587">
        <ele>226.4</ele>
        <time>2020-11-27T13:11:53Z</time>
      </trkpt>
      <trkpt lat="47.63466" lon="6.17583">
        <ele>226.4</ele>
        <time>2020-11-27T13:11:54Z</time>
      </trkpt>
      <trkpt lat="47.63461" lon="6.1758">
        <ele>226.5</ele>
        <time>2020-11-27T13:11:56Z</time>
      </trkpt>
      <trkpt lat="47.63456" lon="6.17576">
        <ele>226.6</ele>
        <time>2020-11-27T13:11:59Z</time>
      </trkpt>
      <trkpt lat="47.63452" lon="6.17572">
        <ele>226.6</ele>
        <time>2020-11-27T13:12:00Z</time>
      </trkpt>
      <trkpt lat="47.63448" lon="6.17568">
        <ele>226.6</ele>
        <time>2020-11-27T13:12:03Z</time>
      </trkpt>
      <trkpt lat="47.63444" lon="6.17565">
        <ele>226.6</ele>
        <time>2020-11-27T13:12:05Z</time>
      </trkpt>
      <trkpt lat="47.63439" lon="6.17562">
        <ele>226.6</ele>
        <time>2020-11-27T13:12:07Z</time>
      </trkpt>
      <trkpt lat="47.63433" lon="6.17558">
        <ele>226.6</ele>
        <time>2020-11-27T13:12:09Z</time>
      </trkpt>
      <trkpt lat="47.63429" lon="6.17554">
        <ele>226.5</ele>
        <time>2020-11-27T13:12:12Z</time>
      </trkpt>
      <trkpt lat="47.63424" lon="6.17548">
        <ele>226.3</ele>
        <time>2020-11-27T13:12:14Z</time>
      </trkpt>
      <trkpt lat="47.6342" lon="6.17545">
        <ele>226.2</ele>
        <time>2020-11-27T13:12:17Z</time>
      </trkpt>
      <trkpt lat="47.63413" lon="6.1754">
        <ele>226</ele>
        <time>2020-11-27T13:12:19Z</time>
      </trkpt>
      <trkpt lat="47.63408" lon="6.17536">
        <ele>225.9</ele>
        <time>2020-11-27T13:12:21Z</time>
      </trkpt>
      <trkpt lat="47.63404" lon="6.17532">
        <ele>225.8</ele>
        <time>2020-11-27T13:12:23Z</time>
      </trkpt>
      <trkpt lat="47.63398" lon="6.17528">
        <ele>225.7</ele>
        <time>2020-11-27T13:12:25Z</time>
      </trkpt>
      <trkpt lat="47.63394" lon="6.17524">
        <ele>225.6</ele>
        <time>2020-11-27T13:12:27Z</time>
      </trkpt>
      <trkpt lat="47.63388" lon="6.17519">
        <ele>225.5</ele>
        <time>2020-11-27T13:12:30Z</time>
      </trkpt>
      <trkpt lat="47.63383" lon="6.17516">
        <ele>225.5</ele>
        <time>2020-11-27T13:12:31Z</time>
      </trkpt>
      <trkpt lat="47.63378" lon="6.17513">
        <ele>225.4</ele>
        <time>2020-11-27T13:12:33Z</time>
      </trkpt>
      <trkpt lat="47.63382" lon="6.17518">
        <ele>225.7</ele>
        <time>2020-11-27T13:12:58Z</time>
      </trkpt>
      <trkpt lat="47.63387" lon="6.17523">
        <ele>225.9</ele>
        <time>2020-11-27T13:13:00Z</time>
      </trkpt>
      <trkpt lat="47.63393" lon="6.17528">
        <ele>226</ele>
        <time>2020-11-27T13:13:02Z</time>
      </trkpt>
      <trkpt lat="47.63399" lon="6.17532">
        <ele>226.1</ele>
        <time>2020-11-27T13:13:05Z</time>
      </trkpt>
      <trkpt lat="47.63404" lon="6.17536">
        <ele>226.2</ele>
        <time>2020-11-27T13:13:07Z</time>
      </trkpt>
      <trkpt lat="47.63409" lon="6.17541">
        <ele>226.3</ele>
        <time>2020-11-27T13:13:09Z</time>
      </trkpt>
      <trkpt lat="47.63414" lon="6.17544">
        <ele>226.4</ele>
        <time>2020-11-27T13:13:11Z</time>
      </trkpt>
      <trkpt lat="47.63418" lon="6.17547">
        <ele>226.5</ele>
        <time>2020-11-27T13:13:13Z</time>
      </trkpt>
      <trkpt lat="47.63423" lon="6.17551">
        <ele>226.6</ele>
        <time>2020-11-27T13:13:16Z</time>
      </trkpt>
      <trkpt lat="47.63427" lon="6.17554">
        <ele>226.6</ele>
        <time>2020-11-27T13:13:17Z</time>
      </trkpt>
      <trkpt lat="47.63432" lon="6.17558">
        <ele>226.6</ele>
        <time>2020-11-27T13:13:19Z</time>
      </trkpt>
      <trkpt lat="47.63438" lon="6.17562">
        <ele>226.6</ele>
        <time>2020-11-27T13:13:21Z</time>
      </trkpt>
      <trkpt lat="47.63443" lon="6.17566">
        <ele>226.7</ele>
        <time>2020-11-27T13:13:23Z</time>
      </trkpt>
      <trkpt lat="47.63447" lon="6.17569">
        <ele>226.7</ele>
        <time>2020-11-27T13:13:25Z</time>
      </trkpt>
      <trkpt lat="47.63452" lon="6.17573">
        <ele>226.7</ele>
        <time>2020-11-27T13:13:27Z</time>
      </trkpt>
      <trkpt lat="47.63458" lon="6.17578">
        <ele>226.6</ele>
        <time>2020-11-27T13:13:29Z</time>
      </trkpt>
      <trkpt lat="47.63463" lon="6.17583">
        <ele>226.6</ele>
        <time>2020-11-27T13:13:31Z</time>
      </trkpt>
      <trkpt lat="47.63469" lon="6.17587">
        <ele>226.6</ele>
        <time>2020-11-27T13:13:33Z</time>
      </trkpt>
      <trkpt lat="47.63473" lon="6.17591">
        <ele>226.6</ele>
        <time>2020-11-27T13:13:34Z</time>
      </trkpt>
      <trkpt lat="47.63479" lon="6.17595">
        <ele>226.6</ele>
        <time>2020-11-27T13:13:36Z</time>
      </trkpt>
      <trkpt lat="47.63483" lon="6.17599">
        <ele>226.6</ele>
        <time>2020-11-27T13:13:38Z</time>
      </trkpt>
      <trkpt lat="47.63488" lon="6.17603">
        <ele>226.6</ele>
        <time>2020-11-27T13:13:39Z</time>
      </trkpt>
      <trkpt lat="47.63493" lon="6.17608">
        <ele>226.6</ele>
        <time>2020-11-27T13:13:41Z</time>
      </trkpt>
      <trkpt lat="47.63498" lon="6.17612">
        <ele>226.6</ele>
        <time>2020-11-27T13:13:43Z</time>
      </trkpt>
      <trkpt lat="47.63503" lon="6.17616">
        <ele>226.6</ele>
        <time>2020-11-27T13:13:44Z</time>
      </trkpt>
      <trkpt lat="47.63509" lon="6.17621">
        <ele>226.7</ele>
        <time>2020-11-27T13:13:46Z</time>
      </trkpt>
      <trkpt lat="47.63513" lon="6.17626">
        <ele>226.8</ele>
        <time>2020-11-27T13:13:48Z</time>
      </trkpt>
      <trkpt lat="47.63517" lon="6.1763">
        <ele>226.9</ele>
        <time>2020-11-27T13:13:50Z</time>
      </trkpt>
      <trkpt lat="47.63522" lon="6.17636">
        <ele>227</ele>
        <time>2020-11-27T13:13:52Z</time>
      </trkpt>
      <trkpt lat="47.63527" lon="6.17641">
        <ele>227.1</ele>
        <time>2020-11-27T13:13:54Z</time>
      </trkpt>
      <trkpt lat="47.63531" lon="6.17645">
        <ele>227.1</ele>
        <time>2020-11-27T13:13:55Z</time>
      </trkpt>
      <trkpt lat="47.63535" lon="6.17649">
        <ele>227</ele>
        <time>2020-11-27T13:13:57Z</time>
      </trkpt>
      <trkpt lat="47.63539" lon="6.17653">
        <ele>227</ele>
        <time>2020-11-27T13:13:58Z</time>
      </trkpt>
      <trkpt lat="47.63545" lon="6.17659">
        <ele>226.8</ele>
        <time>2020-11-27T13:14:01Z</time>
      </trkpt>
      <trkpt lat="47.63551" lon="6.17664">
        <ele>226.6</ele>
        <time>2020-11-27T13:14:03Z</time>
      </trkpt>
      <trkpt lat="47.63557" lon="6.17669">
        <ele>226.4</ele>
        <time>2020-11-27T13:14:04Z</time>
      </trkpt>
      <trkpt lat="47.63561" lon="6.17674">
        <ele>226.4</ele>
        <time>2020-11-27T13:14:05Z</time>
      </trkpt>
      <trkpt lat="47.63567" lon="6.17681">
        <ele>226.3</ele>
        <time>2020-11-27T13:14:08Z</time>
      </trkpt>
      <trkpt lat="47.63571" lon="6.17684">
        <ele>226.2</ele>
        <time>2020-11-27T13:14:09Z</time>
      </trkpt>
      <trkpt lat="47.63577" lon="6.17691">
        <ele>226</ele>
        <time>2020-11-27T13:14:11Z</time>
      </trkpt>
      <trkpt lat="47.63582" lon="6.17696">
        <ele>225.9</ele>
        <time>2020-11-27T13:14:13Z</time>
      </trkpt>
      <trkpt lat="47.63586" lon="6.177">
        <ele>225.8</ele>
        <time>2020-11-27T13:14:15Z</time>
      </trkpt>
      <trkpt lat="47.63591" lon="6.17706">
        <ele>225.8</ele>
        <time>2020-11-27T13:14:17Z</time>
      </trkpt>
      <trkpt lat="47.63596" lon="6.17711">
        <ele>225.7</ele>
        <time>2020-11-27T13:14:19Z</time>
      </trkpt>
      <trkpt lat="47.636" lon="6.17715">
        <ele>225.7</ele>
        <time>2020-11-27T13:14:21Z</time>
      </trkpt>
      <trkpt lat="47.63605" lon="6.17721">
        <ele>225.5</ele>
        <time>2020-11-27T13:14:24Z</time>
      </trkpt>
      <trkpt lat="47.63609" lon="6.17724">
        <ele>225.4</ele>
        <time>2020-11-27T13:14:25Z</time>
      </trkpt>
      <trkpt lat="47.63614" lon="6.17729">
        <ele>225.2</ele>
        <time>2020-11-27T13:14:27Z</time>
      </trkpt>
      <trkpt lat="47.63619" lon="6.17734">
        <ele>225</ele>
        <time>2020-11-27T13:14:30Z</time>
      </trkpt>
      <trkpt lat="47.63623" lon="6.17738">
        <ele>224.8</ele>
        <time>2020-11-27T13:14:31Z</time>
      </trkpt>
      <trkpt lat="47.63627" lon="6.17742">
        <ele>224.6</ele>
        <time>2020-11-27T13:14:34Z</time>
      </trkpt>
      <trkpt lat="47.63631" lon="6.17747">
        <ele>224.3</ele>
        <time>2020-11-27T13:14:36Z</time>
      </trkpt>
      <trkpt lat="47.63636" lon="6.17752">
        <ele>224.1</ele>
        <time>2020-11-27T13:14:39Z</time>
      </trkpt>
      <trkpt lat="47.63641" lon="6.17756">
        <ele>223.9</ele>
        <time>2020-11-27T13:14:42Z</time>
      </trkpt>
      <trkpt lat="47.63646" lon="6.17761">
        <ele>223.8</ele>
        <time>2020-11-27T13:14:44Z</time>
      </trkpt>
      <trkpt lat="47.6365" lon="6.17764">
        <ele>223.5</ele>
        <time>2020-11-27T13:14:46Z</time>
      </trkpt>
      <trkpt lat="47.63654" lon="6.17767">
        <ele>223.3</ele>
        <time>2020-11-27T13:14:49Z</time>
      </trkpt>
      <trkpt lat="47.6366" lon="6.17773">
        <ele>223.1</ele>
        <time>2020-11-27T13:14:52Z</time>
      </trkpt>
      <trkpt lat="47.63664" lon="6.17778">
        <ele>223</ele>
        <time>2020-11-27T13:14:55Z</time>
      </trkpt>
      <trkpt lat="47.63669" lon="6.17782">
        <ele>222.9</ele>
        <time>2020-11-27T13:14:57Z</time>
      </trkpt>
      <trkpt lat="47.63672" lon="6.17786">
        <ele>223</ele>
        <time>2020-11-27T13:15:00Z</time>
      </trkpt>
      <trkpt lat="47.63678" lon="6.17792">
        <ele>223.2</ele>
        <time>2020-11-27T13:15:03Z</time>
      </trkpt>
      <trkpt lat="47.63683" lon="6.17796">
        <ele>223.3</ele>
        <time>2020-11-27T13:15:06Z</time>
      </trkpt>
      <trkpt lat="47.63688" lon="6.178">
        <ele>223.4</ele>
        <time>2020-11-27T13:15:08Z</time>
      </trkpt>
      <trkpt lat="47.63692" lon="6.17805">
        <ele>223.6</ele>
        <time>2020-11-27T13:15:10Z</time>
      </trkpt>
      <trkpt lat="47.63696" lon="6.17809">
        <ele>223.7</ele>
        <time>2020-11-27T13:15:12Z</time>
      </trkpt>
      <trkpt lat="47.637" lon="6.17813">
        <ele>223.8</ele>
        <time>2020-11-27T13:15:15Z</time>
      </trkpt>
      <trkpt lat="47.63705" lon="6.17818">
        <ele>223.9</ele>
        <time>2020-11-27T13:15:17Z</time>
      </trkpt>
      <trkpt lat="47.6371" lon="6.17822">
        <ele>223.9</ele>
        <time>2020-11-27T13:15:19Z</time>
      </trkpt>
      <trkpt lat="47.63715" lon="6.17827">
        <ele>224</ele>
        <time>2020-11-27T13:15:22Z</time>
      </trkpt>
      <trkpt lat="47.6372" lon="6.17833">
        <ele>224.1</ele>
        <time>2020-11-27T13:15:25Z</time>
      </trkpt>
      <trkpt lat="47.63725" lon="6.17838">
        <ele>224.3</ele>
        <time>2020-11-27T13:15:28Z</time>
      </trkpt>
      <trkpt lat="47.63729" lon="6.17843">
        <ele>224.4</ele>
        <time>2020-11-27T13:15:30Z</time>
      </trkpt>
      <trkpt lat="47.63734" lon="6.17848">
        <ele>224.6</ele>
        <time>2020-11-27T13:15:33Z</time>
      </trkpt>
      <trkpt lat="47.63737" lon="6.17853">
        <ele>224.8</ele>
        <time>2020-11-27T13:15:35Z</time>
      </trkpt>
      <trkpt lat="47.63743" lon="6.17858">
        <ele>224.9</ele>
        <time>2020-11-27T13:15:39Z</time>
      </trkpt>
      <trkpt lat="47.63746" lon="6.17863">
        <ele>225</ele>
        <time>2020-11-27T13:15:41Z</time>
      </trkpt>
      <trkpt lat="47.6375" lon="6.17868">
        <ele>225.1</ele>
        <time>2020-11-27T13:15:42Z</time>
      </trkpt>
      <trkpt lat="47.63753" lon="6.17872">
        <ele>225.2</ele>
        <time>2020-11-27T13:15:44Z</time>
      </trkpt>
      <trkpt lat="47.63758" lon="6.17878">
        <ele>225.2</ele>
        <time>2020-11-27T13:15:47Z</time>
      </trkpt>
      <trkpt lat="47.63763" lon="6.17882">
        <ele>225.2</ele>
        <time>2020-11-27T13:15:49Z</time>
      </trkpt>
      <trkpt lat="47.63769" lon="6.17889">
        <ele>225.2</ele>
        <time>2020-11-27T13:15:52Z</time>
      </trkpt>
      <trkpt lat="47.63772" lon="6.17894">
        <ele>225.3</ele>
        <time>2020-11-27T13:15:55Z</time>
      </trkpt>
      <trkpt lat="47.63776" lon="6.179">
        <ele>225.3</ele>
        <time>2020-11-27T13:15:57Z</time>
      </trkpt>
      <trkpt lat="47.6378" lon="6.17906">
        <ele>225.4</ele>
        <time>2020-11-27T13:16:00Z</time>
      </trkpt>
      <trkpt lat="47.63783" lon="6.17911">
        <ele>225.3</ele>
        <time>2020-11-27T13:16:02Z</time>
      </trkpt>
      <trkpt lat="47.63787" lon="6.17916">
        <ele>225.3</ele>
        <time>2020-11-27T13:16:05Z</time>
      </trkpt>
      <trkpt lat="47.63792" lon="6.17922">
        <ele>225.4</ele>
        <time>2020-11-27T13:16:07Z</time>
      </trkpt>
      <trkpt lat="47.63795" lon="6.17928">
        <ele>225.7</ele>
        <time>2020-11-27T13:16:10Z</time>
      </trkpt>
      <trkpt lat="47.63799" lon="6.17934">
        <ele>225.8</ele>
        <time>2020-11-27T13:16:13Z</time>
      </trkpt>
      <trkpt lat="47.63802" lon="6.17939">
        <ele>225.9</ele>
        <time>2020-11-27T13:16:16Z</time>
      </trkpt>
      <trkpt lat="47.63806" lon="6.17944">
        <ele>225.8</ele>
        <time>2020-11-27T13:16:18Z</time>
      </trkpt>
      <trkpt lat="47.6381" lon="6.17949">
        <ele>225.8</ele>
        <time>2020-11-27T13:16:21Z</time>
      </trkpt>
      <trkpt lat="47.63813" lon="6.17954">
        <ele>225.8</ele>
        <time>2020-11-27T13:16:23Z</time>
      </trkpt>
      <trkpt lat="47.63817" lon="6.1796">
        <ele>225.7</ele>
        <time>2020-11-27T13:16:26Z</time>
      </trkpt>
      <trkpt lat="47.63821" lon="6.17966">
        <ele>225.7</ele>
        <time>2020-11-27T13:16:29Z</time>
      </trkpt>
      <trkpt lat="47.63824" lon="6.17971">
        <ele>225.6</ele>
        <time>2020-11-27T13:16:32Z</time>
      </trkpt>
      <trkpt lat="47.63828" lon="6.17977">
        <ele>225.5</ele>
        <time>2020-11-27T13:16:34Z</time>
      </trkpt>
      <trkpt lat="47.63832" lon="6.17983">
        <ele>225.3</ele>
        <time>2020-11-27T13:16:37Z</time>
      </trkpt>
      <trkpt lat="47.63835" lon="6.17987">
        <ele>225.2</ele>
        <time>2020-11-27T13:16:39Z</time>
      </trkpt>
      <trkpt lat="47.63839" lon="6.17992">
        <ele>225.2</ele>
        <time>2020-11-27T13:16:41Z</time>
      </trkpt>
      <trkpt lat="47.63843" lon="6.17998">
        <ele>225.1</ele>
        <time>2020-11-27T13:16:43Z</time>
      </trkpt>
      <trkpt lat="47.63846" lon="6.18004">
        <ele>225.1</ele>
        <time>2020-11-27T13:16:45Z</time>
      </trkpt>
      <trkpt lat="47.6385" lon="6.18009">
        <ele>225</ele>
        <time>2020-11-27T13:16:47Z</time>
      </trkpt>
      <trkpt lat="47.63855" lon="6.18016">
        <ele>224.9</ele>
        <time>2020-11-27T13:16:49Z</time>
      </trkpt>
      <trkpt lat="47.6386" lon="6.18022">
        <ele>224.8</ele>
        <time>2020-11-27T13:16:51Z</time>
      </trkpt>
      <trkpt lat="47.63865" lon="6.18031">
        <ele>224.6</ele>
        <time>2020-11-27T13:16:53Z</time>
      </trkpt>
      <trkpt lat="47.63869" lon="6.18036">
        <ele>224.5</ele>
        <time>2020-11-27T13:16:55Z</time>
      </trkpt>
      <trkpt lat="47.63873" lon="6.18042">
        <ele>224.5</ele>
        <time>2020-11-27T13:16:57Z</time>
      </trkpt>
      <trkpt lat="47.63878" lon="6.18049">
        <ele>224.3</ele>
        <time>2020-11-27T13:16:59Z</time>
      </trkpt>
      <trkpt lat="47.63881" lon="6.18054">
        <ele>224.2</ele>
        <time>2020-11-27T13:17:01Z</time>
      </trkpt>
      <trkpt lat="47.63885" lon="6.1806">
        <ele>224.1</ele>
        <time>2020-11-27T13:17:03Z</time>
      </trkpt>
      <trkpt lat="47.6389" lon="6.18069">
        <ele>223.9</ele>
        <time>2020-11-27T13:17:06Z</time>
      </trkpt>
      <trkpt lat="47.63894" lon="6.18073">
        <ele>223.8</ele>
        <time>2020-11-27T13:17:07Z</time>
      </trkpt>
      <trkpt lat="47.63898" lon="6.18079">
        <ele>223.6</ele>
        <time>2020-11-27T13:17:09Z</time>
      </trkpt>
      <trkpt lat="47.63903" lon="6.18085">
        <ele>223.4</ele>
        <time>2020-11-27T13:17:12Z</time>
      </trkpt>
      <trkpt lat="47.63908" lon="6.18091">
        <ele>223.5</ele>
        <time>2020-11-27T13:17:13Z</time>
      </trkpt>
      <trkpt lat="47.63913" lon="6.18098">
        <ele>223.5</ele>
        <time>2020-11-27T13:17:15Z</time>
      </trkpt>
      <trkpt lat="47.63916" lon="6.18103">
        <ele>223.5</ele>
        <time>2020-11-27T13:17:17Z</time>
      </trkpt>
      <trkpt lat="47.63919" lon="6.18108">
        <ele>223.7</ele>
        <time>2020-11-27T13:17:18Z</time>
      </trkpt>
      <trkpt lat="47.63925" lon="6.18118">
        <ele>224.1</ele>
        <time>2020-11-27T13:17:20Z</time>
      </trkpt>
      <trkpt lat="47.63929" lon="6.18124">
        <ele>224.2</ele>
        <time>2020-11-27T13:17:22Z</time>
      </trkpt>
      <trkpt lat="47.63934" lon="6.18128">
        <ele>224.3</ele>
        <time>2020-11-27T13:17:23Z</time>
      </trkpt>
      <trkpt lat="47.63939" lon="6.18136">
        <ele>224.5</ele>
        <time>2020-11-27T13:17:25Z</time>
      </trkpt>
      <trkpt lat="47.63944" lon="6.18144">
        <ele>224.7</ele>
        <time>2020-11-27T13:17:28Z</time>
      </trkpt>
      <trkpt lat="47.63948" lon="6.1815">
        <ele>224.8</ele>
        <time>2020-11-27T13:17:29Z</time>
      </trkpt>
      <trkpt lat="47.63952" lon="6.18157">
        <ele>224.9</ele>
        <time>2020-11-27T13:17:31Z</time>
      </trkpt>
      <trkpt lat="47.63956" lon="6.18163">
        <ele>224.9</ele>
        <time>2020-11-27T13:17:33Z</time>
      </trkpt>
      <trkpt lat="47.6396" lon="6.18169">
        <ele>225</ele>
        <time>2020-11-27T13:17:35Z</time>
      </trkpt>
      <trkpt lat="47.63966" lon="6.18174">
        <ele>225</ele>
        <time>2020-11-27T13:17:37Z</time>
      </trkpt>
      <trkpt lat="47.63972" lon="6.18178">
        <ele>224.7</ele>
        <time>2020-11-27T13:17:39Z</time>
      </trkpt>
      <trkpt lat="47.63977" lon="6.18181">
        <ele>224.5</ele>
        <time>2020-11-27T13:17:41Z</time>
      </trkpt>
      <trkpt lat="47.63982" lon="6.18184">
        <ele>224.2</ele>
        <time>2020-11-27T13:17:43Z</time>
      </trkpt>
      <trkpt lat="47.63987" lon="6.18187">
        <ele>223.9</ele>
        <time>2020-11-27T13:17:45Z</time>
      </trkpt>
      <trkpt lat="47.63992" lon="6.18191">
        <ele>223.6</ele>
        <time>2020-11-27T13:17:47Z</time>
      </trkpt>
      <trkpt lat="47.63999" lon="6.18194">
        <ele>223.1</ele>
        <time>2020-11-27T13:17:49Z</time>
      </trkpt>
      <trkpt lat="47.64006" lon="6.18199">
        <ele>223.1</ele>
        <time>2020-11-27T13:17:51Z</time>
      </trkpt>
      <trkpt lat="47.6401" lon="6.18202">
        <ele>223.2</ele>
        <time>2020-11-27T13:17:53Z</time>
      </trkpt>
      <trkpt lat="47.64015" lon="6.18206">
        <ele>223.2</ele>
        <time>2020-11-27T13:17:55Z</time>
      </trkpt>
      <trkpt lat="47.64021" lon="6.18209">
        <ele>223.3</ele>
        <time>2020-11-27T13:17:56Z</time>
      </trkpt>
      <trkpt lat="47.64025" lon="6.18212">
        <ele>223.3</ele>
        <time>2020-11-27T13:17:58Z</time>
      </trkpt>
      <trkpt lat="47.64032" lon="6.18216">
        <ele>223.4</ele>
        <time>2020-11-27T13:18:00Z</time>
      </trkpt>
      <trkpt lat="47.64039" lon="6.1822">
        <ele>223.5</ele>
        <time>2020-11-27T13:18:02Z</time>
      </trkpt>
      <trkpt lat="47.64044" lon="6.18224">
        <ele>223.5</ele>
        <time>2020-11-27T13:18:04Z</time>
      </trkpt>
      <trkpt lat="47.64049" lon="6.18226">
        <ele>223.5</ele>
        <time>2020-11-27T13:18:06Z</time>
      </trkpt>
      <trkpt lat="47.64056" lon="6.18226">
        <ele>223.5</ele>
        <time>2020-11-27T13:18:08Z</time>
      </trkpt>
      <trkpt lat="47.6406" lon="6.18219">
        <ele>223.2</ele>
        <time>2020-11-27T13:18:10Z</time>
      </trkpt>
      <trkpt lat="47.64063" lon="6.18209">
        <ele>222.8</ele>
        <time>2020-11-27T13:18:12Z</time>
      </trkpt>
      <trkpt lat="47.64065" lon="6.182">
        <ele>222.4</ele>
        <time>2020-11-27T13:18:14Z</time>
      </trkpt>
      <trkpt lat="47.64069" lon="6.18192">
        <ele>222.1</ele>
        <time>2020-11-27T13:18:16Z</time>
      </trkpt>
      <trkpt lat="47.64074" lon="6.1819">
        <ele>221.9</ele>
        <time>2020-11-27T13:18:17Z</time>
      </trkpt>
      <trkpt lat="47.6408" lon="6.18193">
        <ele>222</ele>
        <time>2020-11-27T13:18:19Z</time>
      </trkpt>
      <trkpt lat="47.64085" lon="6.18197">
        <ele>222.1</ele>
        <time>2020-11-27T13:18:21Z</time>
      </trkpt>
      <trkpt lat="47.6409" lon="6.18202">
        <ele>222.1</ele>
        <time>2020-11-27T13:18:22Z</time>
      </trkpt>
      <trkpt lat="47.64098" lon="6.18209">
        <ele>222.3</ele>
        <time>2020-11-27T13:18:24Z</time>
      </trkpt>
      <trkpt lat="47.64102" lon="6.18215">
        <ele>222.4</ele>
        <time>2020-11-27T13:18:26Z</time>
      </trkpt>
      <trkpt lat="47.64108" lon="6.18221">
        <ele>222.6</ele>
        <time>2020-11-27T13:18:29Z</time>
      </trkpt>
      <trkpt lat="47.64112" lon="6.18226">
        <ele>222.7</ele>
        <time>2020-11-27T13:18:30Z</time>
      </trkpt>
      <trkpt lat="47.64118" lon="6.18231">
        <ele>222.8</ele>
        <time>2020-11-27T13:18:32Z</time>
      </trkpt>
      <trkpt lat="47.64122" lon="6.18235">
        <ele>222.9</ele>
        <time>2020-11-27T13:18:34Z</time>
      </trkpt>
      <trkpt lat="47.64128" lon="6.1824">
        <ele>223</ele>
        <time>2020-11-27T13:18:37Z</time>
      </trkpt>
      <trkpt lat="47.64133" lon="6.18243">
        <ele>223.1</ele>
        <time>2020-11-27T13:18:38Z</time>
      </trkpt>
      <trkpt lat="47.64137" lon="6.18245">
        <ele>223.1</ele>
        <time>2020-11-27T13:18:40Z</time>
      </trkpt>
      <trkpt lat="47.64143" lon="6.18248">
        <ele>223.2</ele>
        <time>2020-11-27T13:18:42Z</time>
      </trkpt>
      <trkpt lat="47.64148" lon="6.1825">
        <ele>223.2</ele>
        <time>2020-11-27T13:18:43Z</time>
      </trkpt>
      <trkpt lat="47.64155" lon="6.18252">
        <ele>223.4</ele>
        <time>2020-11-27T13:18:45Z</time>
      </trkpt>
      <trkpt lat="47.64161" lon="6.18254">
        <ele>223.5</ele>
        <time>2020-11-27T13:18:47Z</time>
      </trkpt>
      <trkpt lat="47.64168" lon="6.18256">
        <ele>223.6</ele>
        <time>2020-11-27T13:18:49Z</time>
      </trkpt>
      <trkpt lat="47.64173" lon="6.18257">
        <ele>223.5</ele>
        <time>2020-11-27T13:18:51Z</time>
      </trkpt>
      <trkpt lat="47.64179" lon="6.18258">
        <ele>223.5</ele>
        <time>2020-11-27T13:18:53Z</time>
      </trkpt>
      <trkpt lat="47.64185" lon="6.18259">
        <ele>223.5</ele>
        <time>2020-11-27T13:18:55Z</time>
      </trkpt>
      <trkpt lat="47.64192" lon="6.1826">
        <ele>223.4</ele>
        <time>2020-11-27T13:18:58Z</time>
      </trkpt>
      <trkpt lat="47.64196" lon="6.18262">
        <ele>223.4</ele>
        <time>2020-11-27T13:19:01Z</time>
      </trkpt>
      <trkpt lat="47.64202" lon="6.18261">
        <ele>223.2</ele>
        <time>2020-11-27T13:19:03Z</time>
      </trkpt>
      <trkpt lat="47.64208" lon="6.18262">
        <ele>223.1</ele>
        <time>2020-11-27T13:19:07Z</time>
      </trkpt>
      <trkpt lat="47.64214" lon="6.18263">
        <ele>223</ele>
        <time>2020-11-27T13:19:11Z</time>
      </trkpt>
      <trkpt lat="47.64219" lon="6.18266">
        <ele>223</ele>
        <time>2020-11-27T13:19:15Z</time>
      </trkpt>
      <trkpt lat="47.64222" lon="6.18273">
        <ele>223.1</ele>
        <time>2020-11-27T13:19:19Z</time>
      </trkpt>
      <trkpt lat="47.64225" lon="6.1828">
        <ele>223.2</ele>
        <time>2020-11-27T13:19:22Z</time>
      </trkpt>
      <trkpt lat="47.64225" lon="6.18287">
        <ele>223.4</ele>
        <time>2020-11-27T13:19:24Z</time>
      </trkpt>
      <trkpt lat="47.64223" lon="6.18295">
        <ele>223.7</ele>
        <time>2020-11-27T13:19:26Z</time>
      </trkpt>
      <trkpt lat="47.6422" lon="6.18303">
        <ele>224.2</ele>
        <time>2020-11-27T13:19:28Z</time>
      </trkpt>
      <trkpt lat="47.64217" lon="6.18312">
        <ele>224.7</ele>
        <time>2020-11-27T13:19:29Z</time>
      </trkpt>
      <trkpt lat="47.64215" lon="6.18319">
        <ele>225.2</ele>
        <time>2020-11-27T13:19:30Z</time>
      </trkpt>
      <trkpt lat="47.64211" lon="6.18328">
        <ele>226</ele>
        <time>2020-11-27T13:19:31Z</time>
      </trkpt>
      <trkpt lat="47.64209" lon="6.18334">
        <ele>226.5</ele>
        <time>2020-11-27T13:19:32Z</time>
      </trkpt>
      <trkpt lat="47.64206" lon="6.18342">
        <ele>227.1</ele>
        <time>2020-11-27T13:19:33Z</time>
      </trkpt>
      <trkpt lat="47.64203" lon="6.1835">
        <ele>227.7</ele>
        <time>2020-11-27T13:19:34Z</time>
      </trkpt>
      <trkpt lat="47.64202" lon="6.18357">
        <ele>228.1</ele>
        <time>2020-11-27T13:19:35Z</time>
      </trkpt>
      <trkpt lat="47.642" lon="6.18368">
        <ele>228.8</ele>
        <time>2020-11-27T13:19:37Z</time>
      </trkpt>
      <trkpt lat="47.64198" lon="6.18379">
        <ele>229.6</ele>
        <time>2020-11-27T13:19:39Z</time>
      </trkpt>
      <trkpt lat="47.64196" lon="6.18393">
        <ele>230.5</ele>
        <time>2020-11-27T13:19:42Z</time>
      </trkpt>
      <trkpt lat="47.64194" lon="6.18403">
        <ele>231.1</ele>
        <time>2020-11-27T13:19:43Z</time>
      </trkpt>
      <trkpt lat="47.64193" lon="6.18411">
        <ele>231.6</ele>
        <time>2020-11-27T13:19:44Z</time>
      </trkpt>
      <trkpt lat="47.64192" lon="6.1842">
        <ele>232.1</ele>
        <time>2020-11-27T13:19:46Z</time>
      </trkpt>
      <trkpt lat="47.64191" lon="6.1843">
        <ele>232.2</ele>
        <time>2020-11-27T13:19:48Z</time>
      </trkpt>
      <trkpt lat="47.6419" lon="6.18438">
        <ele>232.4</ele>
        <time>2020-11-27T13:19:50Z</time>
      </trkpt>
      <trkpt lat="47.6419" lon="6.18445">
        <ele>232.4</ele>
        <time>2020-11-27T13:19:51Z</time>
      </trkpt>
      <trkpt lat="47.6419" lon="6.18453">
        <ele>232.4</ele>
        <time>2020-11-27T13:19:53Z</time>
      </trkpt>
      <trkpt lat="47.6419" lon="6.18462">
        <ele>232.4</ele>
        <time>2020-11-27T13:19:55Z</time>
      </trkpt>
      <trkpt lat="47.6419" lon="6.1847">
        <ele>232.4</ele>
        <time>2020-11-27T13:19:57Z</time>
      </trkpt>
      <trkpt lat="47.64191" lon="6.18478">
        <ele>232.3</ele>
        <time>2020-11-27T13:19:59Z</time>
      </trkpt>
      <trkpt lat="47.64191" lon="6.18489">
        <ele>232.3</ele>
        <time>2020-11-27T13:20:01Z</time>
      </trkpt>
      <trkpt lat="47.64191" lon="6.18496">
        <ele>232.3</ele>
        <time>2020-11-27T13:20:04Z</time>
      </trkpt>
      <trkpt lat="47.64193" lon="6.18503">
        <ele>232.4</ele>
        <time>2020-11-27T13:20:06Z</time>
      </trkpt>
      <trkpt lat="47.64196" lon="6.18511">
        <ele>232.7</ele>
        <time>2020-11-27T13:20:08Z</time>
      </trkpt>
      <trkpt lat="47.642" lon="6.18517">
        <ele>232.7</ele>
        <time>2020-11-27T13:20:11Z</time>
      </trkpt>
      <trkpt lat="47.64203" lon="6.18523">
        <ele>232.7</ele>
        <time>2020-11-27T13:20:14Z</time>
      </trkpt>
      <trkpt lat="47.64209" lon="6.18527">
        <ele>232</ele>
        <time>2020-11-27T13:20:16Z</time>
      </trkpt>
      <trkpt lat="47.64215" lon="6.18532">
        <ele>231.2</ele>
        <time>2020-11-27T13:20:19Z</time>
      </trkpt>
      <trkpt lat="47.6422" lon="6.18537">
        <ele>230.6</ele>
        <time>2020-11-27T13:20:22Z</time>
      </trkpt>
      <trkpt lat="47.64224" lon="6.1854">
        <ele>230.2</ele>
        <time>2020-11-27T13:20:24Z</time>
      </trkpt>
      <trkpt lat="47.6423" lon="6.18545">
        <ele>229.3</ele>
        <time>2020-11-27T13:20:28Z</time>
      </trkpt>
      <trkpt lat="47.64235" lon="6.18545">
        <ele>228.1</ele>
        <time>2020-11-27T13:20:30Z</time>
      </trkpt>
      <trkpt lat="47.6424" lon="6.18547">
        <ele>227.2</ele>
        <time>2020-11-27T13:20:32Z</time>
      </trkpt>
      <trkpt lat="47.64245" lon="6.18551">
        <ele>226.4</ele>
        <time>2020-11-27T13:20:35Z</time>
      </trkpt>
      <trkpt lat="47.64249" lon="6.18555">
        <ele>225.8</ele>
        <time>2020-11-27T13:20:39Z</time>
      </trkpt>
      <trkpt lat="47.64254" lon="6.1856">
        <ele>225.9</ele>
        <time>2020-11-27T13:20:40Z</time>
      </trkpt>
      <trkpt lat="47.64259" lon="6.18564">
        <ele>226.1</ele>
        <time>2020-11-27T13:20:42Z</time>
      </trkpt>
      <trkpt lat="47.64264" lon="6.18569">
        <ele>226.3</ele>
        <time>2020-11-27T13:20:45Z</time>
      </trkpt>
      <trkpt lat="47.64268" lon="6.18574">
        <ele>226.5</ele>
        <time>2020-11-27T13:20:48Z</time>
      </trkpt>
      <trkpt lat="47.64273" lon="6.18578">
        <ele>226.6</ele>
        <time>2020-11-27T13:20:50Z</time>
      </trkpt>
      <trkpt lat="47.64277" lon="6.18583">
        <ele>226.6</ele>
        <time>2020-11-27T13:20:53Z</time>
      </trkpt>
      <trkpt lat="47.64282" lon="6.18587">
        <ele>227.1</ele>
        <time>2020-11-27T13:20:55Z</time>
      </trkpt>
      <trkpt lat="47.64286" lon="6.18591">
        <ele>227.5</ele>
        <time>2020-11-27T13:20:57Z</time>
      </trkpt>
      <trkpt lat="47.64291" lon="6.18595">
        <ele>227.9</ele>
        <time>2020-11-27T13:21:00Z</time>
      </trkpt>
      <trkpt lat="47.64296" lon="6.18599">
        <ele>228.2</ele>
        <time>2020-11-27T13:21:02Z</time>
      </trkpt>
      <trkpt lat="47.64301" lon="6.18603">
        <ele>228.3</ele>
        <time>2020-11-27T13:21:05Z</time>
      </trkpt>
      <trkpt lat="47.64305" lon="6.18606">
        <ele>228.4</ele>
        <time>2020-11-27T13:21:06Z</time>
      </trkpt>
      <trkpt lat="47.6431" lon="6.1861">
        <ele>228.5</ele>
        <time>2020-11-27T13:21:09Z</time>
      </trkpt>
      <trkpt lat="47.64316" lon="6.18614">
        <ele>228.6</ele>
        <time>2020-11-27T13:21:12Z</time>
      </trkpt>
      <trkpt lat="47.6432" lon="6.18617">
        <ele>228.5</ele>
        <time>2020-11-27T13:21:14Z</time>
      </trkpt>
      <trkpt lat="47.64327" lon="6.1862">
        <ele>228.2</ele>
        <time>2020-11-27T13:21:17Z</time>
      </trkpt>
      <trkpt lat="47.64332" lon="6.18624">
        <ele>228</ele>
        <time>2020-11-27T13:21:20Z</time>
      </trkpt>
      <trkpt lat="47.64337" lon="6.18627">
        <ele>228.2</ele>
        <time>2020-11-27T13:21:22Z</time>
      </trkpt>
      <trkpt lat="47.64341" lon="6.1863">
        <ele>228.5</ele>
        <time>2020-11-27T13:21:25Z</time>
      </trkpt>
      <trkpt lat="47.64345" lon="6.18633">
        <ele>228.7</ele>
        <time>2020-11-27T13:21:28Z</time>
      </trkpt>
      <trkpt lat="47.6435" lon="6.18636">
        <ele>228.9</ele>
        <time>2020-11-27T13:21:31Z</time>
      </trkpt>
      <trkpt lat="47.64356" lon="6.18638">
        <ele>228.9</ele>
        <time>2020-11-27T13:21:34Z</time>
      </trkpt>
      <trkpt lat="47.64361" lon="6.1864">
        <ele>228.9</ele>
        <time>2020-11-27T13:21:36Z</time>
      </trkpt>
      <trkpt lat="47.64366" lon="6.18641">
        <ele>229</ele>
        <time>2020-11-27T13:21:40Z</time>
      </trkpt>
      <trkpt lat="47.64371" lon="6.18643">
        <ele>229</ele>
        <time>2020-11-27T13:21:42Z</time>
      </trkpt>
      <trkpt lat="47.64376" lon="6.18645">
        <ele>228.9</ele>
        <time>2020-11-27T13:21:42Z</time>
      </trkpt>
      <trkpt lat="47.64381" lon="6.18646">
        <ele>228.9</ele>
        <time>2020-11-27T13:21:44Z</time>
      </trkpt>
      <trkpt lat="47.64385" lon="6.18647">
        <ele>228.8</ele>
        <time>2020-11-27T13:21:46Z</time>
      </trkpt>
      <trkpt lat="47.6439" lon="6.18649">
        <ele>228.7</ele>
        <time>2020-11-27T13:21:48Z</time>
      </trkpt>
      <trkpt lat="47.64394" lon="6.1865">
        <ele>228.7</ele>
        <time>2020-11-27T13:21:52Z</time>
      </trkpt>
      <trkpt lat="47.644" lon="6.18653">
        <ele>228.5</ele>
        <time>2020-11-27T13:21:55Z</time>
      </trkpt>
      <trkpt lat="47.64405" lon="6.18655">
        <ele>228.4</ele>
        <time>2020-11-27T13:21:56Z</time>
      </trkpt>
      <trkpt lat="47.6441" lon="6.18658">
        <ele>228.3</ele>
        <time>2020-11-27T13:21:59Z</time>
      </trkpt>
      <trkpt lat="47.64414" lon="6.18661">
        <ele>228.1</ele>
        <time>2020-11-27T13:22:01Z</time>
      </trkpt>
      <trkpt lat="47.64419" lon="6.18665">
        <ele>228</ele>
        <time>2020-11-27T13:22:04Z</time>
      </trkpt>
      <trkpt lat="47.64423" lon="6.18668">
        <ele>228.1</ele>
        <time>2020-11-27T13:22:06Z</time>
      </trkpt>
      <trkpt lat="47.64428" lon="6.18672">
        <ele>228.4</ele>
        <time>2020-11-27T13:22:09Z</time>
      </trkpt>
      <trkpt lat="47.64432" lon="6.18676">
        <ele>228.8</ele>
        <time>2020-11-27T13:22:11Z</time>
      </trkpt>
      <trkpt lat="47.64436" lon="6.1868">
        <ele>229</ele>
        <time>2020-11-27T13:22:14Z</time>
      </trkpt>
      <trkpt lat="47.6444" lon="6.18685">
        <ele>229.4</ele>
        <time>2020-11-27T13:22:17Z</time>
      </trkpt>
      <trkpt lat="47.64443" lon="6.1869">
        <ele>229.8</ele>
        <time>2020-11-27T13:22:20Z</time>
      </trkpt>
      <trkpt lat="47.64447" lon="6.18695">
        <ele>230.1</ele>
        <time>2020-11-27T13:22:25Z</time>
      </trkpt>
      <trkpt lat="47.64451" lon="6.18698">
        <ele>230.2</ele>
        <time>2020-11-27T13:22:28Z</time>
      </trkpt>
      <trkpt lat="47.64456" lon="6.18701">
        <ele>230.3</ele>
        <time>2020-11-27T13:22:32Z</time>
      </trkpt>
      <trkpt lat="47.64461" lon="6.187">
        <ele>230</ele>
        <time>2020-11-27T13:22:35Z</time>
      </trkpt>
      <trkpt lat="47.64468" lon="6.18698">
        <ele>229.6</ele>
        <time>2020-11-27T13:22:37Z</time>
      </trkpt>
      <trkpt lat="47.64473" lon="6.18696">
        <ele>229.3</ele>
        <time>2020-11-27T13:22:39Z</time>
      </trkpt>
      <trkpt lat="47.64482" lon="6.18694">
        <ele>228.9</ele>
        <time>2020-11-27T13:22:41Z</time>
      </trkpt>
      <trkpt lat="47.64489" lon="6.18692">
        <ele>228.6</ele>
        <time>2020-11-27T13:22:43Z</time>
      </trkpt>
      <trkpt lat="47.64494" lon="6.18691">
        <ele>228.3</ele>
        <time>2020-11-27T13:22:45Z</time>
      </trkpt>
      <trkpt lat="47.64498" lon="6.1869">
        <ele>228.2</ele>
        <time>2020-11-27T13:22:48Z</time>
      </trkpt>
      <trkpt lat="47.64503" lon="6.1869">
        <ele>228.2</ele>
        <time>2020-11-27T13:22:51Z</time>
      </trkpt>
      <trkpt lat="47.64507" lon="6.18691">
        <ele>228.4</ele>
        <time>2020-11-27T13:22:55Z</time>
      </trkpt>
      <trkpt lat="47.64513" lon="6.18693">
        <ele>228.6</ele>
        <time>2020-11-27T13:23:00Z</time>
      </trkpt>
      <trkpt lat="47.64518" lon="6.18695">
        <ele>228.8</ele>
        <time>2020-11-27T13:23:01Z</time>
      </trkpt>
      <trkpt lat="47.64522" lon="6.18698">
        <ele>229</ele>
        <time>2020-11-27T13:23:04Z</time>
      </trkpt>
      <trkpt lat="47.64527" lon="6.18702">
        <ele>229.1</ele>
        <time>2020-11-27T13:23:07Z</time>
      </trkpt>
      <trkpt lat="47.64531" lon="6.18707">
        <ele>229.2</ele>
        <time>2020-11-27T13:23:10Z</time>
      </trkpt>
      <trkpt lat="47.64537" lon="6.18711">
        <ele>229.2</ele>
        <time>2020-11-27T13:23:13Z</time>
      </trkpt>
      <trkpt lat="47.64542" lon="6.18715">
        <ele>229.1</ele>
        <time>2020-11-27T13:23:16Z</time>
      </trkpt>
      <trkpt lat="47.64546" lon="6.18721">
        <ele>229</ele>
        <time>2020-11-27T13:23:21Z</time>
      </trkpt>
      <trkpt lat="47.64549" lon="6.18726">
        <ele>228.8</ele>
        <time>2020-11-27T13:23:22Z</time>
      </trkpt>
      <trkpt lat="47.64553" lon="6.1873">
        <ele>228.5</ele>
        <time>2020-11-27T13:23:25Z</time>
      </trkpt>
      <trkpt lat="47.64558" lon="6.18734">
        <ele>228.2</ele>
        <time>2020-11-27T13:23:28Z</time>
      </trkpt>
      <trkpt lat="47.64563" lon="6.1874">
        <ele>227.8</ele>
        <time>2020-11-27T13:23:31Z</time>
      </trkpt>
      <trkpt lat="47.64568" lon="6.18744">
        <ele>227.3</ele>
        <time>2020-11-27T13:23:34Z</time>
      </trkpt>
      <trkpt lat="47.64573" lon="6.18749">
        <ele>226.7</ele>
        <time>2020-11-27T13:23:38Z</time>
      </trkpt>
      <trkpt lat="47.64577" lon="6.18753">
        <ele>226.4</ele>
        <time>2020-11-27T13:23:40Z</time>
      </trkpt>
      <trkpt lat="47.6458" lon="6.18759">
        <ele>226.4</ele>
        <time>2020-11-27T13:23:43Z</time>
      </trkpt>
      <trkpt lat="47.64581" lon="6.18768">
        <ele>226.4</ele>
        <time>2020-11-27T13:23:47Z</time>
      </trkpt>
      <trkpt lat="47.64582" lon="6.18777">
        <ele>226.5</ele>
        <time>2020-11-27T13:23:53Z</time>
      </trkpt>
      <trkpt lat="47.64587" lon="6.18776">
        <ele>226.8</ele>
        <time>2020-11-27T13:24:14Z</time>
      </trkpt>
      <trkpt lat="47.64592" lon="6.18776">
        <ele>227.4</ele>
        <time>2020-11-27T13:24:31Z</time>
      </trkpt>
      <trkpt lat="47.64589" lon="6.18769">
        <ele>227</ele>
        <time>2020-11-27T13:25:36Z</time>
      </trkpt>
      <trkpt lat="47.64587" lon="6.1876">
        <ele>226.6</ele>
        <time>2020-11-27T13:25:39Z</time>
      </trkpt>
      <trkpt lat="47.64582" lon="6.18752">
        <ele>226.1</ele>
        <time>2020-11-27T13:25:41Z</time>
      </trkpt>
      <trkpt lat="47.64578" lon="6.18747">
        <ele>226.6</ele>
        <time>2020-11-27T13:25:45Z</time>
      </trkpt>
      <trkpt lat="47.64574" lon="6.18743">
        <ele>227.1</ele>
        <time>2020-11-27T13:25:45Z</time>
      </trkpt>
      <trkpt lat="47.64569" lon="6.18738">
        <ele>227.6</ele>
        <time>2020-11-27T13:25:46Z</time>
      </trkpt>
      <trkpt lat="47.64565" lon="6.18734">
        <ele>228</ele>
        <time>2020-11-27T13:25:47Z</time>
      </trkpt>
      <trkpt lat="47.6456" lon="6.18727">
        <ele>228.5</ele>
        <time>2020-11-27T13:25:49Z</time>
      </trkpt>
      <trkpt lat="47.64554" lon="6.18721">
        <ele>228.8</ele>
        <time>2020-11-27T13:25:51Z</time>
      </trkpt>
      <trkpt lat="47.64549" lon="6.18717">
        <ele>229</ele>
        <time>2020-11-27T13:25:53Z</time>
      </trkpt>
      <trkpt lat="47.64545" lon="6.18713">
        <ele>229.2</ele>
        <time>2020-11-27T13:25:56Z</time>
      </trkpt>
      <trkpt lat="47.64539" lon="6.18707">
        <ele>229.3</ele>
        <time>2020-11-27T13:25:57Z</time>
      </trkpt>
      <trkpt lat="47.64535" lon="6.18704">
        <ele>229.2</ele>
        <time>2020-11-27T13:25:59Z</time>
      </trkpt>
      <trkpt lat="47.64528" lon="6.18699">
        <ele>229.1</ele>
        <time>2020-11-27T13:26:04Z</time>
      </trkpt>
      <trkpt lat="47.64523" lon="6.18695">
        <ele>229</ele>
        <time>2020-11-27T13:26:05Z</time>
      </trkpt>
      <trkpt lat="47.64518" lon="6.18693">
        <ele>228.8</ele>
        <time>2020-11-27T13:26:09Z</time>
      </trkpt>
      <trkpt lat="47.64514" lon="6.18692">
        <ele>228.7</ele>
        <time>2020-11-27T13:26:10Z</time>
      </trkpt>
      <trkpt lat="47.64507" lon="6.18692">
        <ele>228.4</ele>
        <time>2020-11-27T13:26:14Z</time>
      </trkpt>
      <trkpt lat="47.64502" lon="6.18689">
        <ele>228.1</ele>
        <time>2020-11-27T13:26:18Z</time>
      </trkpt>
      <trkpt lat="47.64497" lon="6.18688">
        <ele>228.1</ele>
        <time>2020-11-27T13:26:20Z</time>
      </trkpt>
      <trkpt lat="47.64493" lon="6.18687">
        <ele>228.2</ele>
        <time>2020-11-27T13:26:22Z</time>
      </trkpt>
      <trkpt lat="47.64488" lon="6.18688">
        <ele>228.4</ele>
        <time>2020-11-27T13:26:24Z</time>
      </trkpt>
      <trkpt lat="47.64483" lon="6.1869">
        <ele>228.6</ele>
        <time>2020-11-27T13:26:26Z</time>
      </trkpt>
      <trkpt lat="47.64478" lon="6.18691">
        <ele>228.8</ele>
        <time>2020-11-27T13:26:29Z</time>
      </trkpt>
      <trkpt lat="47.64474" lon="6.18692">
        <ele>229</ele>
        <time>2020-11-27T13:26:32Z</time>
      </trkpt>
      <trkpt lat="47.64469" lon="6.18694">
        <ele>229.3</ele>
        <time>2020-11-27T13:26:35Z</time>
      </trkpt>
      <trkpt lat="47.64464" lon="6.18696">
        <ele>229.6</ele>
        <time>2020-11-27T13:26:41Z</time>
      </trkpt>
      <trkpt lat="47.64458" lon="6.18694">
        <ele>229.6</ele>
        <time>2020-11-27T13:26:46Z</time>
      </trkpt>
      <trkpt lat="47.64453" lon="6.1869">
        <ele>229.5</ele>
        <time>2020-11-27T13:26:48Z</time>
      </trkpt>
      <trkpt lat="47.64449" lon="6.18687">
        <ele>229.4</ele>
        <time>2020-11-27T13:26:51Z</time>
      </trkpt>
      <trkpt lat="47.64443" lon="6.18684">
        <ele>229.2</ele>
        <time>2020-11-27T13:26:55Z</time>
      </trkpt>
      <trkpt lat="47.64439" lon="6.1868">
        <ele>228.9</ele>
        <time>2020-11-27T13:26:55Z</time>
      </trkpt>
      <trkpt lat="47.64434" lon="6.18676">
        <ele>228.7</ele>
        <time>2020-11-27T13:26:56Z</time>
      </trkpt>
      <trkpt lat="47.64428" lon="6.18672">
        <ele>228.4</ele>
        <time>2020-11-27T13:26:57Z</time>
      </trkpt>
      <trkpt lat="47.64423" lon="6.18668">
        <ele>228.1</ele>
        <time>2020-11-27T13:27:00Z</time>
      </trkpt>
      <trkpt lat="47.64418" lon="6.18664">
        <ele>228</ele>
        <time>2020-11-27T13:27:00Z</time>
      </trkpt>
      <trkpt lat="47.64414" lon="6.18659">
        <ele>228.1</ele>
        <time>2020-11-27T13:27:02Z</time>
      </trkpt>
      <trkpt lat="47.64411" lon="6.18653">
        <ele>228.2</ele>
        <time>2020-11-27T13:27:05Z</time>
      </trkpt>
      <trkpt lat="47.64407" lon="6.18649">
        <ele>228.3</ele>
        <time>2020-11-27T13:27:09Z</time>
      </trkpt>
      <trkpt lat="47.64402" lon="6.18647">
        <ele>228.4</ele>
        <time>2020-11-27T13:27:12Z</time>
      </trkpt>
      <trkpt lat="47.64397" lon="6.18645">
        <ele>228.4</ele>
        <time>2020-11-27T13:27:16Z</time>
      </trkpt>
      <trkpt lat="47.64392" lon="6.18643">
        <ele>228.5</ele>
        <time>2020-11-27T13:27:17Z</time>
      </trkpt>
      <trkpt lat="47.64385" lon="6.18642">
        <ele>228.6</ele>
        <time>2020-11-27T13:27:22Z</time>
      </trkpt>
      <trkpt lat="47.64381" lon="6.18642">
        <ele>228.7</ele>
        <time>2020-11-27T13:27:23Z</time>
      </trkpt>
      <trkpt lat="47.64376" lon="6.1864">
        <ele>228.7</ele>
        <time>2020-11-27T13:27:26Z</time>
      </trkpt>
      <trkpt lat="47.64371" lon="6.18637">
        <ele>228.7</ele>
        <time>2020-11-27T13:27:31Z</time>
      </trkpt>
      <trkpt lat="47.64366" lon="6.18635">
        <ele>228.6</ele>
        <time>2020-11-27T13:27:34Z</time>
      </trkpt>
      <trkpt lat="47.64362" lon="6.18633">
        <ele>228.5</ele>
        <time>2020-11-27T13:27:35Z</time>
      </trkpt>
      <trkpt lat="47.64356" lon="6.1863">
        <ele>228.3</ele>
        <time>2020-11-27T13:27:40Z</time>
      </trkpt>
      <trkpt lat="47.64351" lon="6.18627">
        <ele>228.2</ele>
        <time>2020-11-27T13:27:41Z</time>
      </trkpt>
      <trkpt lat="47.64345" lon="6.18625">
        <ele>228</ele>
        <time>2020-11-27T13:27:44Z</time>
      </trkpt>
      <trkpt lat="47.64339" lon="6.18622">
        <ele>227.8</ele>
        <time>2020-11-27T13:27:49Z</time>
      </trkpt>
      <trkpt lat="47.64335" lon="6.1862">
        <ele>227.6</ele>
        <time>2020-11-27T13:27:50Z</time>
      </trkpt>
      <trkpt lat="47.64329" lon="6.18617">
        <ele>227.6</ele>
        <time>2020-11-27T13:27:53Z</time>
      </trkpt>
      <trkpt lat="47.64325" lon="6.18613">
        <ele>227.6</ele>
        <time>2020-11-27T13:27:56Z</time>
      </trkpt>
      <trkpt lat="47.6432" lon="6.18609">
        <ele>227.6</ele>
        <time>2020-11-27T13:27:59Z</time>
      </trkpt>
      <trkpt lat="47.64316" lon="6.18605">
        <ele>227.4</ele>
        <time>2020-11-27T13:28:02Z</time>
      </trkpt>
      <trkpt lat="47.64311" lon="6.18599">
        <ele>227.2</ele>
        <time>2020-11-27T13:28:05Z</time>
      </trkpt>
      <trkpt lat="47.64306" lon="6.18596">
        <ele>227</ele>
        <time>2020-11-27T13:28:08Z</time>
      </trkpt>
      <trkpt lat="47.64302" lon="6.18593">
        <ele>226.8</ele>
        <time>2020-11-27T13:28:10Z</time>
      </trkpt>
      <trkpt lat="47.64298" lon="6.18589">
        <ele>226.5</ele>
        <time>2020-11-27T13:28:12Z</time>
      </trkpt>
      <trkpt lat="47.64293" lon="6.18585">
        <ele>226.1</ele>
        <time>2020-11-27T13:28:15Z</time>
      </trkpt>
      <trkpt lat="47.64288" lon="6.1858">
        <ele>226</ele>
        <time>2020-11-27T13:28:19Z</time>
      </trkpt>
      <trkpt lat="47.64283" lon="6.18576">
        <ele>226</ele>
        <time>2020-11-27T13:28:20Z</time>
      </trkpt>
      <trkpt lat="47.64279" lon="6.18572">
        <ele>226</ele>
        <time>2020-11-27T13:28:24Z</time>
      </trkpt>
      <trkpt lat="47.64275" lon="6.18569">
        <ele>225.9</ele>
        <time>2020-11-27T13:28:25Z</time>
      </trkpt>
      <trkpt lat="47.64271" lon="6.18565">
        <ele>225.9</ele>
        <time>2020-11-27T13:28:28Z</time>
      </trkpt>
      <trkpt lat="47.64266" lon="6.18561">
        <ele>225.7</ele>
        <time>2020-11-27T13:28:31Z</time>
      </trkpt>
      <trkpt lat="47.6426" lon="6.18556">
        <ele>225.5</ele>
        <time>2020-11-27T13:28:36Z</time>
      </trkpt>
      <trkpt lat="47.64256" lon="6.18552">
        <ele>225.3</ele>
        <time>2020-11-27T13:28:37Z</time>
      </trkpt>
      <trkpt lat="47.64252" lon="6.18549">
        <ele>225.1</ele>
        <time>2020-11-27T13:28:39Z</time>
      </trkpt>
      <trkpt lat="47.64248" lon="6.18544">
        <ele>225.1</ele>
        <time>2020-11-27T13:28:42Z</time>
      </trkpt>
      <trkpt lat="47.64244" lon="6.1854">
        <ele>225.7</ele>
        <time>2020-11-27T13:28:45Z</time>
      </trkpt>
      <trkpt lat="47.64239" lon="6.18537">
        <ele>226.5</ele>
        <time>2020-11-27T13:28:48Z</time>
      </trkpt>
      <trkpt lat="47.64235" lon="6.18534">
        <ele>227.1</ele>
        <time>2020-11-27T13:29:14Z</time>
      </trkpt>
      <trkpt lat="47.64231" lon="6.1853">
        <ele>227.5</ele>
        <time>2020-11-27T13:29:21Z</time>
      </trkpt>
      <trkpt lat="47.64228" lon="6.18525">
        <ele>227.7</ele>
        <time>2020-11-27T13:29:47Z</time>
      </trkpt>
      <trkpt lat="47.64224" lon="6.1852">
        <ele>228.1</ele>
        <time>2020-11-27T13:29:53Z</time>
      </trkpt>
      <trkpt lat="47.6422" lon="6.18515">
        <ele>228.3</ele>
        <time>2020-11-27T13:29:56Z</time>
      </trkpt>
      <trkpt lat="47.64216" lon="6.18512">
        <ele>228.7</ele>
        <time>2020-11-27T13:30:00Z</time>
      </trkpt>
      <trkpt lat="47.64211" lon="6.18509">
        <ele>229.5</ele>
        <time>2020-11-27T13:30:01Z</time>
      </trkpt>
      <trkpt lat="47.64205" lon="6.18505">
        <ele>230.2</ele>
        <time>2020-11-27T13:30:04Z</time>
      </trkpt>
      <trkpt lat="47.642" lon="6.18501">
        <ele>230.7</ele>
        <time>2020-11-27T13:30:07Z</time>
      </trkpt>
      <trkpt lat="47.64197" lon="6.18495">
        <ele>231.3</ele>
        <time>2020-11-27T13:30:10Z</time>
      </trkpt>
      <trkpt lat="47.64194" lon="6.18487">
        <ele>231.7</ele>
        <time>2020-11-27T13:30:14Z</time>
      </trkpt>
      <trkpt lat="47.64193" lon="6.1848">
        <ele>231.9</ele>
        <time>2020-11-27T13:30:14Z</time>
      </trkpt>
      <trkpt lat="47.64193" lon="6.18473">
        <ele>232</ele>
        <time>2020-11-27T13:30:18Z</time>
      </trkpt>
      <trkpt lat="47.64193" lon="6.18465">
        <ele>232</ele>
        <time>2020-11-27T13:30:19Z</time>
      </trkpt>
      <trkpt lat="47.64193" lon="6.18455">
        <ele>231.9</ele>
        <time>2020-11-27T13:30:24Z</time>
      </trkpt>
      <trkpt lat="47.64193" lon="6.18448">
        <ele>231.9</ele>
        <time>2020-11-27T13:30:25Z</time>
      </trkpt>
      <trkpt lat="47.64193" lon="6.1844">
        <ele>231.9</ele>
        <time>2020-11-27T13:30:28Z</time>
      </trkpt>
      <trkpt lat="47.64194" lon="6.18433">
        <ele>231.7</ele>
        <time>2020-11-27T13:30:31Z</time>
      </trkpt>
      <trkpt lat="47.64196" lon="6.18425">
        <ele>231.5</ele>
        <time>2020-11-27T13:30:34Z</time>
      </trkpt>
      <trkpt lat="47.64197" lon="6.18416">
        <ele>231.2</ele>
        <time>2020-11-27T13:30:39Z</time>
      </trkpt>
      <trkpt lat="47.64197" lon="6.18409">
        <ele>231</ele>
        <time>2020-11-27T13:30:40Z</time>
      </trkpt>
      <trkpt lat="47.64197" lon="6.18401">
        <ele>230.6</ele>
        <time>2020-11-27T13:30:42Z</time>
      </trkpt>
      <trkpt lat="47.64197" lon="6.18395">
        <ele>230.3</ele>
        <time>2020-11-27T13:30:44Z</time>
      </trkpt>
      <trkpt lat="47.64197" lon="6.18385">
        <ele>229.8</ele>
        <time>2020-11-27T13:30:47Z</time>
      </trkpt>
      <trkpt lat="47.64198" lon="6.18377">
        <ele>229.5</ele>
        <time>2020-11-27T13:30:49Z</time>
      </trkpt>
      <trkpt lat="47.64198" lon="6.18369">
        <ele>229.1</ele>
        <time>2020-11-27T13:30:52Z</time>
      </trkpt>
      <trkpt lat="47.642" lon="6.18362">
        <ele>228.5</ele>
        <time>2020-11-27T13:30:56Z</time>
      </trkpt>
      <trkpt lat="47.64202" lon="6.18354">
        <ele>228</ele>
        <time>2020-11-27T13:30:59Z</time>
      </trkpt>
      <trkpt lat="47.64205" lon="6.18346">
        <ele>227.3</ele>
        <time>2020-11-27T13:31:02Z</time>
      </trkpt>
      <trkpt lat="47.64208" lon="6.18338">
        <ele>226.7</ele>
        <time>2020-11-27T13:31:05Z</time>
      </trkpt>
      <trkpt lat="47.64211" lon="6.18332">
        <ele>226.1</ele>
        <time>2020-11-27T13:31:07Z</time>
      </trkpt>
      <trkpt lat="47.64213" lon="6.18325">
        <ele>225.6</ele>
        <time>2020-11-27T13:31:09Z</time>
      </trkpt>
      <trkpt lat="47.64215" lon="6.18318">
        <ele>225.2</ele>
        <time>2020-11-27T13:31:11Z</time>
      </trkpt>
      <trkpt lat="47.64217" lon="6.18309">
        <ele>224.6</ele>
        <time>2020-11-27T13:31:13Z</time>
      </trkpt>
      <trkpt lat="47.64219" lon="6.18303">
        <ele>224.3</ele>
        <time>2020-11-27T13:31:15Z</time>
      </trkpt>
      <trkpt lat="47.64221" lon="6.18296">
        <ele>223.9</ele>
        <time>2020-11-27T13:31:18Z</time>
      </trkpt>
      <trkpt lat="47.64223" lon="6.18288">
        <ele>223.5</ele>
        <time>2020-11-27T13:31:20Z</time>
      </trkpt>
      <trkpt lat="47.64225" lon="6.18282">
        <ele>223.2</ele>
        <time>2020-11-27T13:31:24Z</time>
      </trkpt>
      <trkpt lat="47.64232" lon="6.18281">
        <ele>222.9</ele>
        <time>2020-11-27T13:31:26Z</time>
      </trkpt>
      <trkpt lat="47.64236" lon="6.18282">
        <ele>222.7</ele>
        <time>2020-11-27T13:31:28Z</time>
      </trkpt>
      <trkpt lat="47.64242" lon="6.18283">
        <ele>222.4</ele>
        <time>2020-11-27T13:31:30Z</time>
      </trkpt>
      <trkpt lat="47.64249" lon="6.18284">
        <ele>222</ele>
        <time>2020-11-27T13:31:32Z</time>
      </trkpt>
      <trkpt lat="47.64255" lon="6.18286">
        <ele>221.9</ele>
        <time>2020-11-27T13:31:36Z</time>
      </trkpt>
      <trkpt lat="47.64263" lon="6.18291">
        <ele>221.8</ele>
        <time>2020-11-27T13:31:37Z</time>
      </trkpt>
      <trkpt lat="47.64267" lon="6.18295">
        <ele>221.8</ele>
        <time>2020-11-27T13:31:39Z</time>
      </trkpt>
      <trkpt lat="47.64273" lon="6.18299">
        <ele>221.7</ele>
        <time>2020-11-27T13:31:41Z</time>
      </trkpt>
      <trkpt lat="47.64278" lon="6.18303">
        <ele>221.7</ele>
        <time>2020-11-27T13:31:43Z</time>
      </trkpt>
      <trkpt lat="47.64282" lon="6.18308">
        <ele>221.6</ele>
        <time>2020-11-27T13:31:46Z</time>
      </trkpt>
      <trkpt lat="47.64288" lon="6.18315">
        <ele>221.5</ele>
        <time>2020-11-27T13:31:47Z</time>
      </trkpt>
      <trkpt lat="47.64293" lon="6.18323">
        <ele>221.5</ele>
        <time>2020-11-27T13:31:49Z</time>
      </trkpt>
      <trkpt lat="47.64297" lon="6.18327">
        <ele>221.4</ele>
        <time>2020-11-27T13:31:51Z</time>
      </trkpt>
      <trkpt lat="47.64301" lon="6.18333">
        <ele>221.4</ele>
        <time>2020-11-27T13:31:53Z</time>
      </trkpt>
      <trkpt lat="47.64305" lon="6.18337">
        <ele>221.4</ele>
        <time>2020-11-27T13:31:55Z</time>
      </trkpt>
      <trkpt lat="47.6431" lon="6.18343">
        <ele>221.4</ele>
        <time>2020-11-27T13:31:57Z</time>
      </trkpt>
      <trkpt lat="47.64315" lon="6.18348">
        <ele>221.4</ele>
        <time>2020-11-27T13:32:00Z</time>
      </trkpt>
      <trkpt lat="47.64318" lon="6.18354">
        <ele>221.4</ele>
        <time>2020-11-27T13:32:02Z</time>
      </trkpt>
      <trkpt lat="47.64322" lon="6.1836">
        <ele>221.5</ele>
        <time>2020-11-27T13:32:04Z</time>
      </trkpt>
      <trkpt lat="47.64326" lon="6.18365">
        <ele>221.5</ele>
        <time>2020-11-27T13:32:06Z</time>
      </trkpt>
      <trkpt lat="47.64329" lon="6.1837">
        <ele>221.5</ele>
        <time>2020-11-27T13:32:08Z</time>
      </trkpt>
      <trkpt lat="47.64334" lon="6.18376">
        <ele>221.7</ele>
        <time>2020-11-27T13:32:11Z</time>
      </trkpt>
      <trkpt lat="47.64338" lon="6.18381">
        <ele>222.2</ele>
        <time>2020-11-27T13:32:15Z</time>
      </trkpt>
      <trkpt lat="47.64342" lon="6.18384">
        <ele>222.9</ele>
        <time>2020-11-27T13:32:16Z</time>
      </trkpt>
      <trkpt lat="47.64346" lon="6.18388">
        <ele>223.6</ele>
        <time>2020-11-27T13:32:19Z</time>
      </trkpt>
      <trkpt lat="47.64351" lon="6.18388">
        <ele>224.4</ele>
        <time>2020-11-27T13:32:22Z</time>
      </trkpt>
      <trkpt lat="47.64356" lon="6.18386">
        <ele>225</ele>
        <time>2020-11-27T13:32:26Z</time>
      </trkpt>
      <trkpt lat="47.64362" lon="6.18381">
        <ele>225.7</ele>
        <time>2020-11-27T13:32:27Z</time>
      </trkpt>
      <trkpt lat="47.64366" lon="6.18377">
        <ele>226.1</ele>
        <time>2020-11-27T13:32:29Z</time>
      </trkpt>
      <trkpt lat="47.6437" lon="6.18374">
        <ele>226.4</ele>
        <time>2020-11-27T13:32:30Z</time>
      </trkpt>
      <trkpt lat="47.64375" lon="6.18369">
        <ele>226.9</ele>
        <time>2020-11-27T13:32:32Z</time>
      </trkpt>
      <trkpt lat="47.64382" lon="6.18363">
        <ele>227.3</ele>
        <time>2020-11-27T13:32:35Z</time>
      </trkpt>
      <trkpt lat="47.64386" lon="6.18358">
        <ele>227.5</ele>
        <time>2020-11-27T13:32:36Z</time>
      </trkpt>
      <trkpt lat="47.64392" lon="6.18352">
        <ele>227.6</ele>
        <time>2020-11-27T13:32:38Z</time>
      </trkpt>
      <trkpt lat="47.64396" lon="6.18347">
        <ele>227.6</ele>
        <time>2020-11-27T13:32:40Z</time>
      </trkpt>
      <trkpt lat="47.64401" lon="6.18343">
        <ele>227.6</ele>
        <time>2020-11-27T13:32:42Z</time>
      </trkpt>
      <trkpt lat="47.64405" lon="6.18338">
        <ele>227.5</ele>
        <time>2020-11-27T13:32:44Z</time>
      </trkpt>
      <trkpt lat="47.6441" lon="6.18333">
        <ele>227.4</ele>
        <time>2020-11-27T13:32:46Z</time>
      </trkpt>
      <trkpt lat="47.64414" lon="6.18327">
        <ele>227.4</ele>
        <time>2020-11-27T13:32:48Z</time>
      </trkpt>
      <trkpt lat="47.64418" lon="6.18323">
        <ele>227.5</ele>
        <time>2020-11-27T13:32:49Z</time>
      </trkpt>
      <trkpt lat="47.64422" lon="6.18319">
        <ele>227.9</ele>
        <time>2020-11-27T13:32:50Z</time>
      </trkpt>
      <trkpt lat="47.64428" lon="6.18313">
        <ele>228.4</ele>
        <time>2020-11-27T13:32:52Z</time>
      </trkpt>
      <trkpt lat="47.64433" lon="6.18307">
        <ele>228.8</ele>
        <time>2020-11-27T13:32:55Z</time>
      </trkpt>
      <trkpt lat="47.64438" lon="6.18301">
        <ele>229.1</ele>
        <time>2020-11-27T13:32:57Z</time>
      </trkpt>
      <trkpt lat="47.64442" lon="6.18295">
        <ele>229.2</ele>
        <time>2020-11-27T13:32:58Z</time>
      </trkpt>
      <trkpt lat="47.64447" lon="6.18288">
        <ele>229.2</ele>
        <time>2020-11-27T13:33:01Z</time>
      </trkpt>
      <trkpt lat="47.64451" lon="6.18283">
        <ele>229.2</ele>
        <time>2020-11-27T13:33:03Z</time>
      </trkpt>
      <trkpt lat="47.64455" lon="6.18277">
        <ele>229.2</ele>
        <time>2020-11-27T13:33:05Z</time>
      </trkpt>
      <trkpt lat="47.64459" lon="6.18271">
        <ele>229</ele>
        <time>2020-11-27T13:33:07Z</time>
      </trkpt>
      <trkpt lat="47.64463" lon="6.18266">
        <ele>228.8</ele>
        <time>2020-11-27T13:33:09Z</time>
      </trkpt>
      <trkpt lat="47.64467" lon="6.18261">
        <ele>228.7</ele>
        <time>2020-11-27T13:33:11Z</time>
      </trkpt>
      <trkpt lat="47.6447" lon="6.18255">
        <ele>228.5</ele>
        <time>2020-11-27T13:33:12Z</time>
      </trkpt>
      <trkpt lat="47.64476" lon="6.18246">
        <ele>228.2</ele>
        <time>2020-11-27T13:33:14Z</time>
      </trkpt>
      <trkpt lat="47.64481" lon="6.18237">
        <ele>228.2</ele>
        <time>2020-11-27T13:33:17Z</time>
      </trkpt>
      <trkpt lat="47.64485" lon="6.18227">
        <ele>228.1</ele>
        <time>2020-11-27T13:33:19Z</time>
      </trkpt>
      <trkpt lat="47.64489" lon="6.18218">
        <ele>227.8</ele>
        <time>2020-11-27T13:33:21Z</time>
      </trkpt>
      <trkpt lat="47.64491" lon="6.18211">
        <ele>227.6</ele>
        <time>2020-11-27T13:33:22Z</time>
      </trkpt>
      <trkpt lat="47.64494" lon="6.18202">
        <ele>227.2</ele>
        <time>2020-11-27T13:33:24Z</time>
      </trkpt>
      <trkpt lat="47.64497" lon="6.18194">
        <ele>226.8</ele>
        <time>2020-11-27T13:33:26Z</time>
      </trkpt>
      <trkpt lat="47.64498" lon="6.18187">
        <ele>226.4</ele>
        <time>2020-11-27T13:33:27Z</time>
      </trkpt>
      <trkpt lat="47.64498" lon="6.18179">
        <ele>225.8</ele>
        <time>2020-11-27T13:33:29Z</time>
      </trkpt>
      <trkpt lat="47.64496" lon="6.18168">
        <ele>225</ele>
        <time>2020-11-27T13:33:30Z</time>
      </trkpt>
      <trkpt lat="47.64494" lon="6.18158">
        <ele>224.7</ele>
        <time>2020-11-27T13:33:32Z</time>
      </trkpt>
      <trkpt lat="47.64493" lon="6.18149">
        <ele>224.5</ele>
        <time>2020-11-27T13:33:33Z</time>
      </trkpt>
      <trkpt lat="47.64493" lon="6.18142">
        <ele>224.3</ele>
        <time>2020-11-27T13:33:35Z</time>
      </trkpt>
      <trkpt lat="47.64493" lon="6.18132">
        <ele>224.1</ele>
        <time>2020-11-27T13:33:36Z</time>
      </trkpt>
      <trkpt lat="47.64495" lon="6.18123">
        <ele>223.9</ele>
        <time>2020-11-27T13:33:37Z</time>
      </trkpt>
      <trkpt lat="47.64496" lon="6.18117">
        <ele>223.8</ele>
        <time>2020-11-27T13:33:39Z</time>
      </trkpt>
      <trkpt lat="47.64497" lon="6.18108">
        <ele>223.6</ele>
        <time>2020-11-27T13:33:40Z</time>
      </trkpt>
      <trkpt lat="47.645" lon="6.18096">
        <ele>223.3</ele>
        <time>2020-11-27T13:33:42Z</time>
      </trkpt>
      <trkpt lat="47.64502" lon="6.18087">
        <ele>223.4</ele>
        <time>2020-11-27T13:33:45Z</time>
      </trkpt>
      <trkpt lat="47.64504" lon="6.18079">
        <ele>223.7</ele>
        <time>2020-11-27T13:33:46Z</time>
      </trkpt>
      <trkpt lat="47.64506" lon="6.18072">
        <ele>224.1</ele>
        <time>2020-11-27T13:33:48Z</time>
      </trkpt>
      <trkpt lat="47.64508" lon="6.18063">
        <ele>224.4</ele>
        <time>2020-11-27T13:33:50Z</time>
      </trkpt>
      <trkpt lat="47.6451" lon="6.18055">
        <ele>224.7</ele>
        <time>2020-11-27T13:33:52Z</time>
      </trkpt>
      <trkpt lat="47.64513" lon="6.18048">
        <ele>225.2</ele>
        <time>2020-11-27T13:33:55Z</time>
      </trkpt>
      <trkpt lat="47.64518" lon="6.18043">
        <ele>225.9</ele>
        <time>2020-11-27T13:33:57Z</time>
      </trkpt>
      <trkpt lat="47.64522" lon="6.18038">
        <ele>226.5</ele>
        <time>2020-11-27T13:33:59Z</time>
      </trkpt>
      <trkpt lat="47.64526" lon="6.18034">
        <ele>227</ele>
        <time>2020-11-27T13:34:00Z</time>
      </trkpt>
      <trkpt lat="47.6453" lon="6.1803">
        <ele>227.5</ele>
        <time>2020-11-27T13:34:02Z</time>
      </trkpt>
      <trkpt lat="47.64534" lon="6.18024">
        <ele>227.9</ele>
        <time>2020-11-27T13:34:04Z</time>
      </trkpt>
      <trkpt lat="47.64537" lon="6.18016">
        <ele>228</ele>
        <time>2020-11-27T13:34:07Z</time>
      </trkpt>
      <trkpt lat="47.64539" lon="6.18009">
        <ele>228.1</ele>
        <time>2020-11-27T13:34:10Z</time>
      </trkpt>
      <trkpt lat="47.64542" lon="6.18003">
        <ele>228.1</ele>
        <time>2020-11-27T13:34:12Z</time>
      </trkpt>
      <trkpt lat="47.64545" lon="6.17994">
        <ele>228</ele>
        <time>2020-11-27T13:34:15Z</time>
      </trkpt>
      <trkpt lat="47.64547" lon="6.17985">
        <ele>227.6</ele>
        <time>2020-11-27T13:34:18Z</time>
      </trkpt>
      <trkpt lat="47.64549" lon="6.17978">
        <ele>227.3</ele>
        <time>2020-11-27T13:34:20Z</time>
      </trkpt>
      <trkpt lat="47.64551" lon="6.17969">
        <ele>226.9</ele>
        <time>2020-11-27T13:34:21Z</time>
      </trkpt>
      <trkpt lat="47.64554" lon="6.17958">
        <ele>226.3</ele>
        <time>2020-11-27T13:34:23Z</time>
      </trkpt>
      <trkpt lat="47.64556" lon="6.17949">
        <ele>225.8</ele>
        <time>2020-11-27T13:34:25Z</time>
      </trkpt>
      <trkpt lat="47.6456" lon="6.17938">
        <ele>225.2</ele>
        <time>2020-11-27T13:34:26Z</time>
      </trkpt>
      <trkpt lat="47.64563" lon="6.17932">
        <ele>224.8</ele>
        <time>2020-11-27T13:34:27Z</time>
      </trkpt>
      <trkpt lat="47.6457" lon="6.17923">
        <ele>224.3</ele>
        <time>2020-11-27T13:34:29Z</time>
      </trkpt>
      <trkpt lat="47.64574" lon="6.17918">
        <ele>223.9</ele>
        <time>2020-11-27T13:34:30Z</time>
      </trkpt>
      <trkpt lat="47.64579" lon="6.1791">
        <ele>224</ele>
        <time>2020-11-27T13:34:32Z</time>
      </trkpt>
      <trkpt lat="47.64584" lon="6.17904">
        <ele>224.1</ele>
        <time>2020-11-27T13:34:34Z</time>
      </trkpt>
      <trkpt lat="47.6459" lon="6.17898">
        <ele>224</ele>
        <time>2020-11-27T13:34:35Z</time>
      </trkpt>
      <trkpt lat="47.64595" lon="6.17894">
        <ele>223.9</ele>
        <time>2020-11-27T13:34:36Z</time>
      </trkpt>
      <trkpt lat="47.64599" lon="6.17891">
        <ele>223.8</ele>
        <time>2020-11-27T13:34:37Z</time>
      </trkpt>
      <trkpt lat="47.64604" lon="6.17889">
        <ele>223.7</ele>
        <time>2020-11-27T13:34:39Z</time>
      </trkpt>
      <trkpt lat="47.6461" lon="6.17882">
        <ele>223.5</ele>
        <time>2020-11-27T13:34:40Z</time>
      </trkpt>
      <trkpt lat="47.64614" lon="6.1787">
        <ele>223.4</ele>
        <time>2020-11-27T13:34:43Z</time>
      </trkpt>
      <trkpt lat="47.64615" lon="6.17863">
        <ele>223.4</ele>
        <time>2020-11-27T13:34:44Z</time>
      </trkpt>
      <trkpt lat="47.64616" lon="6.17853">
        <ele>223.4</ele>
        <time>2020-11-27T13:34:46Z</time>
      </trkpt>
      <trkpt lat="47.64617" lon="6.17843">
        <ele>223.4</ele>
        <time>2020-11-27T13:34:49Z</time>
      </trkpt>
      <trkpt lat="47.64619" lon="6.17835">
        <ele>223.3</ele>
        <time>2020-11-27T13:34:50Z</time>
      </trkpt>
      <trkpt lat="47.64622" lon="6.17826">
        <ele>223.1</ele>
        <time>2020-11-27T13:34:52Z</time>
      </trkpt>
      <trkpt lat="47.64625" lon="6.17818">
        <ele>223</ele>
        <time>2020-11-27T13:34:54Z</time>
      </trkpt>
      <trkpt lat="47.64628" lon="6.17811">
        <ele>222.8</ele>
        <time>2020-11-27T13:34:56Z</time>
      </trkpt>
      <trkpt lat="47.64631" lon="6.17804">
        <ele>222.7</ele>
        <time>2020-11-27T13:34:58Z</time>
      </trkpt>
      <trkpt lat="47.64634" lon="6.17797">
        <ele>222.6</ele>
        <time>2020-11-27T13:35:01Z</time>
      </trkpt>
      <trkpt lat="47.64633" lon="6.17784">
        <ele>222.6</ele>
        <time>2020-11-27T13:35:04Z</time>
      </trkpt>
      <trkpt lat="47.6463" lon="6.17777">
        <ele>222.7</ele>
        <time>2020-11-27T13:35:05Z</time>
      </trkpt>
      <trkpt lat="47.64628" lon="6.1777">
        <ele>222.9</ele>
        <time>2020-11-27T13:35:06Z</time>
      </trkpt>
      <trkpt lat="47.64625" lon="6.1776">
        <ele>223</ele>
        <time>2020-11-27T13:35:08Z</time>
      </trkpt>
      <trkpt lat="47.64623" lon="6.17753">
        <ele>223.1</ele>
        <time>2020-11-27T13:35:10Z</time>
      </trkpt>
      <trkpt lat="47.6462" lon="6.17743">
        <ele>223.1</ele>
        <time>2020-11-27T13:35:11Z</time>
      </trkpt>
      <trkpt lat="47.64618" lon="6.17735">
        <ele>223.1</ele>
        <time>2020-11-27T13:35:13Z</time>
      </trkpt>
      <trkpt lat="47.64614" lon="6.17725">
        <ele>223.1</ele>
        <time>2020-11-27T13:35:15Z</time>
      </trkpt>
      <trkpt lat="47.64612" lon="6.17716">
        <ele>223.1</ele>
        <time>2020-11-27T13:35:16Z</time>
      </trkpt>
      <trkpt lat="47.6461" lon="6.17709">
        <ele>223</ele>
        <time>2020-11-27T13:35:18Z</time>
      </trkpt>
      <trkpt lat="47.64609" lon="6.17699">
        <ele>222.9</ele>
        <time>2020-11-27T13:35:20Z</time>
      </trkpt>
      <trkpt lat="47.64609" lon="6.1769">
        <ele>222.8</ele>
        <time>2020-11-27T13:35:21Z</time>
      </trkpt>
      <trkpt lat="47.64609" lon="6.17682">
        <ele>222.6</ele>
        <time>2020-11-27T13:35:23Z</time>
      </trkpt>
      <trkpt lat="47.64611" lon="6.17674">
        <ele>222.5</ele>
        <time>2020-11-27T13:35:25Z</time>
      </trkpt>
      <trkpt lat="47.64613" lon="6.17664">
        <ele>222.4</ele>
        <time>2020-11-27T13:35:27Z</time>
      </trkpt>
      <trkpt lat="47.64615" lon="6.17657">
        <ele>222.8</ele>
        <time>2020-11-27T13:35:29Z</time>
      </trkpt>
      <trkpt lat="47.64617" lon="6.17648">
        <ele>223.2</ele>
        <time>2020-11-27T13:35:31Z</time>
      </trkpt>
      <trkpt lat="47.64621" lon="6.17637">
        <ele>223.8</ele>
        <time>2020-11-27T13:35:33Z</time>
      </trkpt>
      <trkpt lat="47.64624" lon="6.17629">
        <ele>224.2</ele>
        <time>2020-11-27T13:35:35Z</time>
      </trkpt>
      <trkpt lat="47.64627" lon="6.17622">
        <ele>224.6</ele>
        <time>2020-11-27T13:35:37Z</time>
      </trkpt>
      <trkpt lat="47.64632" lon="6.17616">
        <ele>224.9</ele>
        <time>2020-11-27T13:35:40Z</time>
      </trkpt>
      <trkpt lat="47.64635" lon="6.17612">
        <ele>225.2</ele>
        <time>2020-11-27T13:35:41Z</time>
      </trkpt>
      <trkpt lat="47.64639" lon="6.17607">
        <ele>225.5</ele>
        <time>2020-11-27T13:35:44Z</time>
      </trkpt>
      <trkpt lat="47.64646" lon="6.17604">
        <ele>225.6</ele>
        <time>2020-11-27T13:35:47Z</time>
      </trkpt>
      <trkpt lat="47.64651" lon="6.17603">
        <ele>225.7</ele>
        <time>2020-11-27T13:35:49Z</time>
      </trkpt>
      <trkpt lat="47.64655" lon="6.176">
        <ele>225.8</ele>
        <time>2020-11-27T13:35:52Z</time>
      </trkpt>
      <trkpt lat="47.6466" lon="6.17599">
        <ele>225.9</ele>
        <time>2020-11-27T13:35:56Z</time>
      </trkpt>
      <trkpt lat="47.64665" lon="6.17596">
        <ele>226.1</ele>
        <time>2020-11-27T13:35:59Z</time>
      </trkpt>
      <trkpt lat="47.6467" lon="6.17592">
        <ele>226.5</ele>
        <time>2020-11-27T13:36:03Z</time>
      </trkpt>
      <trkpt lat="47.64674" lon="6.17588">
        <ele>226.8</ele>
        <time>2020-11-27T13:36:05Z</time>
      </trkpt>
      <trkpt lat="47.64678" lon="6.17584">
        <ele>227.2</ele>
        <time>2020-11-27T13:36:08Z</time>
      </trkpt>
      <trkpt lat="47.64682" lon="6.17579">
        <ele>227.8</ele>
        <time>2020-11-27T13:36:11Z</time>
      </trkpt>
      <trkpt lat="47.64686" lon="6.17573">
        <ele>228.4</ele>
        <time>2020-11-27T13:36:15Z</time>
      </trkpt>
      <trkpt lat="47.6469" lon="6.17566">
        <ele>229.1</ele>
        <time>2020-11-27T13:36:20Z</time>
      </trkpt>
      <trkpt lat="47.64693" lon="6.1756">
        <ele>229.6</ele>
        <time>2020-11-27T13:36:23Z</time>
      </trkpt>
      <trkpt lat="47.64696" lon="6.17554">
        <ele>230.1</ele>
        <time>2020-11-27T13:36:27Z</time>
      </trkpt>
      <trkpt lat="47.64699" lon="6.17549">
        <ele>230.6</ele>
        <time>2020-11-27T13:36:30Z</time>
      </trkpt>
      <trkpt lat="47.64703" lon="6.17544">
        <ele>231</ele>
        <time>2020-11-27T13:36:34Z</time>
      </trkpt>
      <trkpt lat="47.64706" lon="6.17539">
        <ele>231.5</ele>
        <time>2020-11-27T13:36:38Z</time>
      </trkpt>
      <trkpt lat="47.64708" lon="6.17532">
        <ele>232</ele>
        <time>2020-11-27T13:36:42Z</time>
      </trkpt>
      <trkpt lat="47.64712" lon="6.17527">
        <ele>232.4</ele>
        <time>2020-11-27T13:36:46Z</time>
      </trkpt>
      <trkpt lat="47.64713" lon="6.1752">
        <ele>232.9</ele>
        <time>2020-11-27T13:36:50Z</time>
      </trkpt>
      <trkpt lat="47.64715" lon="6.17514">
        <ele>233.4</ele>
        <time>2020-11-27T13:36:54Z</time>
      </trkpt>
      <trkpt lat="47.64719" lon="6.17509">
        <ele>233.7</ele>
        <time>2020-11-27T13:36:58Z</time>
      </trkpt>
      <trkpt lat="47.64723" lon="6.17504">
        <ele>234.1</ele>
        <time>2020-11-27T13:37:01Z</time>
      </trkpt>
      <trkpt lat="47.64726" lon="6.17493">
        <ele>234.7</ele>
        <time>2020-11-27T13:37:06Z</time>
      </trkpt>
      <trkpt lat="47.64729" lon="6.17487">
        <ele>235</ele>
        <time>2020-11-27T13:37:11Z</time>
      </trkpt>
      <trkpt lat="47.64731" lon="6.1748">
        <ele>235.4</ele>
        <time>2020-11-27T13:37:14Z</time>
      </trkpt>
      <trkpt lat="47.64732" lon="6.17474">
        <ele>235.7</ele>
        <time>2020-11-27T13:37:17Z</time>
      </trkpt>
      <trkpt lat="47.64734" lon="6.17467">
        <ele>236.1</ele>
        <time>2020-11-27T13:37:20Z</time>
      </trkpt>
      <trkpt lat="47.64736" lon="6.17459">
        <ele>236.6</ele>
        <time>2020-11-27T13:37:26Z</time>
      </trkpt>
      <trkpt lat="47.64737" lon="6.17452">
        <ele>236.9</ele>
        <time>2020-11-27T13:37:30Z</time>
      </trkpt>
      <trkpt lat="47.64737" lon="6.17445">
        <ele>237.4</ele>
        <time>2020-11-27T13:37:34Z</time>
      </trkpt>
      <trkpt lat="47.64738" lon="6.17438">
        <ele>237.8</ele>
        <time>2020-11-27T13:37:37Z</time>
      </trkpt>
      <trkpt lat="47.64739" lon="6.17431">
        <ele>238.1</ele>
        <time>2020-11-27T13:37:41Z</time>
      </trkpt>
      <trkpt lat="47.64741" lon="6.17425">
        <ele>238.5</ele>
        <time>2020-11-27T13:37:45Z</time>
      </trkpt>
      <trkpt lat="47.64741" lon="6.17417">
        <ele>239</ele>
        <time>2020-11-27T13:37:49Z</time>
      </trkpt>
      <trkpt lat="47.64744" lon="6.17411">
        <ele>239.1</ele>
        <time>2020-11-27T13:37:52Z</time>
      </trkpt>
      <trkpt lat="47.64746" lon="6.17404">
        <ele>239.1</ele>
        <time>2020-11-27T13:37:55Z</time>
      </trkpt>
      <trkpt lat="47.64749" lon="6.17398">
        <ele>239.2</ele>
        <time>2020-11-27T13:37:58Z</time>
      </trkpt>
      <trkpt lat="47.64751" lon="6.17392">
        <ele>239.4</ele>
        <time>2020-11-27T13:38:01Z</time>
      </trkpt>
      <trkpt lat="47.64754" lon="6.17385">
        <ele>239.6</ele>
        <time>2020-11-27T13:38:05Z</time>
      </trkpt>
      <trkpt lat="47.64757" lon="6.17378">
        <ele>239.9</ele>
        <time>2020-11-27T13:38:08Z</time>
      </trkpt>
      <trkpt lat="47.64761" lon="6.17371">
        <ele>240.2</ele>
        <time>2020-11-27T13:38:11Z</time>
      </trkpt>
      <trkpt lat="47.64763" lon="6.17364">
        <ele>240.5</ele>
        <time>2020-11-27T13:38:14Z</time>
      </trkpt>
      <trkpt lat="47.64766" lon="6.17358">
        <ele>240.8</ele>
        <time>2020-11-27T13:38:17Z</time>
      </trkpt>
      <trkpt lat="47.6477" lon="6.1735">
        <ele>241.1</ele>
        <time>2020-11-27T13:38:21Z</time>
      </trkpt>
      <trkpt lat="47.64771" lon="6.17342">
        <ele>241.4</ele>
        <time>2020-11-27T13:38:25Z</time>
      </trkpt>
      <trkpt lat="47.64773" lon="6.17336">
        <ele>241.6</ele>
        <time>2020-11-27T13:38:29Z</time>
      </trkpt>
      <trkpt lat="47.64776" lon="6.1733">
        <ele>241.8</ele>
        <time>2020-11-27T13:38:31Z</time>
      </trkpt>
      <trkpt lat="47.64777" lon="6.17323">
        <ele>241.8</ele>
        <time>2020-11-27T13:38:36Z</time>
      </trkpt>
      <trkpt lat="47.64779" lon="6.17317">
        <ele>241.9</ele>
        <time>2020-11-27T13:38:39Z</time>
      </trkpt>
      <trkpt lat="47.64783" lon="6.17311">
        <ele>242.1</ele>
        <time>2020-11-27T13:38:43Z</time>
      </trkpt>
      <trkpt lat="47.64786" lon="6.17304">
        <ele>242.2</ele>
        <time>2020-11-27T13:38:47Z</time>
      </trkpt>
      <trkpt lat="47.64789" lon="6.17297">
        <ele>242.4</ele>
        <time>2020-11-27T13:38:50Z</time>
      </trkpt>
      <trkpt lat="47.64792" lon="6.1729">
        <ele>242.5</ele>
        <time>2020-11-27T13:38:53Z</time>
      </trkpt>
      <trkpt lat="47.64794" lon="6.17282">
        <ele>242.6</ele>
        <time>2020-11-27T13:38:56Z</time>
      </trkpt>
      <trkpt lat="47.64796" lon="6.17276">
        <ele>242.6</ele>
        <time>2020-11-27T13:38:58Z</time>
      </trkpt>
      <trkpt lat="47.64799" lon="6.17268">
        <ele>242.8</ele>
        <time>2020-11-27T13:39:02Z</time>
      </trkpt>
      <trkpt lat="47.64802" lon="6.17261">
        <ele>242.9</ele>
        <time>2020-11-27T13:39:05Z</time>
      </trkpt>
      <trkpt lat="47.64805" lon="6.17254">
        <ele>243</ele>
        <time>2020-11-27T13:39:08Z</time>
      </trkpt>
      <trkpt lat="47.64807" lon="6.17247">
        <ele>243</ele>
        <time>2020-11-27T13:39:11Z</time>
      </trkpt>
      <trkpt lat="47.64809" lon="6.1724">
        <ele>243</ele>
        <time>2020-11-27T13:39:13Z</time>
      </trkpt>
      <trkpt lat="47.64813" lon="6.17232">
        <ele>243.1</ele>
        <time>2020-11-27T13:39:17Z</time>
      </trkpt>
      <trkpt lat="47.64816" lon="6.17227">
        <ele>243.2</ele>
        <time>2020-11-27T13:39:19Z</time>
      </trkpt>
      <trkpt lat="47.6482" lon="6.1722">
        <ele>243.3</ele>
        <time>2020-11-27T13:39:23Z</time>
      </trkpt>
      <trkpt lat="47.64824" lon="6.17216">
        <ele>243.5</ele>
        <time>2020-11-27T13:39:27Z</time>
      </trkpt>
      <trkpt lat="47.64827" lon="6.17211">
        <ele>243.6</ele>
        <time>2020-11-27T13:39:30Z</time>
      </trkpt>
      <trkpt lat="47.64831" lon="6.17205">
        <ele>243.7</ele>
        <time>2020-11-27T13:39:33Z</time>
      </trkpt>
      <trkpt lat="47.64835" lon="6.172">
        <ele>243.9</ele>
        <time>2020-11-27T13:39:36Z</time>
      </trkpt>
      <trkpt lat="47.64839" lon="6.17193">
        <ele>244.2</ele>
        <time>2020-11-27T13:39:40Z</time>
      </trkpt>
      <trkpt lat="47.64842" lon="6.17186">
        <ele>244.3</ele>
        <time>2020-11-27T13:39:43Z</time>
      </trkpt>
      <trkpt lat="47.64845" lon="6.17181">
        <ele>244.5</ele>
        <time>2020-11-27T13:39:46Z</time>
      </trkpt>
      <trkpt lat="47.64849" lon="6.17177">
        <ele>244.8</ele>
        <time>2020-11-27T13:39:50Z</time>
      </trkpt>
      <trkpt lat="47.64852" lon="6.17172">
        <ele>244.9</ele>
        <time>2020-11-27T13:39:52Z</time>
      </trkpt>
      <trkpt lat="47.64856" lon="6.17165">
        <ele>245.2</ele>
        <time>2020-11-27T13:39:56Z</time>
      </trkpt>
      <trkpt lat="47.64862" lon="6.17162">
        <ele>245.6</ele>
        <time>2020-11-27T13:39:59Z</time>
      </trkpt>
      <trkpt lat="47.64866" lon="6.17158">
        <ele>246</ele>
        <time>2020-11-27T13:40:01Z</time>
      </trkpt>
      <trkpt lat="47.64871" lon="6.17153">
        <ele>246.3</ele>
        <time>2020-11-27T13:40:04Z</time>
      </trkpt>
      <trkpt lat="47.64876" lon="6.17149">
        <ele>246.7</ele>
        <time>2020-11-27T13:40:07Z</time>
      </trkpt>
      <trkpt lat="47.6488" lon="6.17145">
        <ele>247</ele>
        <time>2020-11-27T13:40:10Z</time>
      </trkpt>
      <trkpt lat="47.64885" lon="6.1714">
        <ele>247.3</ele>
        <time>2020-11-27T13:40:12Z</time>
      </trkpt>
      <trkpt lat="47.64888" lon="6.17136">
        <ele>247.5</ele>
        <time>2020-11-27T13:40:15Z</time>
      </trkpt>
      <trkpt lat="47.64893" lon="6.17131">
        <ele>247.9</ele>
        <time>2020-11-27T13:40:17Z</time>
      </trkpt>
      <trkpt lat="47.64898" lon="6.17127">
        <ele>248.2</ele>
        <time>2020-11-27T13:40:20Z</time>
      </trkpt>
      <trkpt lat="47.64902" lon="6.17122">
        <ele>248.5</ele>
        <time>2020-11-27T13:40:23Z</time>
      </trkpt>
      <trkpt lat="47.64907" lon="6.17116">
        <ele>248.9</ele>
        <time>2020-11-27T13:40:25Z</time>
      </trkpt>
      <trkpt lat="47.64912" lon="6.17111">
        <ele>249.2</ele>
        <time>2020-11-27T13:40:28Z</time>
      </trkpt>
      <trkpt lat="47.64916" lon="6.17106">
        <ele>249.5</ele>
        <time>2020-11-27T13:40:29Z</time>
      </trkpt>
      <trkpt lat="47.6492" lon="6.17101">
        <ele>249.7</ele>
        <time>2020-11-27T13:40:31Z</time>
      </trkpt>
      <trkpt lat="47.64923" lon="6.17096">
        <ele>249.8</ele>
        <time>2020-11-27T13:40:33Z</time>
      </trkpt>
      <trkpt lat="47.64927" lon="6.17091">
        <ele>250</ele>
        <time>2020-11-27T13:40:34Z</time>
      </trkpt>
      <trkpt lat="47.64931" lon="6.17087">
        <ele>250.1</ele>
        <time>2020-11-27T13:40:35Z</time>
      </trkpt>
      <trkpt lat="47.64936" lon="6.17081">
        <ele>250.3</ele>
        <time>2020-11-27T13:40:37Z</time>
      </trkpt>
      <trkpt lat="47.64941" lon="6.17076">
        <ele>250.4</ele>
        <time>2020-11-27T13:40:39Z</time>
      </trkpt>
      <trkpt lat="47.64946" lon="6.17071">
        <ele>250.4</ele>
        <time>2020-11-27T13:40:42Z</time>
      </trkpt>
      <trkpt lat="47.6495" lon="6.17067">
        <ele>250.5</ele>
        <time>2020-11-27T13:40:44Z</time>
      </trkpt>
      <trkpt lat="47.64955" lon="6.17061">
        <ele>250.6</ele>
        <time>2020-11-27T13:40:46Z</time>
      </trkpt>
      <trkpt lat="47.6496" lon="6.17056">
        <ele>250.7</ele>
        <time>2020-11-27T13:40:49Z</time>
      </trkpt>
      <trkpt lat="47.64965" lon="6.17051">
        <ele>250.7</ele>
        <time>2020-11-27T13:40:51Z</time>
      </trkpt>
      <trkpt lat="47.64971" lon="6.17046">
        <ele>250.8</ele>
        <time>2020-11-27T13:40:54Z</time>
      </trkpt>
      <trkpt lat="47.64975" lon="6.17042">
        <ele>250.9</ele>
        <time>2020-11-27T13:40:56Z</time>
      </trkpt>
      <trkpt lat="47.64978" lon="6.17037">
        <ele>250.8</ele>
        <time>2020-11-27T13:40:58Z</time>
      </trkpt>
      <trkpt lat="47.64983" lon="6.1703">
        <ele>250.7</ele>
        <time>2020-11-27T13:41:00Z</time>
      </trkpt>
      <trkpt lat="47.64986" lon="6.17024">
        <ele>250.6</ele>
        <time>2020-11-27T13:41:02Z</time>
      </trkpt>
      <trkpt lat="47.64993" lon="6.17016">
        <ele>250.5</ele>
        <time>2020-11-27T13:41:05Z</time>
      </trkpt>
      <trkpt lat="47.64997" lon="6.17009">
        <ele>250.3</ele>
        <time>2020-11-27T13:41:07Z</time>
      </trkpt>
      <trkpt lat="47.65" lon="6.17003">
        <ele>250.2</ele>
        <time>2020-11-27T13:41:08Z</time>
      </trkpt>
      <trkpt lat="47.65005" lon="6.16998">
        <ele>250.1</ele>
        <time>2020-11-27T13:41:09Z</time>
      </trkpt>
      <trkpt lat="47.6501" lon="6.1699">
        <ele>249.9</ele>
        <time>2020-11-27T13:41:10Z</time>
      </trkpt>
      <trkpt lat="47.65015" lon="6.16982">
        <ele>249.6</ele>
        <time>2020-11-27T13:41:12Z</time>
      </trkpt>
      <trkpt lat="47.65021" lon="6.16974">
        <ele>249.4</ele>
        <time>2020-11-27T13:41:13Z</time>
      </trkpt>
      <trkpt lat="47.65025" lon="6.16968">
        <ele>249.2</ele>
        <time>2020-11-27T13:41:14Z</time>
      </trkpt>
      <trkpt lat="47.65029" lon="6.16962">
        <ele>249</ele>
        <time>2020-11-27T13:41:15Z</time>
      </trkpt>
      <trkpt lat="47.65033" lon="6.16958">
        <ele>248.9</ele>
        <time>2020-11-27T13:41:16Z</time>
      </trkpt>
      <trkpt lat="47.65042" lon="6.16944">
        <ele>248.5</ele>
        <time>2020-11-27T13:41:18Z</time>
      </trkpt>
      <trkpt lat="47.65046" lon="6.16938">
        <ele>248.3</ele>
        <time>2020-11-27T13:41:19Z</time>
      </trkpt>
      <trkpt lat="47.65051" lon="6.16933">
        <ele>248.2</ele>
        <time>2020-11-27T13:41:20Z</time>
      </trkpt>
      <trkpt lat="47.65054" lon="6.16927">
        <ele>248</ele>
        <time>2020-11-27T13:41:21Z</time>
      </trkpt>
      <trkpt lat="47.65058" lon="6.16922">
        <ele>247.8</ele>
        <time>2020-11-27T13:41:22Z</time>
      </trkpt>
      <trkpt lat="47.65062" lon="6.16917">
        <ele>247.7</ele>
        <time>2020-11-27T13:41:23Z</time>
      </trkpt>
      <trkpt lat="47.65065" lon="6.16912">
        <ele>247.7</ele>
        <time>2020-11-27T13:41:24Z</time>
      </trkpt>
      <trkpt lat="47.65068" lon="6.16907">
        <ele>247.7</ele>
        <time>2020-11-27T13:41:25Z</time>
      </trkpt>
      <trkpt lat="47.65074" lon="6.16898">
        <ele>247.5</ele>
        <time>2020-11-27T13:41:27Z</time>
      </trkpt>
      <trkpt lat="47.65079" lon="6.16892">
        <ele>247.5</ele>
        <time>2020-11-27T13:41:29Z</time>
      </trkpt>
      <trkpt lat="47.65086" lon="6.16885">
        <ele>247.7</ele>
        <time>2020-11-27T13:41:31Z</time>
      </trkpt>
      <trkpt lat="47.6509" lon="6.16877">
        <ele>247.7</ele>
        <time>2020-11-27T13:41:33Z</time>
      </trkpt>
      <trkpt lat="47.65094" lon="6.1687">
        <ele>247.7</ele>
        <time>2020-11-27T13:41:35Z</time>
      </trkpt>
      <trkpt lat="47.65098" lon="6.16864">
        <ele>247.7</ele>
        <time>2020-11-27T13:41:37Z</time>
      </trkpt>
      <trkpt lat="47.65102" lon="6.16858">
        <ele>247.7</ele>
        <time>2020-11-27T13:41:39Z</time>
      </trkpt>
      <trkpt lat="47.65105" lon="6.16852">
        <ele>247.7</ele>
        <time>2020-11-27T13:41:41Z</time>
      </trkpt>
      <trkpt lat="47.65108" lon="6.16847">
        <ele>247.7</ele>
        <time>2020-11-27T13:41:43Z</time>
      </trkpt>
      <trkpt lat="47.65113" lon="6.16839">
        <ele>247.7</ele>
        <time>2020-11-27T13:41:46Z</time>
      </trkpt>
      <trkpt lat="47.65116" lon="6.16833">
        <ele>247.7</ele>
        <time>2020-11-27T13:41:48Z</time>
      </trkpt>
      <trkpt lat="47.65121" lon="6.16827">
        <ele>247.8</ele>
        <time>2020-11-27T13:41:51Z</time>
      </trkpt>
      <trkpt lat="47.65126" lon="6.16821">
        <ele>247.9</ele>
        <time>2020-11-27T13:41:54Z</time>
      </trkpt>
      <trkpt lat="47.65129" lon="6.16814">
        <ele>247.8</ele>
        <time>2020-11-27T13:41:57Z</time>
      </trkpt>
      <trkpt lat="47.65132" lon="6.16807">
        <ele>247.6</ele>
        <time>2020-11-27T13:42:00Z</time>
      </trkpt>
      <trkpt lat="47.65132" lon="6.168">
        <ele>247.2</ele>
        <time>2020-11-27T13:42:59Z</time>
      </trkpt>
      <trkpt lat="47.65135" lon="6.16794">
        <ele>247.1</ele>
        <time>2020-11-27T13:44:22Z</time>
      </trkpt>
      <trkpt lat="47.6514" lon="6.16789">
        <ele>247</ele>
        <time>2020-11-27T13:44:25Z</time>
      </trkpt>
      <trkpt lat="47.65144" lon="6.16785">
        <ele>247.1</ele>
        <time>2020-11-27T13:44:27Z</time>
      </trkpt>
      <trkpt lat="47.65149" lon="6.16782">
        <ele>247.2</ele>
        <time>2020-11-27T13:44:29Z</time>
      </trkpt>
      <trkpt lat="47.65153" lon="6.16778">
        <ele>247.2</ele>
        <time>2020-11-27T13:44:38Z</time>
      </trkpt>
      <trkpt lat="47.65156" lon="6.16773">
        <ele>247</ele>
        <time>2020-11-27T13:44:55Z</time>
      </trkpt>
      <trkpt lat="47.65161" lon="6.16775">
        <ele>247.4</ele>
        <time>2020-11-27T13:45:03Z</time>
      </trkpt>
      <trkpt lat="47.65165" lon="6.16778">
        <ele>247.9</ele>
        <time>2020-11-27T13:45:09Z</time>
      </trkpt>
      <trkpt lat="47.65171" lon="6.16778">
        <ele>248</ele>
        <time>2020-11-27T13:45:19Z</time>
      </trkpt>
      <trkpt lat="47.65176" lon="6.16779">
        <ele>248.1</ele>
        <time>2020-11-27T13:45:22Z</time>
      </trkpt>
      <trkpt lat="47.65181" lon="6.16783">
        <ele>248.4</ele>
        <time>2020-11-27T13:45:27Z</time>
      </trkpt>
      <trkpt lat="47.65185" lon="6.16788">
        <ele>248.8</ele>
        <time>2020-11-27T13:45:29Z</time>
      </trkpt>
      <trkpt lat="47.65189" lon="6.16793">
        <ele>249.1</ele>
        <time>2020-11-27T13:45:34Z</time>
      </trkpt>
      <trkpt lat="47.65193" lon="6.16797">
        <ele>249.4</ele>
        <time>2020-11-27T13:45:38Z</time>
      </trkpt>
      <trkpt lat="47.65199" lon="6.16802">
        <ele>249.7</ele>
        <time>2020-11-27T13:45:44Z</time>
      </trkpt>
      <trkpt lat="47.65203" lon="6.16807">
        <ele>250.1</ele>
        <time>2020-11-27T13:45:48Z</time>
      </trkpt>
      <trkpt lat="47.65206" lon="6.16812">
        <ele>250.5</ele>
        <time>2020-11-27T13:45:53Z</time>
      </trkpt>
      <trkpt lat="47.65209" lon="6.16817">
        <ele>250.9</ele>
        <time>2020-11-27T13:46:00Z</time>
      </trkpt>
      <trkpt lat="47.65213" lon="6.16821">
        <ele>251.1</ele>
        <time>2020-11-27T13:46:05Z</time>
      </trkpt>
      <trkpt lat="47.65217" lon="6.16826">
        <ele>251.4</ele>
        <time>2020-11-27T13:46:11Z</time>
      </trkpt>
      <trkpt lat="47.65224" lon="6.16829">
        <ele>251.7</ele>
        <time>2020-11-27T13:46:15Z</time>
      </trkpt>
      <trkpt lat="47.6523" lon="6.16832">
        <ele>251.9</ele>
        <time>2020-11-27T13:46:18Z</time>
      </trkpt>
      <trkpt lat="47.65235" lon="6.16833">
        <ele>252</ele>
        <time>2020-11-27T13:46:22Z</time>
      </trkpt>
      <trkpt lat="47.65239" lon="6.16837">
        <ele>252.3</ele>
        <time>2020-11-27T13:46:26Z</time>
      </trkpt>
      <trkpt lat="47.65243" lon="6.16841">
        <ele>252.6</ele>
        <time>2020-11-27T13:46:30Z</time>
      </trkpt>
      <trkpt lat="47.65248" lon="6.16846">
        <ele>253</ele>
        <time>2020-11-27T13:46:34Z</time>
      </trkpt>
      <trkpt lat="47.65252" lon="6.16851">
        <ele>253.5</ele>
        <time>2020-11-27T13:46:39Z</time>
      </trkpt>
      <trkpt lat="47.65256" lon="6.16855">
        <ele>253.7</ele>
        <time>2020-11-27T13:46:42Z</time>
      </trkpt>
      <trkpt lat="47.6526" lon="6.16858">
        <ele>253.9</ele>
        <time>2020-11-27T13:46:47Z</time>
      </trkpt>
      <trkpt lat="47.65264" lon="6.16861">
        <ele>254.1</ele>
        <time>2020-11-27T13:47:32Z</time>
      </trkpt>
      <trkpt lat="47.65269" lon="6.16862">
        <ele>254</ele>
        <time>2020-11-27T13:47:37Z</time>
      </trkpt>
      <trkpt lat="47.65272" lon="6.16856">
        <ele>253.5</ele>
        <time>2020-11-27T13:47:46Z</time>
      </trkpt>
      <trkpt lat="47.65274" lon="6.1685">
        <ele>253</ele>
        <time>2020-11-27T13:47:50Z</time>
      </trkpt>
      <trkpt lat="47.65278" lon="6.16845">
        <ele>252.6</ele>
        <time>2020-11-27T13:47:53Z</time>
      </trkpt>
      <trkpt lat="47.65281" lon="6.16841">
        <ele>252.2</ele>
        <time>2020-11-27T13:47:57Z</time>
      </trkpt>
      <trkpt lat="47.65284" lon="6.16835">
        <ele>251.7</ele>
        <time>2020-11-27T13:48:01Z</time>
      </trkpt>
      <trkpt lat="47.65288" lon="6.16831">
        <ele>251.4</ele>
        <time>2020-11-27T13:48:04Z</time>
      </trkpt>
      <trkpt lat="47.6529" lon="6.16824">
        <ele>250.9</ele>
        <time>2020-11-27T13:48:08Z</time>
      </trkpt>
      <trkpt lat="47.65294" lon="6.16819">
        <ele>250.5</ele>
        <time>2020-11-27T13:48:15Z</time>
      </trkpt>
      <trkpt lat="47.65298" lon="6.16814">
        <ele>250.2</ele>
        <time>2020-11-27T13:48:22Z</time>
      </trkpt>
      <trkpt lat="47.653" lon="6.16809">
        <ele>249.8</ele>
        <time>2020-11-27T13:48:27Z</time>
      </trkpt>
      <trkpt lat="47.65303" lon="6.16802">
        <ele>249.3</ele>
        <time>2020-11-27T13:48:30Z</time>
      </trkpt>
      <trkpt lat="47.65306" lon="6.16797">
        <ele>249</ele>
        <time>2020-11-27T13:48:37Z</time>
      </trkpt>
      <trkpt lat="47.65311" lon="6.16799">
        <ele>249.1</ele>
        <time>2020-11-27T13:49:11Z</time>
      </trkpt>
      <trkpt lat="47.65314" lon="6.16805">
        <ele>249.4</ele>
        <time>2020-11-27T13:49:17Z</time>
      </trkpt>
      <trkpt lat="47.65318" lon="6.16809">
        <ele>249.7</ele>
        <time>2020-11-27T13:49:22Z</time>
      </trkpt>
      <trkpt lat="47.65322" lon="6.16812">
        <ele>249.8</ele>
        <time>2020-11-27T13:49:31Z</time>
      </trkpt>
      <trkpt lat="47.65326" lon="6.16808">
        <ele>249.5</ele>
        <time>2020-11-27T13:49:50Z</time>
      </trkpt>
      <trkpt lat="47.65329" lon="6.16802">
        <ele>249.2</ele>
        <time>2020-11-27T13:49:54Z</time>
      </trkpt>
      <trkpt lat="47.65333" lon="6.168">
        <ele>249</ele>
        <time>2020-11-27T13:50:00Z</time>
      </trkpt>
      <trkpt lat="47.65334" lon="6.16793">
        <ele>248.6</ele>
        <time>2020-11-27T13:50:11Z</time>
      </trkpt>
      <trkpt lat="47.65338" lon="6.16789">
        <ele>248.2</ele>
        <time>2020-11-27T13:50:18Z</time>
      </trkpt>
      <trkpt lat="47.65342" lon="6.16787">
        <ele>248</ele>
        <time>2020-11-27T13:50:28Z</time>
      </trkpt>
      <trkpt lat="47.65347" lon="6.16787">
        <ele>247.8</ele>
        <time>2020-11-27T13:50:36Z</time>
      </trkpt>
      <trkpt lat="47.65352" lon="6.1679">
        <ele>247.8</ele>
        <time>2020-11-27T13:50:44Z</time>
      </trkpt>
      <trkpt lat="47.65356" lon="6.16794">
        <ele>247.9</ele>
        <time>2020-11-27T13:50:49Z</time>
      </trkpt>
      <trkpt lat="47.65359" lon="6.16799">
        <ele>248.1</ele>
        <time>2020-11-27T13:50:53Z</time>
      </trkpt>
      <trkpt lat="47.65362" lon="6.16806">
        <ele>248.3</ele>
        <time>2020-11-27T13:50:58Z</time>
      </trkpt>
      <trkpt lat="47.65365" lon="6.1681">
        <ele>248.4</ele>
        <time>2020-11-27T13:51:04Z</time>
      </trkpt>
      <trkpt lat="47.6537" lon="6.16814">
        <ele>248.4</ele>
        <time>2020-11-27T13:51:10Z</time>
      </trkpt>
      <trkpt lat="47.65374" lon="6.1682">
        <ele>248.5</ele>
        <time>2020-11-27T13:51:17Z</time>
      </trkpt>
      <trkpt lat="47.65378" lon="6.16825">
        <ele>248.5</ele>
        <time>2020-11-27T13:51:21Z</time>
      </trkpt>
      <trkpt lat="47.65382" lon="6.16828">
        <ele>248.5</ele>
        <time>2020-11-27T13:51:25Z</time>
      </trkpt>
      <trkpt lat="47.65386" lon="6.16831">
        <ele>248.4</ele>
        <time>2020-11-27T13:51:30Z</time>
      </trkpt>
      <trkpt lat="47.6539" lon="6.16835">
        <ele>248.4</ele>
        <time>2020-11-27T13:51:35Z</time>
      </trkpt>
      <trkpt lat="47.65392" lon="6.16843">
        <ele>248.9</ele>
        <time>2020-11-27T13:51:42Z</time>
      </trkpt>
      <trkpt lat="47.65395" lon="6.16848">
        <ele>249.2</ele>
        <time>2020-11-27T13:51:47Z</time>
      </trkpt>
      <trkpt lat="47.65398" lon="6.16853">
        <ele>249.4</ele>
        <time>2020-11-27T13:51:50Z</time>
      </trkpt>
      <trkpt lat="47.65403" lon="6.16855">
        <ele>249.4</ele>
        <time>2020-11-27T13:52:05Z</time>
      </trkpt>
      <trkpt lat="47.65407" lon="6.16858">
        <ele>249.5</ele>
        <time>2020-11-27T13:52:11Z</time>
      </trkpt>
      <trkpt lat="47.65412" lon="6.16863">
        <ele>249.7</ele>
        <time>2020-11-27T13:52:12Z</time>
      </trkpt>
      <trkpt lat="47.65416" lon="6.16868">
        <ele>249.9</ele>
        <time>2020-11-27T13:52:16Z</time>
      </trkpt>
      <trkpt lat="47.6542" lon="6.16872">
        <ele>250.1</ele>
        <time>2020-11-27T13:52:21Z</time>
      </trkpt>
      <trkpt lat="47.65425" lon="6.16877">
        <ele>250.4</ele>
        <time>2020-11-27T13:52:23Z</time>
      </trkpt>
      <trkpt lat="47.6543" lon="6.16884">
        <ele>250.9</ele>
        <time>2020-11-27T13:52:27Z</time>
      </trkpt>
      <trkpt lat="47.65434" lon="6.16889">
        <ele>251.2</ele>
        <time>2020-11-27T13:52:32Z</time>
      </trkpt>
      <trkpt lat="47.65437" lon="6.16894">
        <ele>251.5</ele>
        <time>2020-11-27T13:52:36Z</time>
      </trkpt>
      <trkpt lat="47.65441" lon="6.16899">
        <ele>251.7</ele>
        <time>2020-11-27T13:52:39Z</time>
      </trkpt>
      <trkpt lat="47.65444" lon="6.16903">
        <ele>252</ele>
        <time>2020-11-27T13:52:42Z</time>
      </trkpt>
      <trkpt lat="47.65449" lon="6.1691">
        <ele>252.4</ele>
        <time>2020-11-27T13:52:45Z</time>
      </trkpt>
      <trkpt lat="47.65452" lon="6.16915">
        <ele>252.6</ele>
        <time>2020-11-27T13:52:47Z</time>
      </trkpt>
      <trkpt lat="47.65456" lon="6.16921">
        <ele>252.8</ele>
        <time>2020-11-27T13:52:50Z</time>
      </trkpt>
      <trkpt lat="47.6546" lon="6.16925">
        <ele>252.8</ele>
        <time>2020-11-27T13:52:53Z</time>
      </trkpt>
      <trkpt lat="47.65465" lon="6.16929">
        <ele>252.9</ele>
        <time>2020-11-27T13:52:56Z</time>
      </trkpt>
      <trkpt lat="47.65469" lon="6.16932">
        <ele>252.8</ele>
        <time>2020-11-27T13:52:59Z</time>
      </trkpt>
      <trkpt lat="47.65473" lon="6.16934">
        <ele>252.8</ele>
        <time>2020-11-27T13:53:02Z</time>
      </trkpt>
      <trkpt lat="47.65479" lon="6.16938">
        <ele>252.8</ele>
        <time>2020-11-27T13:53:06Z</time>
      </trkpt>
      <trkpt lat="47.65484" lon="6.16941">
        <ele>252.7</ele>
        <time>2020-11-27T13:53:10Z</time>
      </trkpt>
      <trkpt lat="47.65489" lon="6.16943">
        <ele>252.6</ele>
        <time>2020-11-27T13:53:13Z</time>
      </trkpt>
      <trkpt lat="47.65495" lon="6.16947">
        <ele>252.6</ele>
        <time>2020-11-27T13:53:20Z</time>
      </trkpt>
      <trkpt lat="47.65499" lon="6.16951">
        <ele>252.7</ele>
        <time>2020-11-27T13:53:22Z</time>
      </trkpt>
      <trkpt lat="47.65504" lon="6.16956">
        <ele>252.8</ele>
        <time>2020-11-27T13:53:27Z</time>
      </trkpt>
      <trkpt lat="47.65507" lon="6.16959">
        <ele>252.8</ele>
        <time>2020-11-27T13:53:29Z</time>
      </trkpt>
      <trkpt lat="47.65512" lon="6.16962">
        <ele>252.8</ele>
        <time>2020-11-27T13:53:33Z</time>
      </trkpt>
      <trkpt lat="47.65518" lon="6.16964">
        <ele>252.7</ele>
        <time>2020-11-27T13:53:38Z</time>
      </trkpt>
      <trkpt lat="47.65524" lon="6.16968">
        <ele>252.7</ele>
        <time>2020-11-27T13:53:40Z</time>
      </trkpt>
      <trkpt lat="47.65528" lon="6.16971">
        <ele>252.8</ele>
        <time>2020-11-27T13:53:43Z</time>
      </trkpt>
      <trkpt lat="47.65532" lon="6.16976">
        <ele>252.8</ele>
        <time>2020-11-27T13:53:46Z</time>
      </trkpt>
      <trkpt lat="47.65536" lon="6.16981">
        <ele>252.9</ele>
        <time>2020-11-27T13:53:50Z</time>
      </trkpt>
      <trkpt lat="47.6554" lon="6.16984">
        <ele>252.9</ele>
        <time>2020-11-27T13:53:53Z</time>
      </trkpt>
      <trkpt lat="47.65545" lon="6.16988">
        <ele>252.9</ele>
        <time>2020-11-27T13:53:59Z</time>
      </trkpt>
      <trkpt lat="47.6555" lon="6.16991">
        <ele>252.8</ele>
        <time>2020-11-27T13:55:16Z</time>
      </trkpt>
      <trkpt lat="47.65554" lon="6.16994">
        <ele>252.8</ele>
        <time>2020-11-27T13:55:17Z</time>
      </trkpt>
      <trkpt lat="47.65559" lon="6.16999">
        <ele>252.8</ele>
        <time>2020-11-27T13:55:20Z</time>
      </trkpt>
      <trkpt lat="47.65563" lon="6.17001">
        <ele>252.8</ele>
        <time>2020-11-27T13:55:23Z</time>
      </trkpt>
      <trkpt lat="47.65568" lon="6.17002">
        <ele>252.6</ele>
        <time>2020-11-27T13:55:26Z</time>
      </trkpt>
      <trkpt lat="47.65574" lon="6.17003">
        <ele>252.4</ele>
        <time>2020-11-27T13:55:31Z</time>
      </trkpt>
      <trkpt lat="47.65579" lon="6.17003">
        <ele>252.3</ele>
        <time>2020-11-27T13:55:34Z</time>
      </trkpt>
      <trkpt lat="47.65583" lon="6.17">
        <ele>252</ele>
        <time>2020-11-27T13:55:35Z</time>
      </trkpt>
      <trkpt lat="47.65588" lon="6.16998">
        <ele>251.7</ele>
        <time>2020-11-27T13:55:39Z</time>
      </trkpt>
      <trkpt lat="47.65594" lon="6.16994">
        <ele>251.2</ele>
        <time>2020-11-27T13:55:40Z</time>
      </trkpt>
      <trkpt lat="47.65599" lon="6.1699">
        <ele>250.8</ele>
        <time>2020-11-27T13:55:42Z</time>
      </trkpt>
      <trkpt lat="47.65604" lon="6.16986">
        <ele>250.4</ele>
        <time>2020-11-27T13:55:46Z</time>
      </trkpt>
      <trkpt lat="47.65609" lon="6.16979">
        <ele>249.9</ele>
        <time>2020-11-27T13:55:47Z</time>
      </trkpt>
      <trkpt lat="47.65613" lon="6.16975">
        <ele>249.5</ele>
        <time>2020-11-27T13:55:49Z</time>
      </trkpt>
      <trkpt lat="47.65618" lon="6.16971">
        <ele>249</ele>
        <time>2020-11-27T13:55:52Z</time>
      </trkpt>
      <trkpt lat="47.65623" lon="6.16967">
        <ele>248.6</ele>
        <time>2020-11-27T13:55:54Z</time>
      </trkpt>
      <trkpt lat="47.65626" lon="6.16962">
        <ele>248.1</ele>
        <time>2020-11-27T13:55:58Z</time>
      </trkpt>
      <trkpt lat="47.65631" lon="6.16961">
        <ele>247.8</ele>
        <time>2020-11-27T13:55:59Z</time>
      </trkpt>
      <trkpt lat="47.65636" lon="6.16965">
        <ele>247.7</ele>
        <time>2020-11-27T13:56:01Z</time>
      </trkpt>
      <trkpt lat="47.65641" lon="6.16968">
        <ele>247.6</ele>
        <time>2020-11-27T13:56:03Z</time>
      </trkpt>
      <trkpt lat="47.65646" lon="6.16973">
        <ele>247.5</ele>
        <time>2020-11-27T13:56:06Z</time>
      </trkpt>
      <trkpt lat="47.65649" lon="6.16981">
        <ele>247.8</ele>
        <time>2020-11-27T13:56:09Z</time>
      </trkpt>
      <trkpt lat="47.6565" lon="6.1699">
        <ele>248.2</ele>
        <time>2020-11-27T13:56:12Z</time>
      </trkpt>
      <trkpt lat="47.65652" lon="6.16997">
        <ele>248.5</ele>
        <time>2020-11-27T13:56:15Z</time>
      </trkpt>
      <trkpt lat="47.65652" lon="6.17004">
        <ele>248.8</ele>
        <time>2020-11-27T13:56:18Z</time>
      </trkpt>
      <trkpt lat="47.65655" lon="6.17009">
        <ele>248.9</ele>
        <time>2020-11-27T13:56:35Z</time>
      </trkpt>
      <trkpt lat="47.65658" lon="6.17016">
        <ele>249</ele>
        <time>2020-11-27T13:56:41Z</time>
      </trkpt>
      <trkpt lat="47.65662" lon="6.17021">
        <ele>249</ele>
        <time>2020-11-27T13:56:47Z</time>
      </trkpt>
      <trkpt lat="47.65665" lon="6.17028">
        <ele>249.1</ele>
        <time>2020-11-27T13:56:53Z</time>
      </trkpt>
      <trkpt lat="47.65667" lon="6.17034">
        <ele>249.2</ele>
        <time>2020-11-27T13:56:59Z</time>
      </trkpt>
      <trkpt lat="47.65669" lon="6.17041">
        <ele>249.4</ele>
        <time>2020-11-27T13:57:07Z</time>
      </trkpt>
      <trkpt lat="47.65672" lon="6.17047">
        <ele>249.6</ele>
        <time>2020-11-27T13:57:12Z</time>
      </trkpt>
      <trkpt lat="47.65676" lon="6.17052">
        <ele>249.7</ele>
        <time>2020-11-27T13:57:18Z</time>
      </trkpt>
      <trkpt lat="47.65679" lon="6.17058">
        <ele>249.8</ele>
        <time>2020-11-27T13:57:23Z</time>
      </trkpt>
      <trkpt lat="47.65682" lon="6.17062">
        <ele>249.9</ele>
        <time>2020-11-27T13:57:28Z</time>
      </trkpt>
      <trkpt lat="47.65685" lon="6.17068">
        <ele>250.1</ele>
        <time>2020-11-27T13:57:34Z</time>
      </trkpt>
      <trkpt lat="47.65687" lon="6.17074">
        <ele>250.2</ele>
        <time>2020-11-27T13:57:38Z</time>
      </trkpt>
      <trkpt lat="47.65691" lon="6.1708">
        <ele>250.3</ele>
        <time>2020-11-27T13:57:44Z</time>
      </trkpt>
      <trkpt lat="47.65694" lon="6.17086">
        <ele>250.3</ele>
        <time>2020-11-27T13:57:49Z</time>
      </trkpt>
      <trkpt lat="47.65696" lon="6.17092">
        <ele>250.3</ele>
        <time>2020-11-27T13:57:55Z</time>
      </trkpt>
      <trkpt lat="47.65699" lon="6.17098">
        <ele>250.2</ele>
        <time>2020-11-27T13:58:01Z</time>
      </trkpt>
      <trkpt lat="47.65701" lon="6.17104">
        <ele>250.1</ele>
        <time>2020-11-27T13:59:16Z</time>
      </trkpt>
      <trkpt lat="47.65703" lon="6.17111">
        <ele>250.1</ele>
        <time>2020-11-27T13:59:31Z</time>
      </trkpt>
      <trkpt lat="47.65703" lon="6.17118">
        <ele>250.1</ele>
        <time>2020-11-27T13:59:34Z</time>
      </trkpt>
      <trkpt lat="47.65706" lon="6.17129">
        <ele>250</ele>
        <time>2020-11-27T13:59:38Z</time>
      </trkpt>
      <trkpt lat="47.65708" lon="6.17136">
        <ele>250</ele>
        <time>2020-11-27T13:59:43Z</time>
      </trkpt>
      <trkpt lat="47.6571" lon="6.17143">
        <ele>250</ele>
        <time>2020-11-27T13:59:46Z</time>
      </trkpt>
      <trkpt lat="47.65712" lon="6.17151">
        <ele>250</ele>
        <time>2020-11-27T13:59:49Z</time>
      </trkpt>
      <trkpt lat="47.65713" lon="6.17157">
        <ele>250</ele>
        <time>2020-11-27T13:59:52Z</time>
      </trkpt>
      <trkpt lat="47.65714" lon="6.17165">
        <ele>250</ele>
        <time>2020-11-27T13:59:54Z</time>
      </trkpt>
      <trkpt lat="47.65715" lon="6.17172">
        <ele>249.8</ele>
        <time>2020-11-27T13:59:56Z</time>
      </trkpt>
      <trkpt lat="47.65716" lon="6.17178">
        <ele>249.4</ele>
        <time>2020-11-27T13:59:58Z</time>
      </trkpt>
      <trkpt lat="47.65716" lon="6.17186">
        <ele>249.1</ele>
        <time>2020-11-27T14:00:00Z</time>
      </trkpt>
      <trkpt lat="47.65717" lon="6.17194">
        <ele>248.7</ele>
        <time>2020-11-27T14:00:02Z</time>
      </trkpt>
      <trkpt lat="47.65717" lon="6.17203">
        <ele>248.3</ele>
        <time>2020-11-27T14:00:04Z</time>
      </trkpt>
      <trkpt lat="47.65717" lon="6.1721">
        <ele>247.9</ele>
        <time>2020-11-27T14:00:06Z</time>
      </trkpt>
      <trkpt lat="47.65717" lon="6.17218">
        <ele>247.5</ele>
        <time>2020-11-27T14:00:08Z</time>
      </trkpt>
      <trkpt lat="47.65717" lon="6.17227">
        <ele>247.1</ele>
        <time>2020-11-27T14:00:10Z</time>
      </trkpt>
      <trkpt lat="47.65717" lon="6.17238">
        <ele>246.6</ele>
        <time>2020-11-27T14:00:14Z</time>
      </trkpt>
      <trkpt lat="47.65718" lon="6.17245">
        <ele>246.2</ele>
        <time>2020-11-27T14:00:16Z</time>
      </trkpt>
      <trkpt lat="47.65717" lon="6.17253">
        <ele>245.8</ele>
        <time>2020-11-27T14:00:26Z</time>
      </trkpt>
      <trkpt lat="47.65718" lon="6.17262">
        <ele>245.3</ele>
        <time>2020-11-27T14:00:29Z</time>
      </trkpt>
      <trkpt lat="47.65718" lon="6.1727">
        <ele>244.8</ele>
        <time>2020-11-27T14:00:31Z</time>
      </trkpt>
      <trkpt lat="47.65718" lon="6.17278">
        <ele>244.3</ele>
        <time>2020-11-27T14:00:33Z</time>
      </trkpt>
      <trkpt lat="47.65718" lon="6.17286">
        <ele>243.8</ele>
        <time>2020-11-27T14:00:36Z</time>
      </trkpt>
      <trkpt lat="47.6572" lon="6.17294">
        <ele>243.4</ele>
        <time>2020-11-27T14:00:38Z</time>
      </trkpt>
      <trkpt lat="47.65721" lon="6.17303">
        <ele>242.8</ele>
        <time>2020-11-27T14:00:41Z</time>
      </trkpt>
      <trkpt lat="47.65721" lon="6.17312">
        <ele>242.3</ele>
        <time>2020-11-27T14:00:44Z</time>
      </trkpt>
      <trkpt lat="47.65722" lon="6.17319">
        <ele>241.8</ele>
        <time>2020-11-27T14:00:46Z</time>
      </trkpt>
      <trkpt lat="47.65722" lon="6.17328">
        <ele>241.3</ele>
        <time>2020-11-27T14:00:48Z</time>
      </trkpt>
      <trkpt lat="47.65722" lon="6.17338">
        <ele>240.8</ele>
        <time>2020-11-27T14:00:49Z</time>
      </trkpt>
      <trkpt lat="47.65722" lon="6.17348">
        <ele>240.4</ele>
        <time>2020-11-27T14:00:51Z</time>
      </trkpt>
      <trkpt lat="47.65723" lon="6.17355">
        <ele>240.1</ele>
        <time>2020-11-27T14:00:52Z</time>
      </trkpt>
      <trkpt lat="47.65724" lon="6.17364">
        <ele>239.7</ele>
        <time>2020-11-27T14:00:54Z</time>
      </trkpt>
      <trkpt lat="47.65725" lon="6.17374">
        <ele>239.3</ele>
        <time>2020-11-27T14:00:56Z</time>
      </trkpt>
      <trkpt lat="47.65727" lon="6.17381">
        <ele>239</ele>
        <time>2020-11-27T14:00:58Z</time>
      </trkpt>
      <trkpt lat="47.65728" lon="6.17389">
        <ele>238.7</ele>
        <time>2020-11-27T14:00:59Z</time>
      </trkpt>
      <trkpt lat="47.65729" lon="6.17397">
        <ele>238.3</ele>
        <time>2020-11-27T14:01:01Z</time>
      </trkpt>
      <trkpt lat="47.65731" lon="6.17404">
        <ele>238</ele>
        <time>2020-11-27T14:01:03Z</time>
      </trkpt>
      <trkpt lat="47.65732" lon="6.17411">
        <ele>237.7</ele>
        <time>2020-11-27T14:01:05Z</time>
      </trkpt>
      <trkpt lat="47.65734" lon="6.17419">
        <ele>237.3</ele>
        <time>2020-11-27T14:01:07Z</time>
      </trkpt>
      <trkpt lat="47.65735" lon="6.17426">
        <ele>237.1</ele>
        <time>2020-11-27T14:01:11Z</time>
      </trkpt>
      <trkpt lat="47.65733" lon="6.1742">
        <ele>237.3</ele>
        <time>2020-11-27T14:01:18Z</time>
      </trkpt>
      <trkpt lat="47.65734" lon="6.17426">
        <ele>237.1</ele>
        <time>2020-11-27T14:01:53Z</time>
      </trkpt>
      <trkpt lat="47.65735" lon="6.17433">
        <ele>236.8</ele>
        <time>2020-11-27T14:02:02Z</time>
      </trkpt>
      <trkpt lat="47.65739" lon="6.17437">
        <ele>236.5</ele>
        <time>2020-11-27T14:02:36Z</time>
      </trkpt>
      <trkpt lat="47.65743" lon="6.17443">
        <ele>236.1</ele>
        <time>2020-11-27T14:02:43Z</time>
      </trkpt>
      <trkpt lat="47.65746" lon="6.17451">
        <ele>235.6</ele>
        <time>2020-11-27T14:02:46Z</time>
      </trkpt>
      <trkpt lat="47.65749" lon="6.17461">
        <ele>235</ele>
        <time>2020-11-27T14:02:49Z</time>
      </trkpt>
      <trkpt lat="47.65751" lon="6.17467">
        <ele>234.7</ele>
        <time>2020-11-27T14:02:51Z</time>
      </trkpt>
      <trkpt lat="47.65755" lon="6.17475">
        <ele>234.7</ele>
        <time>2020-11-27T14:02:53Z</time>
      </trkpt>
      <trkpt lat="47.65757" lon="6.17483">
        <ele>234.6</ele>
        <time>2020-11-27T14:02:55Z</time>
      </trkpt>
      <trkpt lat="47.6576" lon="6.17489">
        <ele>234.5</ele>
        <time>2020-11-27T14:02:57Z</time>
      </trkpt>
      <trkpt lat="47.65763" lon="6.17499">
        <ele>234.3</ele>
        <time>2020-11-27T14:02:59Z</time>
      </trkpt>
      <trkpt lat="47.65765" lon="6.17506">
        <ele>234.3</ele>
        <time>2020-11-27T14:03:01Z</time>
      </trkpt>
      <trkpt lat="47.65767" lon="6.17512">
        <ele>234.3</ele>
        <time>2020-11-27T14:03:02Z</time>
      </trkpt>
      <trkpt lat="47.65769" lon="6.17518">
        <ele>234.3</ele>
        <time>2020-11-27T14:03:04Z</time>
      </trkpt>
      <trkpt lat="47.65771" lon="6.17527">
        <ele>234.2</ele>
        <time>2020-11-27T14:03:05Z</time>
      </trkpt>
      <trkpt lat="47.65773" lon="6.17535">
        <ele>234.1</ele>
        <time>2020-11-27T14:03:06Z</time>
      </trkpt>
      <trkpt lat="47.65774" lon="6.17542">
        <ele>234</ele>
        <time>2020-11-27T14:03:07Z</time>
      </trkpt>
      <trkpt lat="47.65776" lon="6.1755">
        <ele>233.9</ele>
        <time>2020-11-27T14:03:09Z</time>
      </trkpt>
      <trkpt lat="47.65778" lon="6.1756">
        <ele>233.7</ele>
        <time>2020-11-27T14:03:10Z</time>
      </trkpt>
      <trkpt lat="47.6578" lon="6.17568">
        <ele>233.6</ele>
        <time>2020-11-27T14:03:11Z</time>
      </trkpt>
      <trkpt lat="47.65781" lon="6.17576">
        <ele>233.5</ele>
        <time>2020-11-27T14:03:12Z</time>
      </trkpt>
      <trkpt lat="47.65783" lon="6.17587">
        <ele>233.2</ele>
        <time>2020-11-27T14:03:14Z</time>
      </trkpt>
      <trkpt lat="47.65785" lon="6.17595">
        <ele>233</ele>
        <time>2020-11-27T14:03:15Z</time>
      </trkpt>
      <trkpt lat="47.65787" lon="6.17603">
        <ele>232.8</ele>
        <time>2020-11-27T14:03:16Z</time>
      </trkpt>
      <trkpt lat="47.65791" lon="6.17615">
        <ele>232.4</ele>
        <time>2020-11-27T14:03:19Z</time>
      </trkpt>
      <trkpt lat="47.65794" lon="6.17625">
        <ele>232.1</ele>
        <time>2020-11-27T14:03:20Z</time>
      </trkpt>
      <trkpt lat="47.65796" lon="6.17631">
        <ele>231.8</ele>
        <time>2020-11-27T14:03:21Z</time>
      </trkpt>
      <trkpt lat="47.65799" lon="6.17637">
        <ele>231.6</ele>
        <time>2020-11-27T14:03:23Z</time>
      </trkpt>
      <trkpt lat="47.65802" lon="6.17646">
        <ele>231.2</ele>
        <time>2020-11-27T14:03:24Z</time>
      </trkpt>
      <trkpt lat="47.65805" lon="6.17655">
        <ele>230.7</ele>
        <time>2020-11-27T14:03:26Z</time>
      </trkpt>
      <trkpt lat="47.65808" lon="6.17662">
        <ele>230.3</ele>
        <time>2020-11-27T14:03:28Z</time>
      </trkpt>
      <trkpt lat="47.65811" lon="6.1767">
        <ele>229.9</ele>
        <time>2020-11-27T14:03:29Z</time>
      </trkpt>
      <trkpt lat="47.65814" lon="6.17676">
        <ele>229.6</ele>
        <time>2020-11-27T14:03:31Z</time>
      </trkpt>
      <trkpt lat="47.65816" lon="6.17683">
        <ele>229.4</ele>
        <time>2020-11-27T14:03:32Z</time>
      </trkpt>
      <trkpt lat="47.6582" lon="6.17692">
        <ele>228.9</ele>
        <time>2020-11-27T14:03:34Z</time>
      </trkpt>
      <trkpt lat="47.65824" lon="6.17699">
        <ele>228.6</ele>
        <time>2020-11-27T14:03:36Z</time>
      </trkpt>
      <trkpt lat="47.6583" lon="6.17705">
        <ele>228.2</ele>
        <time>2020-11-27T14:03:38Z</time>
      </trkpt>
      <trkpt lat="47.65836" lon="6.17708">
        <ele>228.1</ele>
        <time>2020-11-27T14:03:41Z</time>
      </trkpt>
      <trkpt lat="47.65841" lon="6.17711">
        <ele>228.2</ele>
        <time>2020-11-27T14:03:44Z</time>
      </trkpt>
      <trkpt lat="47.65845" lon="6.17706">
        <ele>228.6</ele>
        <time>2020-11-27T14:04:13Z</time>
      </trkpt>
      <trkpt lat="47.65849" lon="6.17708">
        <ele>228.7</ele>
        <time>2020-11-27T14:04:40Z</time>
      </trkpt>
      <trkpt lat="47.65855" lon="6.17711">
        <ele>228.8</ele>
        <time>2020-11-27T14:04:43Z</time>
      </trkpt>
      <trkpt lat="47.65862" lon="6.17715">
        <ele>228.9</ele>
        <time>2020-11-27T14:04:46Z</time>
      </trkpt>
      <trkpt lat="47.65867" lon="6.17718">
        <ele>228.9</ele>
        <time>2020-11-27T14:04:49Z</time>
      </trkpt>
      <trkpt lat="47.65872" lon="6.17721">
        <ele>229</ele>
        <time>2020-11-27T14:04:51Z</time>
      </trkpt>
      <trkpt lat="47.65877" lon="6.17725">
        <ele>228.9</ele>
        <time>2020-11-27T14:04:53Z</time>
      </trkpt>
      <trkpt lat="47.65881" lon="6.17727">
        <ele>229</ele>
        <time>2020-11-27T14:04:56Z</time>
      </trkpt>
      <trkpt lat="47.65886" lon="6.17729">
        <ele>229</ele>
        <time>2020-11-27T14:04:59Z</time>
      </trkpt>
      <trkpt lat="47.65891" lon="6.17731">
        <ele>229.1</ele>
        <time>2020-11-27T14:05:02Z</time>
      </trkpt>
      <trkpt lat="47.65896" lon="6.17734">
        <ele>229.2</ele>
        <time>2020-11-27T14:05:05Z</time>
      </trkpt>
      <trkpt lat="47.659" lon="6.17737">
        <ele>229.2</ele>
        <time>2020-11-27T14:05:07Z</time>
      </trkpt>
      <trkpt lat="47.65906" lon="6.17741">
        <ele>229.2</ele>
        <time>2020-11-27T14:05:10Z</time>
      </trkpt>
      <trkpt lat="47.6591" lon="6.17743">
        <ele>229.1</ele>
        <time>2020-11-27T14:05:12Z</time>
      </trkpt>
      <trkpt lat="47.65916" lon="6.17748">
        <ele>229.1</ele>
        <time>2020-11-27T14:05:15Z</time>
      </trkpt>
      <trkpt lat="47.65921" lon="6.1775">
        <ele>229.3</ele>
        <time>2020-11-27T14:05:17Z</time>
      </trkpt>
      <trkpt lat="47.65926" lon="6.17753">
        <ele>229.5</ele>
        <time>2020-11-27T14:05:20Z</time>
      </trkpt>
      <trkpt lat="47.65931" lon="6.17756">
        <ele>229.7</ele>
        <time>2020-11-27T14:05:22Z</time>
      </trkpt>
      <trkpt lat="47.65936" lon="6.17761">
        <ele>229.8</ele>
        <time>2020-11-27T14:05:24Z</time>
      </trkpt>
      <trkpt lat="47.65941" lon="6.17767">
        <ele>229.8</ele>
        <time>2020-11-27T14:05:27Z</time>
      </trkpt>
      <trkpt lat="47.65944" lon="6.17774">
        <ele>229.5</ele>
        <time>2020-11-27T14:05:28Z</time>
      </trkpt>
      <trkpt lat="47.65946" lon="6.17782">
        <ele>229.1</ele>
        <time>2020-11-27T14:05:30Z</time>
      </trkpt>
      <trkpt lat="47.65946" lon="6.1779">
        <ele>228.6</ele>
        <time>2020-11-27T14:05:31Z</time>
      </trkpt>
      <trkpt lat="47.65945" lon="6.17797">
        <ele>228.2</ele>
        <time>2020-11-27T14:05:32Z</time>
      </trkpt>
      <trkpt lat="47.65944" lon="6.17804">
        <ele>227.7</ele>
        <time>2020-11-27T14:05:34Z</time>
      </trkpt>
      <trkpt lat="47.65942" lon="6.17811">
        <ele>227.3</ele>
        <time>2020-11-27T14:05:35Z</time>
      </trkpt>
      <trkpt lat="47.65939" lon="6.17819">
        <ele>226.8</ele>
        <time>2020-11-27T14:05:36Z</time>
      </trkpt>
      <trkpt lat="47.65937" lon="6.17826">
        <ele>226.4</ele>
        <time>2020-11-27T14:05:37Z</time>
      </trkpt>
      <trkpt lat="47.65934" lon="6.17833">
        <ele>226</ele>
        <time>2020-11-27T14:05:38Z</time>
      </trkpt>
      <trkpt lat="47.6593" lon="6.17838">
        <ele>226.1</ele>
        <time>2020-11-27T14:05:39Z</time>
      </trkpt>
      <trkpt lat="47.65926" lon="6.17845">
        <ele>226.3</ele>
        <time>2020-11-27T14:05:41Z</time>
      </trkpt>
      <trkpt lat="47.65923" lon="6.17854">
        <ele>226.5</ele>
        <time>2020-11-27T14:05:44Z</time>
      </trkpt>
      <trkpt lat="47.6592" lon="6.17861">
        <ele>226.7</ele>
        <time>2020-11-27T14:05:46Z</time>
      </trkpt>
      <trkpt lat="47.65918" lon="6.17869">
        <ele>226.9</ele>
        <time>2020-11-27T14:05:47Z</time>
      </trkpt>
      <trkpt lat="47.65917" lon="6.17878">
        <ele>227.1</ele>
        <time>2020-11-27T14:05:49Z</time>
      </trkpt>
      <trkpt lat="47.65913" lon="6.17884">
        <ele>227.2</ele>
        <time>2020-11-27T14:05:51Z</time>
      </trkpt>
      <trkpt lat="47.65909" lon="6.17888">
        <ele>227.3</ele>
        <time>2020-11-27T14:05:54Z</time>
      </trkpt>
      <trkpt lat="47.65907" lon="6.17895">
        <ele>227.5</ele>
        <time>2020-11-27T14:05:58Z</time>
      </trkpt>
      <trkpt lat="47.65908" lon="6.17902">
        <ele>227.7</ele>
        <time>2020-11-27T14:06:04Z</time>
      </trkpt>
      <trkpt lat="47.65904" lon="6.17908">
        <ele>227.9</ele>
        <time>2020-11-27T14:06:09Z</time>
      </trkpt>
      <trkpt lat="47.65903" lon="6.17916">
        <ele>228.1</ele>
        <time>2020-11-27T14:06:13Z</time>
      </trkpt>
      <trkpt lat="47.65904" lon="6.17923">
        <ele>229</ele>
        <time>2020-11-27T14:06:18Z</time>
      </trkpt>
      <trkpt lat="47.659" lon="6.17928">
        <ele>229.6</ele>
        <time>2020-11-27T14:06:21Z</time>
      </trkpt>
      <trkpt lat="47.65897" lon="6.17934">
        <ele>230.3</ele>
        <time>2020-11-27T14:06:25Z</time>
      </trkpt>
      <trkpt lat="47.65897" lon="6.17941">
        <ele>231.2</ele>
        <time>2020-11-27T14:06:29Z</time>
      </trkpt>
      <trkpt lat="47.65894" lon="6.17948">
        <ele>232.1</ele>
        <time>2020-11-27T14:06:34Z</time>
      </trkpt>
      <trkpt lat="47.65891" lon="6.17953">
        <ele>232.7</ele>
        <time>2020-11-27T14:06:39Z</time>
      </trkpt>
      <trkpt lat="47.65887" lon="6.17957">
        <ele>233.1</ele>
        <time>2020-11-27T14:06:44Z</time>
      </trkpt>
      <trkpt lat="47.6589" lon="6.17962">
        <ele>233.8</ele>
        <time>2020-11-27T14:06:48Z</time>
      </trkpt>
      <trkpt lat="47.65895" lon="6.17964">
        <ele>233.9</ele>
        <time>2020-11-27T14:06:51Z</time>
      </trkpt>
      <trkpt lat="47.65899" lon="6.17967">
        <ele>234.3</ele>
        <time>2020-11-27T14:06:54Z</time>
      </trkpt>
      <trkpt lat="47.65903" lon="6.1797">
        <ele>234.6</ele>
        <time>2020-11-27T14:06:57Z</time>
      </trkpt>
      <trkpt lat="47.65908" lon="6.17976">
        <ele>235.2</ele>
        <time>2020-11-27T14:07:00Z</time>
      </trkpt>
      <trkpt lat="47.65913" lon="6.1798">
        <ele>235.6</ele>
        <time>2020-11-27T14:07:04Z</time>
      </trkpt>
      <trkpt lat="47.65918" lon="6.17983">
        <ele>235.9</ele>
        <time>2020-11-27T14:07:07Z</time>
      </trkpt>
      <trkpt lat="47.65923" lon="6.17986">
        <ele>236.1</ele>
        <time>2020-11-27T14:07:10Z</time>
      </trkpt>
      <trkpt lat="47.65927" lon="6.1799">
        <ele>236.5</ele>
        <time>2020-11-27T14:07:13Z</time>
      </trkpt>
      <trkpt lat="47.65932" lon="6.17994">
        <ele>236.8</ele>
        <time>2020-11-27T14:07:16Z</time>
      </trkpt>
      <trkpt lat="47.65936" lon="6.17997">
        <ele>236.9</ele>
        <time>2020-11-27T14:07:19Z</time>
      </trkpt>
      <trkpt lat="47.65941" lon="6.18">
        <ele>237.1</ele>
        <time>2020-11-27T14:07:22Z</time>
      </trkpt>
      <trkpt lat="47.65946" lon="6.18003">
        <ele>237.4</ele>
        <time>2020-11-27T14:07:26Z</time>
      </trkpt>
      <trkpt lat="47.65952" lon="6.18006">
        <ele>237.6</ele>
        <time>2020-11-27T14:07:30Z</time>
      </trkpt>
      <trkpt lat="47.65956" lon="6.1801">
        <ele>238</ele>
        <time>2020-11-27T14:07:33Z</time>
      </trkpt>
      <trkpt lat="47.65961" lon="6.18013">
        <ele>238.3</ele>
        <time>2020-11-27T14:07:36Z</time>
      </trkpt>
      <trkpt lat="47.65965" lon="6.18017">
        <ele>238.6</ele>
        <time>2020-11-27T14:07:39Z</time>
      </trkpt>
      <trkpt lat="47.6597" lon="6.1802">
        <ele>238.9</ele>
        <time>2020-11-27T14:07:42Z</time>
      </trkpt>
      <trkpt lat="47.65974" lon="6.18026">
        <ele>239.4</ele>
        <time>2020-11-27T14:07:45Z</time>
      </trkpt>
      <trkpt lat="47.65979" lon="6.1803">
        <ele>239.8</ele>
        <time>2020-11-27T14:07:50Z</time>
      </trkpt>
      <trkpt lat="47.65983" lon="6.18035">
        <ele>240.1</ele>
        <time>2020-11-27T14:07:54Z</time>
      </trkpt>
      <trkpt lat="47.65987" lon="6.18041">
        <ele>240.7</ele>
        <time>2020-11-27T14:07:58Z</time>
      </trkpt>
      <trkpt lat="47.65991" lon="6.18045">
        <ele>240.9</ele>
        <time>2020-11-27T14:08:01Z</time>
      </trkpt>
      <trkpt lat="47.65995" lon="6.18049">
        <ele>241.2</ele>
        <time>2020-11-27T14:08:05Z</time>
      </trkpt>
      <trkpt lat="47.65999" lon="6.18054">
        <ele>241.5</ele>
        <time>2020-11-27T14:08:08Z</time>
      </trkpt>
      <trkpt lat="47.66002" lon="6.18059">
        <ele>242.1</ele>
        <time>2020-11-27T14:08:12Z</time>
      </trkpt>
      <trkpt lat="47.66007" lon="6.18064">
        <ele>242.8</ele>
        <time>2020-11-27T14:08:17Z</time>
      </trkpt>
      <trkpt lat="47.66011" lon="6.18069">
        <ele>243.5</ele>
        <time>2020-11-27T14:08:21Z</time>
      </trkpt>
      <trkpt lat="47.66014" lon="6.18075">
        <ele>244.2</ele>
        <time>2020-11-27T14:08:24Z</time>
      </trkpt>
      <trkpt lat="47.66017" lon="6.1808">
        <ele>245</ele>
        <time>2020-11-27T14:08:27Z</time>
      </trkpt>
      <trkpt lat="47.6602" lon="6.18086">
        <ele>245.9</ele>
        <time>2020-11-27T14:08:30Z</time>
      </trkpt>
      <trkpt lat="47.66024" lon="6.1809">
        <ele>246.7</ele>
        <time>2020-11-27T14:08:33Z</time>
      </trkpt>
      <trkpt lat="47.66027" lon="6.18096">
        <ele>247.8</ele>
        <time>2020-11-27T14:08:37Z</time>
      </trkpt>
      <trkpt lat="47.66031" lon="6.18099">
        <ele>248.4</ele>
        <time>2020-11-27T14:08:41Z</time>
      </trkpt>
      <trkpt lat="47.66037" lon="6.18101">
        <ele>248.7</ele>
        <time>2020-11-27T14:08:45Z</time>
      </trkpt>
      <trkpt lat="47.66042" lon="6.18103">
        <ele>249.1</ele>
        <time>2020-11-27T14:08:49Z</time>
      </trkpt>
      <trkpt lat="47.66047" lon="6.18106">
        <ele>249.6</ele>
        <time>2020-11-27T14:08:52Z</time>
      </trkpt>
      <trkpt lat="47.66053" lon="6.18109">
        <ele>250.2</ele>
        <time>2020-11-27T14:08:55Z</time>
      </trkpt>
      <trkpt lat="47.66058" lon="6.18112">
        <ele>250.6</ele>
        <time>2020-11-27T14:08:58Z</time>
      </trkpt>
      <trkpt lat="47.66062" lon="6.18114">
        <ele>250.9</ele>
        <time>2020-11-27T14:09:01Z</time>
      </trkpt>
      <trkpt lat="47.66067" lon="6.18115">
        <ele>251</ele>
        <time>2020-11-27T14:09:04Z</time>
      </trkpt>
      <trkpt lat="47.66072" lon="6.18115">
        <ele>251.2</ele>
        <time>2020-11-27T14:09:07Z</time>
      </trkpt>
      <trkpt lat="47.66077" lon="6.18119">
        <ele>251.7</ele>
        <time>2020-11-27T14:09:12Z</time>
      </trkpt>
      <trkpt lat="47.66083" lon="6.18122">
        <ele>252.1</ele>
        <time>2020-11-27T14:09:16Z</time>
      </trkpt>
      <trkpt lat="47.66088" lon="6.18122">
        <ele>251.9</ele>
        <time>2020-11-27T14:09:19Z</time>
      </trkpt>
      <trkpt lat="47.66092" lon="6.18124">
        <ele>251.9</ele>
        <time>2020-11-27T14:09:22Z</time>
      </trkpt>
      <trkpt lat="47.66097" lon="6.18126">
        <ele>251.9</ele>
        <time>2020-11-27T14:09:25Z</time>
      </trkpt>
      <trkpt lat="47.66102" lon="6.18129">
        <ele>252</ele>
        <time>2020-11-27T14:09:29Z</time>
      </trkpt>
      <trkpt lat="47.66107" lon="6.18131">
        <ele>252</ele>
        <time>2020-11-27T14:09:33Z</time>
      </trkpt>
      <trkpt lat="47.66113" lon="6.18134">
        <ele>251.9</ele>
        <time>2020-11-27T14:09:36Z</time>
      </trkpt>
      <trkpt lat="47.66118" lon="6.18136">
        <ele>252</ele>
        <time>2020-11-27T14:09:39Z</time>
      </trkpt>
      <trkpt lat="47.66123" lon="6.18139">
        <ele>252</ele>
        <time>2020-11-27T14:09:43Z</time>
      </trkpt>
      <trkpt lat="47.66128" lon="6.18141">
        <ele>251.9</ele>
        <time>2020-11-27T14:09:47Z</time>
      </trkpt>
      <trkpt lat="47.66134" lon="6.18143">
        <ele>251.8</ele>
        <time>2020-11-27T14:09:51Z</time>
      </trkpt>
      <trkpt lat="47.66139" lon="6.18147">
        <ele>251.9</ele>
        <time>2020-11-27T14:09:55Z</time>
      </trkpt>
      <trkpt lat="47.66144" lon="6.18149">
        <ele>251.7</ele>
        <time>2020-11-27T14:09:58Z</time>
      </trkpt>
      <trkpt lat="47.66149" lon="6.18152">
        <ele>251.8</ele>
        <time>2020-11-27T14:10:03Z</time>
      </trkpt>
      <trkpt lat="47.66153" lon="6.18158">
        <ele>252.1</ele>
        <time>2020-11-27T14:10:08Z</time>
      </trkpt>
      <trkpt lat="47.66156" lon="6.18163">
        <ele>252.3</ele>
        <time>2020-11-27T14:10:13Z</time>
      </trkpt>
      <trkpt lat="47.6616" lon="6.18166">
        <ele>252.4</ele>
        <time>2020-11-27T14:10:17Z</time>
      </trkpt>
      <trkpt lat="47.66164" lon="6.18171">
        <ele>252.8</ele>
        <time>2020-11-27T14:10:19Z</time>
      </trkpt>
      <trkpt lat="47.6617" lon="6.18177">
        <ele>253.1</ele>
        <time>2020-11-27T14:10:25Z</time>
      </trkpt>
      <trkpt lat="47.66174" lon="6.18183">
        <ele>253.6</ele>
        <time>2020-11-27T14:10:29Z</time>
      </trkpt>
      <trkpt lat="47.66178" lon="6.18188">
        <ele>254</ele>
        <time>2020-11-27T14:10:33Z</time>
      </trkpt>
      <trkpt lat="47.66182" lon="6.18191">
        <ele>254.1</ele>
        <time>2020-11-27T14:10:35Z</time>
      </trkpt>
      <trkpt lat="47.66185" lon="6.18198">
        <ele>254.9</ele>
        <time>2020-11-27T14:10:41Z</time>
      </trkpt>
      <trkpt lat="47.66188" lon="6.18204">
        <ele>255.4</ele>
        <time>2020-11-27T14:10:45Z</time>
      </trkpt>
      <trkpt lat="47.66193" lon="6.18208">
        <ele>255.6</ele>
        <time>2020-11-27T14:10:49Z</time>
      </trkpt>
      <trkpt lat="47.66196" lon="6.18212">
        <ele>255.9</ele>
        <time>2020-11-27T14:10:53Z</time>
      </trkpt>
      <trkpt lat="47.66201" lon="6.18217">
        <ele>256.2</ele>
        <time>2020-11-27T14:10:57Z</time>
      </trkpt>
      <trkpt lat="47.66204" lon="6.18223">
        <ele>256.7</ele>
        <time>2020-11-27T14:11:01Z</time>
      </trkpt>
      <trkpt lat="47.66207" lon="6.18232">
        <ele>257.7</ele>
        <time>2020-11-27T14:11:05Z</time>
      </trkpt>
      <trkpt lat="47.6621" lon="6.18239">
        <ele>258.4</ele>
        <time>2020-11-27T14:11:10Z</time>
      </trkpt>
      <trkpt lat="47.66213" lon="6.18244">
        <ele>258.9</ele>
        <time>2020-11-27T14:11:14Z</time>
      </trkpt>
      <trkpt lat="47.66216" lon="6.18252">
        <ele>259.6</ele>
        <time>2020-11-27T14:11:19Z</time>
      </trkpt>
      <trkpt lat="47.66219" lon="6.18258">
        <ele>259.9</ele>
        <time>2020-11-27T14:11:23Z</time>
      </trkpt>
      <trkpt lat="47.66222" lon="6.18263">
        <ele>260.1</ele>
        <time>2020-11-27T14:11:27Z</time>
      </trkpt>
      <trkpt lat="47.66225" lon="6.18268">
        <ele>260.2</ele>
        <time>2020-11-27T14:11:31Z</time>
      </trkpt>
      <trkpt lat="47.66227" lon="6.18275">
        <ele>260.6</ele>
        <time>2020-11-27T14:11:35Z</time>
      </trkpt>
      <trkpt lat="47.66229" lon="6.18282">
        <ele>261</ele>
        <time>2020-11-27T14:11:39Z</time>
      </trkpt>
      <trkpt lat="47.66231" lon="6.1829">
        <ele>261.5</ele>
        <time>2020-11-27T14:11:43Z</time>
      </trkpt>
      <trkpt lat="47.66234" lon="6.18296">
        <ele>261.7</ele>
        <time>2020-11-27T14:11:47Z</time>
      </trkpt>
      <trkpt lat="47.66232" lon="6.18303">
        <ele>262.4</ele>
        <time>2020-11-27T14:11:54Z</time>
      </trkpt>
      <trkpt lat="47.66227" lon="6.18304">
        <ele>262.9</ele>
        <time>2020-11-27T14:11:57Z</time>
      </trkpt>
      <trkpt lat="47.66222" lon="6.18303">
        <ele>263.3</ele>
        <time>2020-11-27T14:12:01Z</time>
      </trkpt>
      <trkpt lat="47.66217" lon="6.18304">
        <ele>263.8</ele>
        <time>2020-11-27T14:12:05Z</time>
      </trkpt>
      <trkpt lat="47.66212" lon="6.18302">
        <ele>264</ele>
        <time>2020-11-27T14:12:09Z</time>
      </trkpt>
      <trkpt lat="47.66207" lon="6.183">
        <ele>264.4</ele>
        <time>2020-11-27T14:12:13Z</time>
      </trkpt>
      <trkpt lat="47.66201" lon="6.18302">
        <ele>265</ele>
        <time>2020-11-27T14:12:17Z</time>
      </trkpt>
      <trkpt lat="47.66195" lon="6.18302">
        <ele>265.5</ele>
        <time>2020-11-27T14:12:21Z</time>
      </trkpt>
      <trkpt lat="47.66192" lon="6.18297">
        <ele>265.4</ele>
        <time>2020-11-27T14:12:24Z</time>
      </trkpt>
      <trkpt lat="47.66187" lon="6.18294">
        <ele>265.5</ele>
        <time>2020-11-27T14:12:28Z</time>
      </trkpt>
      <trkpt lat="47.66182" lon="6.18292">
        <ele>265.7</ele>
        <time>2020-11-27T14:12:32Z</time>
      </trkpt>
      <trkpt lat="47.66177" lon="6.18289">
        <ele>265.9</ele>
        <time>2020-11-27T14:12:36Z</time>
      </trkpt>
      <trkpt lat="47.66172" lon="6.18286">
        <ele>266</ele>
        <time>2020-11-27T14:12:40Z</time>
      </trkpt>
      <trkpt lat="47.66167" lon="6.18284">
        <ele>266.2</ele>
        <time>2020-11-27T14:12:44Z</time>
      </trkpt>
      <trkpt lat="47.66162" lon="6.18282">
        <ele>266.4</ele>
        <time>2020-11-27T14:12:46Z</time>
      </trkpt>
      <trkpt lat="47.66158" lon="6.18281">
        <ele>266.5</ele>
        <time>2020-11-27T14:12:49Z</time>
      </trkpt>
      <trkpt lat="47.66153" lon="6.18277">
        <ele>266.6</ele>
        <time>2020-11-27T14:12:53Z</time>
      </trkpt>
      <trkpt lat="47.66147" lon="6.18274">
        <ele>266.7</ele>
        <time>2020-11-27T14:12:58Z</time>
      </trkpt>
      <trkpt lat="47.66142" lon="6.1827">
        <ele>266.8</ele>
        <time>2020-11-27T14:13:01Z</time>
      </trkpt>
      <trkpt lat="47.66137" lon="6.18267">
        <ele>266.9</ele>
        <time>2020-11-27T14:13:04Z</time>
      </trkpt>
      <trkpt lat="47.66132" lon="6.18266">
        <ele>267.2</ele>
        <time>2020-11-27T14:13:07Z</time>
      </trkpt>
      <trkpt lat="47.66126" lon="6.18263">
        <ele>267.4</ele>
        <time>2020-11-27T14:13:08Z</time>
      </trkpt>
      <trkpt lat="47.66122" lon="6.18261">
        <ele>267.6</ele>
        <time>2020-11-27T14:13:12Z</time>
      </trkpt>
      <trkpt lat="47.66117" lon="6.18259">
        <ele>267.9</ele>
        <time>2020-11-27T14:13:13Z</time>
      </trkpt>
      <trkpt lat="47.6611" lon="6.18256">
        <ele>268.2</ele>
        <time>2020-11-27T14:13:18Z</time>
      </trkpt>
      <trkpt lat="47.66105" lon="6.18255">
        <ele>268.5</ele>
        <time>2020-11-27T14:13:20Z</time>
      </trkpt>
      <trkpt lat="47.66099" lon="6.18253">
        <ele>268.9</ele>
        <time>2020-11-27T14:13:23Z</time>
      </trkpt>
      <trkpt lat="47.66094" lon="6.18252">
        <ele>269.3</ele>
        <time>2020-11-27T14:13:25Z</time>
      </trkpt>
      <trkpt lat="47.66089" lon="6.18252">
        <ele>269.6</ele>
        <time>2020-11-27T14:13:27Z</time>
      </trkpt>
      <trkpt lat="47.66085" lon="6.18251">
        <ele>269.9</ele>
        <time>2020-11-27T14:13:29Z</time>
      </trkpt>
      <trkpt lat="47.6608" lon="6.1825">
        <ele>270</ele>
        <time>2020-11-27T14:13:29Z</time>
      </trkpt>
      <trkpt lat="47.66075" lon="6.1825">
        <ele>270</ele>
        <time>2020-11-27T14:13:31Z</time>
      </trkpt>
      <trkpt lat="47.6607" lon="6.18251">
        <ele>270.1</ele>
        <time>2020-11-27T14:13:35Z</time>
      </trkpt>
      <trkpt lat="47.66065" lon="6.1825">
        <ele>270</ele>
        <time>2020-11-27T14:13:37Z</time>
      </trkpt>
      <trkpt lat="47.66059" lon="6.18251">
        <ele>270</ele>
        <time>2020-11-27T14:13:39Z</time>
      </trkpt>
      <trkpt lat="47.66055" lon="6.18251">
        <ele>270.1</ele>
        <time>2020-11-27T14:13:41Z</time>
      </trkpt>
      <trkpt lat="47.66048" lon="6.18251">
        <ele>270.1</ele>
        <time>2020-11-27T14:13:44Z</time>
      </trkpt>
      <trkpt lat="47.66043" lon="6.18251">
        <ele>270.1</ele>
        <time>2020-11-27T14:13:46Z</time>
      </trkpt>
      <trkpt lat="47.66038" lon="6.18252">
        <ele>270.1</ele>
        <time>2020-11-27T14:13:48Z</time>
      </trkpt>
      <trkpt lat="47.66032" lon="6.18252">
        <ele>270.1</ele>
        <time>2020-11-27T14:13:49Z</time>
      </trkpt>
      <trkpt lat="47.66026" lon="6.18253">
        <ele>270.2</ele>
        <time>2020-11-27T14:13:53Z</time>
      </trkpt>
      <trkpt lat="47.66021" lon="6.18254">
        <ele>270.2</ele>
        <time>2020-11-27T14:13:55Z</time>
      </trkpt>
      <trkpt lat="47.66015" lon="6.1825">
        <ele>270</ele>
        <time>2020-11-27T14:13:58Z</time>
      </trkpt>
      <trkpt lat="47.66011" lon="6.18245">
        <ele>269.4</ele>
        <time>2020-11-27T14:14:00Z</time>
      </trkpt>
      <trkpt lat="47.66006" lon="6.1824">
        <ele>268.8</ele>
        <time>2020-11-27T14:14:02Z</time>
      </trkpt>
      <trkpt lat="47.65998" lon="6.18235">
        <ele>268.2</ele>
        <time>2020-11-27T14:14:04Z</time>
      </trkpt>
      <trkpt lat="47.65994" lon="6.18234">
        <ele>267.9</ele>
        <time>2020-11-27T14:14:05Z</time>
      </trkpt>
      <trkpt lat="47.65986" lon="6.18231">
        <ele>267.4</ele>
        <time>2020-11-27T14:14:06Z</time>
      </trkpt>
      <trkpt lat="47.6598" lon="6.1823">
        <ele>267.1</ele>
        <time>2020-11-27T14:14:07Z</time>
      </trkpt>
      <trkpt lat="47.65974" lon="6.18228">
        <ele>266.8</ele>
        <time>2020-11-27T14:14:08Z</time>
      </trkpt>
      <trkpt lat="47.65969" lon="6.18226">
        <ele>266.4</ele>
        <time>2020-11-27T14:14:09Z</time>
      </trkpt>
      <trkpt lat="47.65963" lon="6.18224">
        <ele>266.1</ele>
        <time>2020-11-27T14:14:10Z</time>
      </trkpt>
      <trkpt lat="47.65959" lon="6.18222">
        <ele>265.8</ele>
        <time>2020-11-27T14:14:11Z</time>
      </trkpt>
      <trkpt lat="47.65954" lon="6.18219">
        <ele>265.5</ele>
        <time>2020-11-27T14:14:12Z</time>
      </trkpt>
      <trkpt lat="47.6595" lon="6.18216">
        <ele>265.1</ele>
        <time>2020-11-27T14:14:13Z</time>
      </trkpt>
      <trkpt lat="47.65946" lon="6.18211">
        <ele>264.6</ele>
        <time>2020-11-27T14:14:14Z</time>
      </trkpt>
      <trkpt lat="47.65939" lon="6.18205">
        <ele>263.9</ele>
        <time>2020-11-27T14:14:16Z</time>
      </trkpt>
      <trkpt lat="47.6593" lon="6.18201">
        <ele>263.6</ele>
        <time>2020-11-27T14:14:18Z</time>
      </trkpt>
      <trkpt lat="47.65926" lon="6.182">
        <ele>263.4</ele>
        <time>2020-11-27T14:14:19Z</time>
      </trkpt>
      <trkpt lat="47.65921" lon="6.18198">
        <ele>263.3</ele>
        <time>2020-11-27T14:14:20Z</time>
      </trkpt>
      <trkpt lat="47.65916" lon="6.18197">
        <ele>263.2</ele>
        <time>2020-11-27T14:14:21Z</time>
      </trkpt>
      <trkpt lat="47.65912" lon="6.18195">
        <ele>263</ele>
        <time>2020-11-27T14:14:22Z</time>
      </trkpt>
      <trkpt lat="47.65907" lon="6.18193">
        <ele>262.8</ele>
        <time>2020-11-27T14:14:23Z</time>
      </trkpt>
      <trkpt lat="47.65902" lon="6.18192">
        <ele>262.7</ele>
        <time>2020-11-27T14:14:24Z</time>
      </trkpt>
      <trkpt lat="47.65894" lon="6.1819">
        <ele>262.5</ele>
        <time>2020-11-27T14:14:26Z</time>
      </trkpt>
      <trkpt lat="47.65887" lon="6.18188">
        <ele>262.4</ele>
        <time>2020-11-27T14:14:28Z</time>
      </trkpt>
      <trkpt lat="47.65879" lon="6.18186">
        <ele>262.2</ele>
        <time>2020-11-27T14:14:30Z</time>
      </trkpt>
      <trkpt lat="47.65873" lon="6.18185">
        <ele>262.1</ele>
        <time>2020-11-27T14:14:32Z</time>
      </trkpt>
      <trkpt lat="47.65867" lon="6.18184">
        <ele>262</ele>
        <time>2020-11-27T14:14:34Z</time>
      </trkpt>
      <trkpt lat="47.65863" lon="6.18182">
        <ele>261.9</ele>
        <time>2020-11-27T14:14:36Z</time>
      </trkpt>
      <trkpt lat="47.65859" lon="6.1818">
        <ele>261.8</ele>
        <time>2020-11-27T14:14:38Z</time>
      </trkpt>
      <trkpt lat="47.65852" lon="6.18179">
        <ele>261.7</ele>
        <time>2020-11-27T14:14:41Z</time>
      </trkpt>
      <trkpt lat="47.65848" lon="6.18186">
        <ele>262</ele>
        <time>2020-11-27T14:14:44Z</time>
      </trkpt>
      <trkpt lat="47.65847" lon="6.18193">
        <ele>262.4</ele>
        <time>2020-11-27T14:14:47Z</time>
      </trkpt>
      <trkpt lat="47.65848" lon="6.18202">
        <ele>262.8</ele>
        <time>2020-11-27T14:14:51Z</time>
      </trkpt>
      <trkpt lat="47.65848" lon="6.1821">
        <ele>263.3</ele>
        <time>2020-11-27T14:14:54Z</time>
      </trkpt>
      <trkpt lat="47.65849" lon="6.18218">
        <ele>263.7</ele>
        <time>2020-11-27T14:14:57Z</time>
      </trkpt>
      <trkpt lat="47.65849" lon="6.18226">
        <ele>264.1</ele>
        <time>2020-11-27T14:15:01Z</time>
      </trkpt>
      <trkpt lat="47.65849" lon="6.18234">
        <ele>264.6</ele>
        <time>2020-11-27T14:15:06Z</time>
      </trkpt>
      <trkpt lat="47.65849" lon="6.18243">
        <ele>265</ele>
        <time>2020-11-27T14:15:10Z</time>
      </trkpt>
      <trkpt lat="47.65848" lon="6.1825">
        <ele>265.4</ele>
        <time>2020-11-27T14:15:13Z</time>
      </trkpt>
      <trkpt lat="47.65847" lon="6.18257">
        <ele>265.7</ele>
        <time>2020-11-27T14:15:17Z</time>
      </trkpt>
      <trkpt lat="47.65846" lon="6.18263">
        <ele>266</ele>
        <time>2020-11-27T14:15:20Z</time>
      </trkpt>
      <trkpt lat="47.65845" lon="6.18272">
        <ele>266.5</ele>
        <time>2020-11-27T14:15:24Z</time>
      </trkpt>
      <trkpt lat="47.65845" lon="6.1828">
        <ele>267</ele>
        <time>2020-11-27T14:15:26Z</time>
      </trkpt>
      <trkpt lat="47.65844" lon="6.18286">
        <ele>267.3</ele>
        <time>2020-11-27T14:15:31Z</time>
      </trkpt>
      <trkpt lat="47.65845" lon="6.18294">
        <ele>267.8</ele>
        <time>2020-11-27T14:15:35Z</time>
      </trkpt>
      <trkpt lat="47.65846" lon="6.18301">
        <ele>268.2</ele>
        <time>2020-11-27T14:15:37Z</time>
      </trkpt>
      <trkpt lat="47.65846" lon="6.18309">
        <ele>268.6</ele>
        <time>2020-11-27T14:15:42Z</time>
      </trkpt>
      <trkpt lat="47.65847" lon="6.18318">
        <ele>269.1</ele>
        <time>2020-11-27T14:15:45Z</time>
      </trkpt>
      <trkpt lat="47.65847" lon="6.18326">
        <ele>269.6</ele>
        <time>2020-11-27T14:15:49Z</time>
      </trkpt>
      <trkpt lat="47.65847" lon="6.18333">
        <ele>270</ele>
        <time>2020-11-27T14:15:53Z</time>
      </trkpt>
      <trkpt lat="47.65849" lon="6.18341">
        <ele>270.5</ele>
        <time>2020-11-27T14:15:57Z</time>
      </trkpt>
      <trkpt lat="47.6585" lon="6.18347">
        <ele>270.9</ele>
        <time>2020-11-27T14:16:01Z</time>
      </trkpt>
      <trkpt lat="47.65852" lon="6.18355">
        <ele>271.4</ele>
        <time>2020-11-27T14:16:05Z</time>
      </trkpt>
      <trkpt lat="47.65853" lon="6.18363">
        <ele>271.9</ele>
        <time>2020-11-27T14:16:07Z</time>
      </trkpt>
      <trkpt lat="47.65854" lon="6.18371">
        <ele>272.5</ele>
        <time>2020-11-27T14:16:13Z</time>
      </trkpt>
      <trkpt lat="47.65855" lon="6.18378">
        <ele>273</ele>
        <time>2020-11-27T14:16:17Z</time>
      </trkpt>
      <trkpt lat="47.65856" lon="6.18385">
        <ele>273.4</ele>
        <time>2020-11-27T14:16:19Z</time>
      </trkpt>
      <trkpt lat="47.65858" lon="6.18392">
        <ele>273.8</ele>
        <time>2020-11-27T14:16:23Z</time>
      </trkpt>
      <trkpt lat="47.65861" lon="6.184">
        <ele>274.2</ele>
        <time>2020-11-27T14:16:29Z</time>
      </trkpt>
      <trkpt lat="47.65862" lon="6.18407">
        <ele>274.7</ele>
        <time>2020-11-27T14:16:31Z</time>
      </trkpt>
      <trkpt lat="47.65862" lon="6.18414">
        <ele>275.1</ele>
        <time>2020-11-27T14:16:37Z</time>
      </trkpt>
      <trkpt lat="47.65863" lon="6.18421">
        <ele>275.8</ele>
        <time>2020-11-27T14:16:42Z</time>
      </trkpt>
      <trkpt lat="47.65865" lon="6.18428">
        <ele>276.5</ele>
        <time>2020-11-27T14:16:47Z</time>
      </trkpt>
      <trkpt lat="47.65868" lon="6.18433">
        <ele>276.9</ele>
        <time>2020-11-27T14:16:50Z</time>
      </trkpt>
      <trkpt lat="47.65872" lon="6.18439">
        <ele>277.5</ele>
        <time>2020-11-27T14:16:54Z</time>
      </trkpt>
      <trkpt lat="47.65874" lon="6.18447">
        <ele>278.3</ele>
        <time>2020-11-27T14:16:58Z</time>
      </trkpt>
      <trkpt lat="47.65877" lon="6.18452">
        <ele>278.8</ele>
        <time>2020-11-27T14:17:02Z</time>
      </trkpt>
      <trkpt lat="47.65881" lon="6.18457">
        <ele>279.1</ele>
        <time>2020-11-27T14:17:06Z</time>
      </trkpt>
      <trkpt lat="47.65884" lon="6.18462">
        <ele>279.6</ele>
        <time>2020-11-27T14:17:11Z</time>
      </trkpt>
      <trkpt lat="47.65886" lon="6.18469">
        <ele>280.2</ele>
        <time>2020-11-27T14:17:15Z</time>
      </trkpt>
      <trkpt lat="47.65891" lon="6.18473">
        <ele>280.4</ele>
        <time>2020-11-27T14:17:20Z</time>
      </trkpt>
      <trkpt lat="47.65893" lon="6.18479">
        <ele>281</ele>
        <time>2020-11-27T14:17:24Z</time>
      </trkpt>
      <trkpt lat="47.65896" lon="6.18485">
        <ele>281.5</ele>
        <time>2020-11-27T14:17:27Z</time>
      </trkpt>
      <trkpt lat="47.65898" lon="6.18492">
        <ele>282.1</ele>
        <time>2020-11-27T14:17:31Z</time>
      </trkpt>
      <trkpt lat="47.65899" lon="6.18499">
        <ele>282.7</ele>
        <time>2020-11-27T14:17:38Z</time>
      </trkpt>
      <trkpt lat="47.65902" lon="6.18504">
        <ele>283.3</ele>
        <time>2020-11-27T14:17:41Z</time>
      </trkpt>
      <trkpt lat="47.65905" lon="6.18511">
        <ele>284</ele>
        <time>2020-11-27T14:17:46Z</time>
      </trkpt>
      <trkpt lat="47.65909" lon="6.18516">
        <ele>284.5</ele>
        <time>2020-11-27T14:17:52Z</time>
      </trkpt>
      <trkpt lat="47.65912" lon="6.18521">
        <ele>285</ele>
        <time>2020-11-27T14:17:56Z</time>
      </trkpt>
      <trkpt lat="47.65912" lon="6.18529">
        <ele>286.1</ele>
        <time>2020-11-27T14:18:00Z</time>
      </trkpt>
      <trkpt lat="47.65911" lon="6.18536">
        <ele>287</ele>
        <time>2020-11-27T14:18:06Z</time>
      </trkpt>
      <trkpt lat="47.65913" lon="6.18542">
        <ele>287.8</ele>
        <time>2020-11-27T14:18:09Z</time>
      </trkpt>
      <trkpt lat="47.65914" lon="6.18548">
        <ele>288.5</ele>
        <time>2020-11-27T14:18:13Z</time>
      </trkpt>
      <trkpt lat="47.65917" lon="6.18555">
        <ele>289.3</ele>
        <time>2020-11-27T14:18:19Z</time>
      </trkpt>
      <trkpt lat="47.6592" lon="6.1856">
        <ele>290</ele>
        <time>2020-11-27T14:18:22Z</time>
      </trkpt>
      <trkpt lat="47.65922" lon="6.18567">
        <ele>290.9</ele>
        <time>2020-11-27T14:18:28Z</time>
      </trkpt>
      <trkpt lat="47.65924" lon="6.18573">
        <ele>291.8</ele>
        <time>2020-11-27T14:18:36Z</time>
      </trkpt>
      <trkpt lat="47.65925" lon="6.18581">
        <ele>292.8</ele>
        <time>2020-11-27T14:18:39Z</time>
      </trkpt>
      <trkpt lat="47.65921" lon="6.18587">
        <ele>293.3</ele>
        <time>2020-11-27T14:18:44Z</time>
      </trkpt>
      <trkpt lat="47.65915" lon="6.18588">
        <ele>293.5</ele>
        <time>2020-11-27T14:18:50Z</time>
      </trkpt>
      <trkpt lat="47.65912" lon="6.18593">
        <ele>294.1</ele>
        <time>2020-11-27T14:18:55Z</time>
      </trkpt>
      <trkpt lat="47.65907" lon="6.18597">
        <ele>294.6</ele>
        <time>2020-11-27T14:19:02Z</time>
      </trkpt>
      <trkpt lat="47.65903" lon="6.18602">
        <ele>295.3</ele>
        <time>2020-11-27T14:19:07Z</time>
      </trkpt>
      <trkpt lat="47.65902" lon="6.18609">
        <ele>295.8</ele>
        <time>2020-11-27T14:19:13Z</time>
      </trkpt>
      <trkpt lat="47.65898" lon="6.18614">
        <ele>296.3</ele>
        <time>2020-11-27T14:19:17Z</time>
      </trkpt>
      <trkpt lat="47.65895" lon="6.1862">
        <ele>296.9</ele>
        <time>2020-11-27T14:19:24Z</time>
      </trkpt>
      <trkpt lat="47.65893" lon="6.18627">
        <ele>297.5</ele>
        <time>2020-11-27T14:19:27Z</time>
      </trkpt>
      <trkpt lat="47.65891" lon="6.18636">
        <ele>298.2</ele>
        <time>2020-11-27T14:19:31Z</time>
      </trkpt>
      <trkpt lat="47.6589" lon="6.18644">
        <ele>298.8</ele>
        <time>2020-11-27T14:19:35Z</time>
      </trkpt>
      <trkpt lat="47.65889" lon="6.18651">
        <ele>299.3</ele>
        <time>2020-11-27T14:19:39Z</time>
      </trkpt>
      <trkpt lat="47.65889" lon="6.18659">
        <ele>299.8</ele>
        <time>2020-11-27T14:19:44Z</time>
      </trkpt>
      <trkpt lat="47.65886" lon="6.18665">
        <ele>300.3</ele>
        <time>2020-11-27T14:19:47Z</time>
      </trkpt>
      <trkpt lat="47.65882" lon="6.18671">
        <ele>300.7</ele>
        <time>2020-11-27T14:19:53Z</time>
      </trkpt>
      <trkpt lat="47.65879" lon="6.18677">
        <ele>301.1</ele>
        <time>2020-11-27T14:19:57Z</time>
      </trkpt>
      <trkpt lat="47.65876" lon="6.18683">
        <ele>301.5</ele>
        <time>2020-11-27T14:20:01Z</time>
      </trkpt>
      <trkpt lat="47.65873" lon="6.18689">
        <ele>301.8</ele>
        <time>2020-11-27T14:20:08Z</time>
      </trkpt>
      <trkpt lat="47.65871" lon="6.18697">
        <ele>302.3</ele>
        <time>2020-11-27T14:20:11Z</time>
      </trkpt>
      <trkpt lat="47.65869" lon="6.18704">
        <ele>302.7</ele>
        <time>2020-11-27T14:20:15Z</time>
      </trkpt>
      <trkpt lat="47.65868" lon="6.18711">
        <ele>303</ele>
        <time>2020-11-27T14:20:19Z</time>
      </trkpt>
      <trkpt lat="47.65867" lon="6.18718">
        <ele>303.5</ele>
        <time>2020-11-27T14:20:23Z</time>
      </trkpt>
      <trkpt lat="47.65866" lon="6.18727">
        <ele>303.9</ele>
        <time>2020-11-27T14:20:28Z</time>
      </trkpt>
      <trkpt lat="47.65866" lon="6.18734">
        <ele>304.3</ele>
        <time>2020-11-27T14:20:31Z</time>
      </trkpt>
      <trkpt lat="47.65866" lon="6.18742">
        <ele>304.7</ele>
        <time>2020-11-27T14:20:35Z</time>
      </trkpt>
      <trkpt lat="47.65866" lon="6.1875">
        <ele>305.2</ele>
        <time>2020-11-27T14:20:39Z</time>
      </trkpt>
      <trkpt lat="47.65865" lon="6.18758">
        <ele>305.2</ele>
        <time>2020-11-27T14:20:43Z</time>
      </trkpt>
      <trkpt lat="47.65867" lon="6.18765">
        <ele>305.3</ele>
        <time>2020-11-27T14:20:46Z</time>
      </trkpt>
      <trkpt lat="47.65868" lon="6.18773">
        <ele>305.4</ele>
        <time>2020-11-27T14:20:49Z</time>
      </trkpt>
      <trkpt lat="47.65869" lon="6.1878">
        <ele>305.6</ele>
        <time>2020-11-27T14:20:51Z</time>
      </trkpt>
      <trkpt lat="47.65872" lon="6.18788">
        <ele>305.8</ele>
        <time>2020-11-27T14:20:54Z</time>
      </trkpt>
      <trkpt lat="47.65874" lon="6.18797">
        <ele>306</ele>
        <time>2020-11-27T14:20:58Z</time>
      </trkpt>
      <trkpt lat="47.65876" lon="6.18803">
        <ele>306.2</ele>
        <time>2020-11-27T14:21:00Z</time>
      </trkpt>
      <trkpt lat="47.65878" lon="6.1881">
        <ele>306.5</ele>
        <time>2020-11-27T14:21:03Z</time>
      </trkpt>
      <trkpt lat="47.65881" lon="6.18817">
        <ele>306.8</ele>
        <time>2020-11-27T14:21:06Z</time>
      </trkpt>
      <trkpt lat="47.65884" lon="6.18824">
        <ele>307.1</ele>
        <time>2020-11-27T14:21:09Z</time>
      </trkpt>
      <trkpt lat="47.65886" lon="6.1883">
        <ele>307.4</ele>
        <time>2020-11-27T14:21:11Z</time>
      </trkpt>
      <trkpt lat="47.65888" lon="6.18837">
        <ele>307.6</ele>
        <time>2020-11-27T14:21:14Z</time>
      </trkpt>
      <trkpt lat="47.65891" lon="6.18843">
        <ele>308</ele>
        <time>2020-11-27T14:21:37Z</time>
      </trkpt>
      <trkpt lat="47.65895" lon="6.18851">
        <ele>308.4</ele>
        <time>2020-11-27T14:21:41Z</time>
      </trkpt>
      <trkpt lat="47.65897" lon="6.18858">
        <ele>308.9</ele>
        <time>2020-11-27T14:21:44Z</time>
      </trkpt>
      <trkpt lat="47.65899" lon="6.18865">
        <ele>309.2</ele>
        <time>2020-11-27T14:21:48Z</time>
      </trkpt>
      <trkpt lat="47.659" lon="6.18872">
        <ele>309.5</ele>
        <time>2020-11-27T14:21:51Z</time>
      </trkpt>
      <trkpt lat="47.65901" lon="6.18879">
        <ele>309.7</ele>
        <time>2020-11-27T14:21:54Z</time>
      </trkpt>
      <trkpt lat="47.65902" lon="6.18887">
        <ele>310</ele>
        <time>2020-11-27T14:21:58Z</time>
      </trkpt>
      <trkpt lat="47.65903" lon="6.18896">
        <ele>310.3</ele>
        <time>2020-11-27T14:22:03Z</time>
      </trkpt>
      <trkpt lat="47.65903" lon="6.18903">
        <ele>310.6</ele>
        <time>2020-11-27T14:22:06Z</time>
      </trkpt>
      <trkpt lat="47.659" lon="6.18908">
        <ele>310.3</ele>
        <time>2020-11-27T14:23:17Z</time>
      </trkpt>
      <trkpt lat="47.65899" lon="6.18916">
        <ele>310.3</ele>
        <time>2020-11-27T14:23:48Z</time>
      </trkpt>
      <trkpt lat="47.65898" lon="6.18924">
        <ele>310</ele>
        <time>2020-11-27T14:23:50Z</time>
      </trkpt>
      <trkpt lat="47.65899" lon="6.18933">
        <ele>310.1</ele>
        <time>2020-11-27T14:23:52Z</time>
      </trkpt>
      <trkpt lat="47.659" lon="6.18943">
        <ele>310.2</ele>
        <time>2020-11-27T14:23:55Z</time>
      </trkpt>
      <trkpt lat="47.65902" lon="6.18951">
        <ele>310.3</ele>
        <time>2020-11-27T14:23:57Z</time>
      </trkpt>
      <trkpt lat="47.65903" lon="6.18958">
        <ele>310.4</ele>
        <time>2020-11-27T14:24:00Z</time>
      </trkpt>
      <trkpt lat="47.65904" lon="6.18967">
        <ele>310.5</ele>
        <time>2020-11-27T14:24:02Z</time>
      </trkpt>
      <trkpt lat="47.65905" lon="6.18975">
        <ele>310.5</ele>
        <time>2020-11-27T14:24:03Z</time>
      </trkpt>
      <trkpt lat="47.65905" lon="6.18982">
        <ele>310.5</ele>
        <time>2020-11-27T14:24:06Z</time>
      </trkpt>
      <trkpt lat="47.65905" lon="6.18989">
        <ele>310.5</ele>
        <time>2020-11-27T14:24:07Z</time>
      </trkpt>
      <trkpt lat="47.65906" lon="6.18997">
        <ele>310.4</ele>
        <time>2020-11-27T14:24:10Z</time>
      </trkpt>
      <trkpt lat="47.65906" lon="6.19006">
        <ele>310.5</ele>
        <time>2020-11-27T14:24:12Z</time>
      </trkpt>
      <trkpt lat="47.65905" lon="6.19013">
        <ele>310.6</ele>
        <time>2020-11-27T14:24:15Z</time>
      </trkpt>
      <trkpt lat="47.65905" lon="6.19021">
        <ele>310.7</ele>
        <time>2020-11-27T14:24:17Z</time>
      </trkpt>
      <trkpt lat="47.65904" lon="6.19028">
        <ele>310.8</ele>
        <time>2020-11-27T14:24:19Z</time>
      </trkpt>
      <trkpt lat="47.65902" lon="6.19035">
        <ele>310.7</ele>
        <time>2020-11-27T14:24:22Z</time>
      </trkpt>
      <trkpt lat="47.65899" lon="6.1904">
        <ele>310.2</ele>
        <time>2020-11-27T14:24:26Z</time>
      </trkpt>
      <trkpt lat="47.65894" lon="6.19041">
        <ele>309.5</ele>
        <time>2020-11-27T14:24:28Z</time>
      </trkpt>
      <trkpt lat="47.65888" lon="6.19042">
        <ele>308.6</ele>
        <time>2020-11-27T14:24:31Z</time>
      </trkpt>
      <trkpt lat="47.65884" lon="6.19045">
        <ele>307.9</ele>
        <time>2020-11-27T14:24:33Z</time>
      </trkpt>
      <trkpt lat="47.65878" lon="6.19051">
        <ele>307.2</ele>
        <time>2020-11-27T14:24:36Z</time>
      </trkpt>
      <trkpt lat="47.65874" lon="6.19057">
        <ele>306.6</ele>
        <time>2020-11-27T14:24:38Z</time>
      </trkpt>
      <trkpt lat="47.65872" lon="6.19064">
        <ele>306.2</ele>
        <time>2020-11-27T14:24:40Z</time>
      </trkpt>
      <trkpt lat="47.65869" lon="6.19071">
        <ele>305.8</ele>
        <time>2020-11-27T14:24:43Z</time>
      </trkpt>
      <trkpt lat="47.65866" lon="6.19078">
        <ele>305.4</ele>
        <time>2020-11-27T14:24:45Z</time>
      </trkpt>
      <trkpt lat="47.65863" lon="6.19084">
        <ele>305</ele>
        <time>2020-11-27T14:24:48Z</time>
      </trkpt>
      <trkpt lat="47.6586" lon="6.19092">
        <ele>304.5</ele>
        <time>2020-11-27T14:24:50Z</time>
      </trkpt>
      <trkpt lat="47.65857" lon="6.19099">
        <ele>304</ele>
        <time>2020-11-27T14:24:51Z</time>
      </trkpt>
      <trkpt lat="47.65855" lon="6.19105">
        <ele>303.6</ele>
        <time>2020-11-27T14:24:54Z</time>
      </trkpt>
      <trkpt lat="47.65853" lon="6.19112">
        <ele>303.3</ele>
        <time>2020-11-27T14:24:55Z</time>
      </trkpt>
      <trkpt lat="47.6585" lon="6.19119">
        <ele>302.8</ele>
        <time>2020-11-27T14:24:57Z</time>
      </trkpt>
      <trkpt lat="47.65847" lon="6.19127">
        <ele>302.4</ele>
        <time>2020-11-27T14:24:59Z</time>
      </trkpt>
      <trkpt lat="47.65844" lon="6.19134">
        <ele>301.8</ele>
        <time>2020-11-27T14:25:02Z</time>
      </trkpt>
      <trkpt lat="47.65842" lon="6.1914">
        <ele>301.4</ele>
        <time>2020-11-27T14:25:04Z</time>
      </trkpt>
      <trkpt lat="47.65839" lon="6.19148">
        <ele>301</ele>
        <time>2020-11-27T14:25:08Z</time>
      </trkpt>
      <trkpt lat="47.65836" lon="6.19156">
        <ele>300.5</ele>
        <time>2020-11-27T14:25:11Z</time>
      </trkpt>
      <trkpt lat="47.65834" lon="6.19164">
        <ele>300.1</ele>
        <time>2020-11-27T14:25:14Z</time>
      </trkpt>
      <trkpt lat="47.65831" lon="6.19171">
        <ele>299.8</ele>
        <time>2020-11-27T14:25:16Z</time>
      </trkpt>
      <trkpt lat="47.65828" lon="6.19177">
        <ele>299.5</ele>
        <time>2020-11-27T14:25:19Z</time>
      </trkpt>
      <trkpt lat="47.65825" lon="6.19182">
        <ele>299.2</ele>
        <time>2020-11-27T14:25:20Z</time>
      </trkpt>
      <trkpt lat="47.65821" lon="6.19187">
        <ele>298.8</ele>
        <time>2020-11-27T14:25:22Z</time>
      </trkpt>
      <trkpt lat="47.65816" lon="6.19193">
        <ele>298.3</ele>
        <time>2020-11-27T14:25:24Z</time>
      </trkpt>
      <trkpt lat="47.6581" lon="6.19198">
        <ele>297.7</ele>
        <time>2020-11-27T14:25:26Z</time>
      </trkpt>
      <trkpt lat="47.65803" lon="6.19204">
        <ele>297.1</ele>
        <time>2020-11-27T14:25:28Z</time>
      </trkpt>
      <trkpt lat="47.65798" lon="6.19209">
        <ele>296.5</ele>
        <time>2020-11-27T14:25:30Z</time>
      </trkpt>
      <trkpt lat="47.65792" lon="6.19212">
        <ele>296</ele>
        <time>2020-11-27T14:25:32Z</time>
      </trkpt>
      <trkpt lat="47.65788" lon="6.19216">
        <ele>295.5</ele>
        <time>2020-11-27T14:25:34Z</time>
      </trkpt>
      <trkpt lat="47.65784" lon="6.19219">
        <ele>295.1</ele>
        <time>2020-11-27T14:25:36Z</time>
      </trkpt>
      <trkpt lat="47.6578" lon="6.19223">
        <ele>294.6</ele>
        <time>2020-11-27T14:25:40Z</time>
      </trkpt>
      <trkpt lat="47.65774" lon="6.19227">
        <ele>294</ele>
        <time>2020-11-27T14:25:43Z</time>
      </trkpt>
      <trkpt lat="47.65768" lon="6.1923">
        <ele>293.4</ele>
        <time>2020-11-27T14:25:47Z</time>
      </trkpt>
      <trkpt lat="47.65764" lon="6.19234">
        <ele>292.8</ele>
        <time>2020-11-27T14:25:49Z</time>
      </trkpt>
      <trkpt lat="47.65759" lon="6.1924">
        <ele>292.2</ele>
        <time>2020-11-27T14:25:53Z</time>
      </trkpt>
      <trkpt lat="47.65755" lon="6.19246">
        <ele>291.6</ele>
        <time>2020-11-27T14:25:55Z</time>
      </trkpt>
      <trkpt lat="47.6575" lon="6.19253">
        <ele>291</ele>
        <time>2020-11-27T14:25:58Z</time>
      </trkpt>
      <trkpt lat="47.65747" lon="6.19258">
        <ele>290.8</ele>
        <time>2020-11-27T14:25:59Z</time>
      </trkpt>
      <trkpt lat="47.6574" lon="6.19268">
        <ele>290.4</ele>
        <time>2020-11-27T14:26:01Z</time>
      </trkpt>
      <trkpt lat="47.65737" lon="6.19272">
        <ele>290.2</ele>
        <time>2020-11-27T14:26:02Z</time>
      </trkpt>
      <trkpt lat="47.65733" lon="6.19277">
        <ele>290</ele>
        <time>2020-11-27T14:26:03Z</time>
      </trkpt>
      <trkpt lat="47.65726" lon="6.19286">
        <ele>289.6</ele>
        <time>2020-11-27T14:26:05Z</time>
      </trkpt>
      <trkpt lat="47.65722" lon="6.1929">
        <ele>289.3</ele>
        <time>2020-11-27T14:26:06Z</time>
      </trkpt>
      <trkpt lat="47.65715" lon="6.19297">
        <ele>288.9</ele>
        <time>2020-11-27T14:26:08Z</time>
      </trkpt>
      <trkpt lat="47.65711" lon="6.19302">
        <ele>288.7</ele>
        <time>2020-11-27T14:26:09Z</time>
      </trkpt>
      <trkpt lat="47.65707" lon="6.19307">
        <ele>288.4</ele>
        <time>2020-11-27T14:26:11Z</time>
      </trkpt>
      <trkpt lat="47.65703" lon="6.19314">
        <ele>288.1</ele>
        <time>2020-11-27T14:26:13Z</time>
      </trkpt>
      <trkpt lat="47.65698" lon="6.19321">
        <ele>287.8</ele>
        <time>2020-11-27T14:26:15Z</time>
      </trkpt>
      <trkpt lat="47.65695" lon="6.19324">
        <ele>287.5</ele>
        <time>2020-11-27T14:26:17Z</time>
      </trkpt>
      <trkpt lat="47.65691" lon="6.19329">
        <ele>287.3</ele>
        <time>2020-11-27T14:26:18Z</time>
      </trkpt>
      <trkpt lat="47.65687" lon="6.19336">
        <ele>287</ele>
        <time>2020-11-27T14:26:20Z</time>
      </trkpt>
      <trkpt lat="47.65683" lon="6.19341">
        <ele>286.8</ele>
        <time>2020-11-27T14:26:22Z</time>
      </trkpt>
      <trkpt lat="47.65678" lon="6.19346">
        <ele>286.6</ele>
        <time>2020-11-27T14:26:24Z</time>
      </trkpt>
      <trkpt lat="47.65674" lon="6.19352">
        <ele>286.4</ele>
        <time>2020-11-27T14:26:26Z</time>
      </trkpt>
      <trkpt lat="47.6567" lon="6.19357">
        <ele>286.2</ele>
        <time>2020-11-27T14:26:28Z</time>
      </trkpt>
      <trkpt lat="47.65664" lon="6.19363">
        <ele>286</ele>
        <time>2020-11-27T14:26:30Z</time>
      </trkpt>
      <trkpt lat="47.65659" lon="6.19369">
        <ele>285.9</ele>
        <time>2020-11-27T14:26:32Z</time>
      </trkpt>
      <trkpt lat="47.65655" lon="6.19374">
        <ele>285.9</ele>
        <time>2020-11-27T14:26:34Z</time>
      </trkpt>
      <trkpt lat="47.65651" lon="6.19379">
        <ele>285.8</ele>
        <time>2020-11-27T14:26:35Z</time>
      </trkpt>
      <trkpt lat="47.65647" lon="6.19385">
        <ele>285.8</ele>
        <time>2020-11-27T14:26:36Z</time>
      </trkpt>
      <trkpt lat="47.65643" lon="6.19392">
        <ele>285.8</ele>
        <time>2020-11-27T14:26:38Z</time>
      </trkpt>
      <trkpt lat="47.65637" lon="6.19401">
        <ele>285.9</ele>
        <time>2020-11-27T14:26:40Z</time>
      </trkpt>
      <trkpt lat="47.65633" lon="6.19406">
        <ele>285.9</ele>
        <time>2020-11-27T14:26:42Z</time>
      </trkpt>
      <trkpt lat="47.65628" lon="6.19414">
        <ele>286</ele>
        <time>2020-11-27T14:26:45Z</time>
      </trkpt>
      <trkpt lat="47.65624" lon="6.19421">
        <ele>286.1</ele>
        <time>2020-11-27T14:26:47Z</time>
      </trkpt>
      <trkpt lat="47.65621" lon="6.19426">
        <ele>286.2</ele>
        <time>2020-11-27T14:26:49Z</time>
      </trkpt>
      <trkpt lat="47.65618" lon="6.19431">
        <ele>286.3</ele>
        <time>2020-11-27T14:26:50Z</time>
      </trkpt>
      <trkpt lat="47.65614" lon="6.19436">
        <ele>286.4</ele>
        <time>2020-11-27T14:26:53Z</time>
      </trkpt>
      <trkpt lat="47.65611" lon="6.19441">
        <ele>286.6</ele>
        <time>2020-11-27T14:26:55Z</time>
      </trkpt>
      <trkpt lat="47.65607" lon="6.19447">
        <ele>286.8</ele>
        <time>2020-11-27T14:26:58Z</time>
      </trkpt>
      <trkpt lat="47.65602" lon="6.19451">
        <ele>286.9</ele>
        <time>2020-11-27T14:27:01Z</time>
      </trkpt>
      <trkpt lat="47.65597" lon="6.19453">
        <ele>287.1</ele>
        <time>2020-11-27T14:27:05Z</time>
      </trkpt>
      <trkpt lat="47.65591" lon="6.19457">
        <ele>287.3</ele>
        <time>2020-11-27T14:27:07Z</time>
      </trkpt>
      <trkpt lat="47.65587" lon="6.19459">
        <ele>287.5</ele>
        <time>2020-11-27T14:27:09Z</time>
      </trkpt>
      <trkpt lat="47.65581" lon="6.19462">
        <ele>287.6</ele>
        <time>2020-11-27T14:27:11Z</time>
      </trkpt>
      <trkpt lat="47.65576" lon="6.19464">
        <ele>287.6</ele>
        <time>2020-11-27T14:27:14Z</time>
      </trkpt>
      <trkpt lat="47.65572" lon="6.19469">
        <ele>287.7</ele>
        <time>2020-11-27T14:27:17Z</time>
      </trkpt>
      <trkpt lat="47.65568" lon="6.19473">
        <ele>287.7</ele>
        <time>2020-11-27T14:27:20Z</time>
      </trkpt>
      <trkpt lat="47.65563" lon="6.19477">
        <ele>287.8</ele>
        <time>2020-11-27T14:27:23Z</time>
      </trkpt>
      <trkpt lat="47.65559" lon="6.1948">
        <ele>287.8</ele>
        <time>2020-11-27T14:27:27Z</time>
      </trkpt>
      <trkpt lat="47.65555" lon="6.19485">
        <ele>287.8</ele>
        <time>2020-11-27T14:27:30Z</time>
      </trkpt>
      <trkpt lat="47.65551" lon="6.19488">
        <ele>287.8</ele>
        <time>2020-11-27T14:27:33Z</time>
      </trkpt>
      <trkpt lat="47.65547" lon="6.1949">
        <ele>287.8</ele>
        <time>2020-11-27T14:27:37Z</time>
      </trkpt>
      <trkpt lat="47.65543" lon="6.19494">
        <ele>287.9</ele>
        <time>2020-11-27T14:27:41Z</time>
      </trkpt>
      <trkpt lat="47.6554" lon="6.195">
        <ele>288</ele>
        <time>2020-11-27T14:27:44Z</time>
      </trkpt>
      <trkpt lat="47.65536" lon="6.19508">
        <ele>288</ele>
        <time>2020-11-27T14:27:48Z</time>
      </trkpt>
      <trkpt lat="47.65533" lon="6.19512">
        <ele>288</ele>
        <time>2020-11-27T14:27:49Z</time>
      </trkpt>
      <trkpt lat="47.65529" lon="6.19517">
        <ele>288</ele>
        <time>2020-11-27T14:27:51Z</time>
      </trkpt>
      <trkpt lat="47.65525" lon="6.19525">
        <ele>288</ele>
        <time>2020-11-27T14:27:54Z</time>
      </trkpt>
      <trkpt lat="47.65522" lon="6.19531">
        <ele>288</ele>
        <time>2020-11-27T14:27:55Z</time>
      </trkpt>
      <trkpt lat="47.65516" lon="6.19537">
        <ele>287.9</ele>
        <time>2020-11-27T14:27:58Z</time>
      </trkpt>
      <trkpt lat="47.6551" lon="6.1954">
        <ele>287.8</ele>
        <time>2020-11-27T14:28:00Z</time>
      </trkpt>
      <trkpt lat="47.65504" lon="6.19541">
        <ele>287.6</ele>
        <time>2020-11-27T14:28:02Z</time>
      </trkpt>
      <trkpt lat="47.65499" lon="6.19542">
        <ele>287.4</ele>
        <time>2020-11-27T14:28:03Z</time>
      </trkpt>
      <trkpt lat="47.65493" lon="6.19545">
        <ele>287</ele>
        <time>2020-11-27T14:28:05Z</time>
      </trkpt>
      <trkpt lat="47.65489" lon="6.19547">
        <ele>286.6</ele>
        <time>2020-11-27T14:28:08Z</time>
      </trkpt>
      <trkpt lat="47.65491" lon="6.19553">
        <ele>286.9</ele>
        <time>2020-11-27T14:28:18Z</time>
      </trkpt>
      <trkpt lat="47.6549" lon="6.1956">
        <ele>286.9</ele>
        <time>2020-11-27T14:28:27Z</time>
      </trkpt>
      <trkpt lat="47.65486" lon="6.19565">
        <ele>286.6</ele>
        <time>2020-11-27T14:28:31Z</time>
      </trkpt>
      <trkpt lat="47.65482" lon="6.19572">
        <ele>286.3</ele>
        <time>2020-11-27T14:28:33Z</time>
      </trkpt>
      <trkpt lat="47.65478" lon="6.19577">
        <ele>286.1</ele>
        <time>2020-11-27T14:28:35Z</time>
      </trkpt>
      <trkpt lat="47.65475" lon="6.19585">
        <ele>285.9</ele>
        <time>2020-11-27T14:28:37Z</time>
      </trkpt>
      <trkpt lat="47.65472" lon="6.19593">
        <ele>285.4</ele>
        <time>2020-11-27T14:28:39Z</time>
      </trkpt>
      <trkpt lat="47.65469" lon="6.19599">
        <ele>285</ele>
        <time>2020-11-27T14:28:40Z</time>
      </trkpt>
      <trkpt lat="47.65466" lon="6.19608">
        <ele>284.5</ele>
        <time>2020-11-27T14:28:42Z</time>
      </trkpt>
      <trkpt lat="47.65462" lon="6.19616">
        <ele>284</ele>
        <time>2020-11-27T14:28:44Z</time>
      </trkpt>
      <trkpt lat="47.65457" lon="6.19622">
        <ele>283.5</ele>
        <time>2020-11-27T14:28:45Z</time>
      </trkpt>
      <trkpt lat="47.65452" lon="6.19628">
        <ele>282.9</ele>
        <time>2020-11-27T14:28:47Z</time>
      </trkpt>
      <trkpt lat="47.65446" lon="6.19632">
        <ele>282.3</ele>
        <time>2020-11-27T14:28:48Z</time>
      </trkpt>
      <trkpt lat="47.65438" lon="6.19639">
        <ele>281.5</ele>
        <time>2020-11-27T14:28:50Z</time>
      </trkpt>
      <trkpt lat="47.65432" lon="6.19641">
        <ele>280.9</ele>
        <time>2020-11-27T14:28:52Z</time>
      </trkpt>
      <trkpt lat="47.65425" lon="6.1964">
        <ele>280.3</ele>
        <time>2020-11-27T14:28:54Z</time>
      </trkpt>
      <trkpt lat="47.65417" lon="6.19638">
        <ele>279.7</ele>
        <time>2020-11-27T14:28:56Z</time>
      </trkpt>
      <trkpt lat="47.65412" lon="6.19635">
        <ele>279.2</ele>
        <time>2020-11-27T14:28:58Z</time>
      </trkpt>
      <trkpt lat="47.65406" lon="6.19631">
        <ele>278.8</ele>
        <time>2020-11-27T14:29:00Z</time>
      </trkpt>
      <trkpt lat="47.65401" lon="6.19625">
        <ele>278.4</ele>
        <time>2020-11-27T14:29:02Z</time>
      </trkpt>
      <trkpt lat="47.65398" lon="6.19621">
        <ele>278.2</ele>
        <time>2020-11-27T14:29:04Z</time>
      </trkpt>
      <trkpt lat="47.65393" lon="6.19617">
        <ele>277.8</ele>
        <time>2020-11-27T14:29:06Z</time>
      </trkpt>
      <trkpt lat="47.65387" lon="6.19613">
        <ele>277.3</ele>
        <time>2020-11-27T14:29:09Z</time>
      </trkpt>
      <trkpt lat="47.65382" lon="6.19611">
        <ele>276.9</ele>
        <time>2020-11-27T14:29:11Z</time>
      </trkpt>
      <trkpt lat="47.65377" lon="6.19609">
        <ele>276.4</ele>
        <time>2020-11-27T14:29:12Z</time>
      </trkpt>
      <trkpt lat="47.65371" lon="6.19607">
        <ele>275.9</ele>
        <time>2020-11-27T14:29:15Z</time>
      </trkpt>
      <trkpt lat="47.65367" lon="6.19608">
        <ele>275.5</ele>
        <time>2020-11-27T14:29:17Z</time>
      </trkpt>
      <trkpt lat="47.65362" lon="6.1961">
        <ele>274.9</ele>
        <time>2020-11-27T14:29:18Z</time>
      </trkpt>
      <trkpt lat="47.65357" lon="6.19611">
        <ele>274.4</ele>
        <time>2020-11-27T14:29:20Z</time>
      </trkpt>
      <trkpt lat="47.65351" lon="6.19612">
        <ele>273.8</ele>
        <time>2020-11-27T14:29:22Z</time>
      </trkpt>
      <trkpt lat="47.65347" lon="6.19612">
        <ele>273.3</ele>
        <time>2020-11-27T14:29:25Z</time>
      </trkpt>
      <trkpt lat="47.65341" lon="6.19611">
        <ele>272.8</ele>
        <time>2020-11-27T14:29:27Z</time>
      </trkpt>
      <trkpt lat="47.65337" lon="6.19608">
        <ele>272.4</ele>
        <time>2020-11-27T14:29:30Z</time>
      </trkpt>
      <trkpt lat="47.65331" lon="6.19607">
        <ele>272</ele>
        <time>2020-11-27T14:29:33Z</time>
      </trkpt>
      <trkpt lat="47.65328" lon="6.19612">
        <ele>271.7</ele>
        <time>2020-11-27T14:29:38Z</time>
      </trkpt>
      <trkpt lat="47.6533" lon="6.1962">
        <ele>271.5</ele>
        <time>2020-11-27T14:29:42Z</time>
      </trkpt>
      <trkpt lat="47.6533" lon="6.19628">
        <ele>271.2</ele>
        <time>2020-11-27T14:29:47Z</time>
      </trkpt>
      <trkpt lat="47.65333" lon="6.19634">
        <ele>271.1</ele>
        <time>2020-11-27T14:29:50Z</time>
      </trkpt>
      <trkpt lat="47.65337" lon="6.19638">
        <ele>271.4</ele>
        <time>2020-11-27T14:29:54Z</time>
      </trkpt>
      <trkpt lat="47.65341" lon="6.19644">
        <ele>271.7</ele>
        <time>2020-11-27T14:29:57Z</time>
      </trkpt>
      <trkpt lat="47.65343" lon="6.19651">
        <ele>271.6</ele>
        <time>2020-11-27T14:30:00Z</time>
      </trkpt>
      <trkpt lat="47.65347" lon="6.19657">
        <ele>271.8</ele>
        <time>2020-11-27T14:30:03Z</time>
      </trkpt>
      <trkpt lat="47.65353" lon="6.19661">
        <ele>272.3</ele>
        <time>2020-11-27T14:30:06Z</time>
      </trkpt>
      <trkpt lat="47.65359" lon="6.19667">
        <ele>272.8</ele>
        <time>2020-11-27T14:30:09Z</time>
      </trkpt>
      <trkpt lat="47.65363" lon="6.1967">
        <ele>273.1</ele>
        <time>2020-11-27T14:30:11Z</time>
      </trkpt>
      <trkpt lat="47.65367" lon="6.19674">
        <ele>273.3</ele>
        <time>2020-11-27T14:30:13Z</time>
      </trkpt>
      <trkpt lat="47.65373" lon="6.19681">
        <ele>273.6</ele>
        <time>2020-11-27T14:30:15Z</time>
      </trkpt>
      <trkpt lat="47.65377" lon="6.19686">
        <ele>273.8</ele>
        <time>2020-11-27T14:30:17Z</time>
      </trkpt>
      <trkpt lat="47.6538" lon="6.19692">
        <ele>273.8</ele>
        <time>2020-11-27T14:30:19Z</time>
      </trkpt>
      <trkpt lat="47.65382" lon="6.19698">
        <ele>273.7</ele>
        <time>2020-11-27T14:30:20Z</time>
      </trkpt>
      <trkpt lat="47.65383" lon="6.19711">
        <ele>273.2</ele>
        <time>2020-11-27T14:30:22Z</time>
      </trkpt>
      <trkpt lat="47.65383" lon="6.1972">
        <ele>272.8</ele>
        <time>2020-11-27T14:30:23Z</time>
      </trkpt>
      <trkpt lat="47.65384" lon="6.19727">
        <ele>272.5</ele>
        <time>2020-11-27T14:30:24Z</time>
      </trkpt>
      <trkpt lat="47.65384" lon="6.19737">
        <ele>272.1</ele>
        <time>2020-11-27T14:30:26Z</time>
      </trkpt>
      <trkpt lat="47.65385" lon="6.19744">
        <ele>271.9</ele>
        <time>2020-11-27T14:30:28Z</time>
      </trkpt>
      <trkpt lat="47.65388" lon="6.19751">
        <ele>271.8</ele>
        <time>2020-11-27T14:30:31Z</time>
      </trkpt>
      <trkpt lat="47.6539" lon="6.19758">
        <ele>271.7</ele>
        <time>2020-11-27T14:30:33Z</time>
      </trkpt>
      <trkpt lat="47.65392" lon="6.19765">
        <ele>271.6</ele>
        <time>2020-11-27T14:30:34Z</time>
      </trkpt>
      <trkpt lat="47.65393" lon="6.19773">
        <ele>271.4</ele>
        <time>2020-11-27T14:30:36Z</time>
      </trkpt>
      <trkpt lat="47.65394" lon="6.1978">
        <ele>271.2</ele>
        <time>2020-11-27T14:30:39Z</time>
      </trkpt>
      <trkpt lat="47.65397" lon="6.19791">
        <ele>271</ele>
        <time>2020-11-27T14:30:42Z</time>
      </trkpt>
      <trkpt lat="47.654" lon="6.19798">
        <ele>271.1</ele>
        <time>2020-11-27T14:30:44Z</time>
      </trkpt>
      <trkpt lat="47.65404" lon="6.19806">
        <ele>271.3</ele>
        <time>2020-11-27T14:30:47Z</time>
      </trkpt>
      <trkpt lat="47.65408" lon="6.19811">
        <ele>271.7</ele>
        <time>2020-11-27T14:30:50Z</time>
      </trkpt>
      <trkpt lat="47.65413" lon="6.19817">
        <ele>272.1</ele>
        <time>2020-11-27T14:30:53Z</time>
      </trkpt>
      <trkpt lat="47.65417" lon="6.19821">
        <ele>272.5</ele>
        <time>2020-11-27T14:30:55Z</time>
      </trkpt>
      <trkpt lat="47.65421" lon="6.19826">
        <ele>272.6</ele>
        <time>2020-11-27T14:30:58Z</time>
      </trkpt>
      <trkpt lat="47.65424" lon="6.19832">
        <ele>272.6</ele>
        <time>2020-11-27T14:31:00Z</time>
      </trkpt>
      <trkpt lat="47.65427" lon="6.19837">
        <ele>272.4</ele>
        <time>2020-11-27T14:31:02Z</time>
      </trkpt>
      <trkpt lat="47.65432" lon="6.19844">
        <ele>272.1</ele>
        <time>2020-11-27T14:31:05Z</time>
      </trkpt>
      <trkpt lat="47.65435" lon="6.19849">
        <ele>271.8</ele>
        <time>2020-11-27T14:31:07Z</time>
      </trkpt>
      <trkpt lat="47.6544" lon="6.19854">
        <ele>271.7</ele>
        <time>2020-11-27T14:31:09Z</time>
      </trkpt>
      <trkpt lat="47.65443" lon="6.19862">
        <ele>271.3</ele>
        <time>2020-11-27T14:31:12Z</time>
      </trkpt>
      <trkpt lat="47.65447" lon="6.19868">
        <ele>271</ele>
        <time>2020-11-27T14:31:17Z</time>
      </trkpt>
      <trkpt lat="47.65442" lon="6.19867">
        <ele>270.8</ele>
        <time>2020-11-27T14:32:01Z</time>
      </trkpt>
      <trkpt lat="47.65438" lon="6.19862">
        <ele>270.9</ele>
        <time>2020-11-27T14:32:16Z</time>
      </trkpt>
      <trkpt lat="47.65434" lon="6.19857">
        <ele>271.1</ele>
        <time>2020-11-27T14:32:17Z</time>
      </trkpt>
      <trkpt lat="47.6543" lon="6.19849">
        <ele>271.4</ele>
        <time>2020-11-27T14:32:19Z</time>
      </trkpt>
      <trkpt lat="47.65425" lon="6.19841">
        <ele>271.8</ele>
        <time>2020-11-27T14:32:21Z</time>
      </trkpt>
      <trkpt lat="47.65421" lon="6.19836">
        <ele>272.1</ele>
        <time>2020-11-27T14:32:22Z</time>
      </trkpt>
      <trkpt lat="47.65416" lon="6.19827">
        <ele>272.2</ele>
        <time>2020-11-27T14:32:25Z</time>
      </trkpt>
      <trkpt lat="47.65411" lon="6.19819">
        <ele>271.8</ele>
        <time>2020-11-27T14:32:25Z</time>
      </trkpt>
      <trkpt lat="47.65408" lon="6.19814">
        <ele>271.5</ele>
        <time>2020-11-27T14:32:26Z</time>
      </trkpt>
      <trkpt lat="47.65404" lon="6.19807">
        <ele>271.2</ele>
        <time>2020-11-27T14:32:29Z</time>
      </trkpt>
      <trkpt lat="47.65399" lon="6.19799">
        <ele>271</ele>
        <time>2020-11-27T14:32:29Z</time>
      </trkpt>
      <trkpt lat="47.65395" lon="6.19791">
        <ele>270.8</ele>
        <time>2020-11-27T14:32:31Z</time>
      </trkpt>
      <trkpt lat="47.65392" lon="6.19786">
        <ele>270.6</ele>
        <time>2020-11-27T14:32:32Z</time>
      </trkpt>
      <trkpt lat="47.65388" lon="6.19778">
        <ele>270.5</ele>
        <time>2020-11-27T14:32:34Z</time>
      </trkpt>
      <trkpt lat="47.65383" lon="6.1977">
        <ele>270.4</ele>
        <time>2020-11-27T14:32:36Z</time>
      </trkpt>
      <trkpt lat="47.6538" lon="6.19764">
        <ele>270.3</ele>
        <time>2020-11-27T14:32:39Z</time>
      </trkpt>
      <trkpt lat="47.65377" lon="6.19756">
        <ele>270.4</ele>
        <time>2020-11-27T14:32:39Z</time>
      </trkpt>
      <trkpt lat="47.65375" lon="6.1975">
        <ele>270.5</ele>
        <time>2020-11-27T14:32:41Z</time>
      </trkpt>
      <trkpt lat="47.65371" lon="6.19743">
        <ele>270.4</ele>
        <time>2020-11-27T14:32:45Z</time>
      </trkpt>
      <trkpt lat="47.65366" lon="6.19737">
        <ele>270.2</ele>
        <time>2020-11-27T14:32:47Z</time>
      </trkpt>
      <trkpt lat="47.65363" lon="6.1973">
        <ele>270.1</ele>
        <time>2020-11-27T14:32:49Z</time>
      </trkpt>
      <trkpt lat="47.65359" lon="6.19724">
        <ele>270.1</ele>
        <time>2020-11-27T14:32:51Z</time>
      </trkpt>
      <trkpt lat="47.65357" lon="6.19716">
        <ele>270.2</ele>
        <time>2020-11-27T14:32:53Z</time>
      </trkpt>
      <trkpt lat="47.65355" lon="6.19708">
        <ele>270.3</ele>
        <time>2020-11-27T14:32:55Z</time>
      </trkpt>
      <trkpt lat="47.65352" lon="6.19702">
        <ele>270.3</ele>
        <time>2020-11-27T14:32:57Z</time>
      </trkpt>
      <trkpt lat="47.65348" lon="6.19695">
        <ele>270.3</ele>
        <time>2020-11-27T14:32:59Z</time>
      </trkpt>
      <trkpt lat="47.65345" lon="6.19687">
        <ele>270.2</ele>
        <time>2020-11-27T14:33:01Z</time>
      </trkpt>
      <trkpt lat="47.65341" lon="6.1968">
        <ele>270.1</ele>
        <time>2020-11-27T14:33:03Z</time>
      </trkpt>
      <trkpt lat="47.65337" lon="6.19673">
        <ele>270.1</ele>
        <time>2020-11-27T14:33:05Z</time>
      </trkpt>
      <trkpt lat="47.65334" lon="6.19666">
        <ele>270.1</ele>
        <time>2020-11-27T14:33:07Z</time>
      </trkpt>
      <trkpt lat="47.65332" lon="6.19658">
        <ele>270.3</ele>
        <time>2020-11-27T14:33:07Z</time>
      </trkpt>
      <trkpt lat="47.65329" lon="6.19647">
        <ele>270.5</ele>
        <time>2020-11-27T14:33:11Z</time>
      </trkpt>
      <trkpt lat="47.65326" lon="6.19639">
        <ele>270.7</ele>
        <time>2020-11-27T14:33:11Z</time>
      </trkpt>
      <trkpt lat="47.65323" lon="6.19626">
        <ele>271</ele>
        <time>2020-11-27T14:33:15Z</time>
      </trkpt>
      <trkpt lat="47.65321" lon="6.19617">
        <ele>271.2</ele>
        <time>2020-11-27T14:33:15Z</time>
      </trkpt>
      <trkpt lat="47.65319" lon="6.19609">
        <ele>271.3</ele>
        <time>2020-11-27T14:33:16Z</time>
      </trkpt>
      <trkpt lat="47.65316" lon="6.19598">
        <ele>271.5</ele>
        <time>2020-11-27T14:33:19Z</time>
      </trkpt>
      <trkpt lat="47.65312" lon="6.19588">
        <ele>271.6</ele>
        <time>2020-11-27T14:33:19Z</time>
      </trkpt>
      <trkpt lat="47.6531" lon="6.19581">
        <ele>271.6</ele>
        <time>2020-11-27T14:33:20Z</time>
      </trkpt>
      <trkpt lat="47.65307" lon="6.19575">
        <ele>271.4</ele>
        <time>2020-11-27T14:33:23Z</time>
      </trkpt>
      <trkpt lat="47.65304" lon="6.19567">
        <ele>271.3</ele>
        <time>2020-11-27T14:33:23Z</time>
      </trkpt>
      <trkpt lat="47.65302" lon="6.19561">
        <ele>271.2</ele>
        <time>2020-11-27T14:33:24Z</time>
      </trkpt>
      <trkpt lat="47.65298" lon="6.19556">
        <ele>271</ele>
        <time>2020-11-27T14:33:26Z</time>
      </trkpt>
      <trkpt lat="47.65295" lon="6.19547">
        <ele>270.9</ele>
        <time>2020-11-27T14:33:29Z</time>
      </trkpt>
      <trkpt lat="47.65291" lon="6.19543">
        <ele>270.7</ele>
        <time>2020-11-27T14:33:32Z</time>
      </trkpt>
      <trkpt lat="47.65289" lon="6.19536">
        <ele>270.7</ele>
        <time>2020-11-27T14:33:35Z</time>
      </trkpt>
      <trkpt lat="47.65285" lon="6.19532">
        <ele>270.5</ele>
        <time>2020-11-27T14:33:38Z</time>
      </trkpt>
      <trkpt lat="47.65282" lon="6.19525">
        <ele>270.4</ele>
        <time>2020-11-27T14:33:42Z</time>
      </trkpt>
      <trkpt lat="47.65281" lon="6.19518">
        <ele>270.4</ele>
        <time>2020-11-27T14:33:45Z</time>
      </trkpt>
      <trkpt lat="47.6528" lon="6.1951">
        <ele>270.4</ele>
        <time>2020-11-27T14:33:48Z</time>
      </trkpt>
      <trkpt lat="47.65278" lon="6.19503">
        <ele>270.3</ele>
        <time>2020-11-27T14:33:52Z</time>
      </trkpt>
      <trkpt lat="47.65275" lon="6.19495">
        <ele>270.2</ele>
        <time>2020-11-27T14:33:52Z</time>
      </trkpt>
      <trkpt lat="47.65272" lon="6.19486">
        <ele>270</ele>
        <time>2020-11-27T14:33:54Z</time>
      </trkpt>
      <trkpt lat="47.65268" lon="6.19476">
        <ele>269.7</ele>
        <time>2020-11-27T14:33:56Z</time>
      </trkpt>
      <trkpt lat="47.65263" lon="6.19467">
        <ele>269.4</ele>
        <time>2020-11-27T14:33:58Z</time>
      </trkpt>
      <trkpt lat="47.65259" lon="6.19459">
        <ele>269</ele>
        <time>2020-11-27T14:34:00Z</time>
      </trkpt>
      <trkpt lat="47.65254" lon="6.19452">
        <ele>268.7</ele>
        <time>2020-11-27T14:34:02Z</time>
      </trkpt>
      <trkpt lat="47.65249" lon="6.19446">
        <ele>268.3</ele>
        <time>2020-11-27T14:34:04Z</time>
      </trkpt>
      <trkpt lat="47.65244" lon="6.19439">
        <ele>268.1</ele>
        <time>2020-11-27T14:34:06Z</time>
      </trkpt>
      <trkpt lat="47.6524" lon="6.19435">
        <ele>267.9</ele>
        <time>2020-11-27T14:34:08Z</time>
      </trkpt>
      <trkpt lat="47.65236" lon="6.19429">
        <ele>267.7</ele>
        <time>2020-11-27T14:34:10Z</time>
      </trkpt>
      <trkpt lat="47.65232" lon="6.19422">
        <ele>267.6</ele>
        <time>2020-11-27T14:34:12Z</time>
      </trkpt>
      <trkpt lat="47.65229" lon="6.19415">
        <ele>267.5</ele>
        <time>2020-11-27T14:34:13Z</time>
      </trkpt>
      <trkpt lat="47.65224" lon="6.19407">
        <ele>267.7</ele>
        <time>2020-11-27T14:34:15Z</time>
      </trkpt>
      <trkpt lat="47.65221" lon="6.194">
        <ele>267.8</ele>
        <time>2020-11-27T14:34:16Z</time>
      </trkpt>
      <trkpt lat="47.65217" lon="6.19393">
        <ele>268</ele>
        <time>2020-11-27T14:34:18Z</time>
      </trkpt>
      <trkpt lat="47.65215" lon="6.19386">
        <ele>268.1</ele>
        <time>2020-11-27T14:34:21Z</time>
      </trkpt>
      <trkpt lat="47.6521" lon="6.19379">
        <ele>268.2</ele>
        <time>2020-11-27T14:34:23Z</time>
      </trkpt>
      <trkpt lat="47.65207" lon="6.19371">
        <ele>268.3</ele>
        <time>2020-11-27T14:34:25Z</time>
      </trkpt>
      <trkpt lat="47.65202" lon="6.19365">
        <ele>268.4</ele>
        <time>2020-11-27T14:34:27Z</time>
      </trkpt>
      <trkpt lat="47.65198" lon="6.19358">
        <ele>268.4</ele>
        <time>2020-11-27T14:34:29Z</time>
      </trkpt>
      <trkpt lat="47.65193" lon="6.19352">
        <ele>268.4</ele>
        <time>2020-11-27T14:34:29Z</time>
      </trkpt>
      <trkpt lat="47.6519" lon="6.19347">
        <ele>268.5</ele>
        <time>2020-11-27T14:34:31Z</time>
      </trkpt>
      <trkpt lat="47.65186" lon="6.19341">
        <ele>268.5</ele>
        <time>2020-11-27T14:34:33Z</time>
      </trkpt>
      <trkpt lat="47.65181" lon="6.19333">
        <ele>268.5</ele>
        <time>2020-11-27T14:34:35Z</time>
      </trkpt>
      <trkpt lat="47.65177" lon="6.19328">
        <ele>268.5</ele>
        <time>2020-11-27T14:34:37Z</time>
      </trkpt>
      <trkpt lat="47.65174" lon="6.19322">
        <ele>268.6</ele>
        <time>2020-11-27T14:34:39Z</time>
      </trkpt>
      <trkpt lat="47.6517" lon="6.19318">
        <ele>268.5</ele>
        <time>2020-11-27T14:34:41Z</time>
      </trkpt>
      <trkpt lat="47.65165" lon="6.19314">
        <ele>268.4</ele>
        <time>2020-11-27T14:34:43Z</time>
      </trkpt>
      <trkpt lat="47.65161" lon="6.1931">
        <ele>268.3</ele>
        <time>2020-11-27T14:34:45Z</time>
      </trkpt>
      <trkpt lat="47.65155" lon="6.19304">
        <ele>268.3</ele>
        <time>2020-11-27T14:34:47Z</time>
      </trkpt>
      <trkpt lat="47.65149" lon="6.193">
        <ele>268.2</ele>
        <time>2020-11-27T14:34:50Z</time>
      </trkpt>
      <trkpt lat="47.65143" lon="6.19293">
        <ele>268.1</ele>
        <time>2020-11-27T14:34:54Z</time>
      </trkpt>
      <trkpt lat="47.65138" lon="6.19289">
        <ele>268</ele>
        <time>2020-11-27T14:34:54Z</time>
      </trkpt>
      <trkpt lat="47.65133" lon="6.19283">
        <ele>268</ele>
        <time>2020-11-27T14:34:56Z</time>
      </trkpt>
      <trkpt lat="47.65127" lon="6.19275">
        <ele>268</ele>
        <time>2020-11-27T14:35:00Z</time>
      </trkpt>
      <trkpt lat="47.65123" lon="6.1927">
        <ele>268</ele>
        <time>2020-11-27T14:35:00Z</time>
      </trkpt>
      <trkpt lat="47.65117" lon="6.19261">
        <ele>267.9</ele>
        <time>2020-11-27T14:35:02Z</time>
      </trkpt>
      <trkpt lat="47.65112" lon="6.19254">
        <ele>267.9</ele>
        <time>2020-11-27T14:35:04Z</time>
      </trkpt>
      <trkpt lat="47.65109" lon="6.19249">
        <ele>267.9</ele>
        <time>2020-11-27T14:35:05Z</time>
      </trkpt>
      <trkpt lat="47.65105" lon="6.19244">
        <ele>267.8</ele>
        <time>2020-11-27T14:35:07Z</time>
      </trkpt>
      <trkpt lat="47.65101" lon="6.19239">
        <ele>267.7</ele>
        <time>2020-11-27T14:35:08Z</time>
      </trkpt>
      <trkpt lat="47.65096" lon="6.19232">
        <ele>267.5</ele>
        <time>2020-11-27T14:35:10Z</time>
      </trkpt>
      <trkpt lat="47.65092" lon="6.19227">
        <ele>267.4</ele>
        <time>2020-11-27T14:35:12Z</time>
      </trkpt>
      <trkpt lat="47.65087" lon="6.1922">
        <ele>267.2</ele>
        <time>2020-11-27T14:35:15Z</time>
      </trkpt>
      <trkpt lat="47.65082" lon="6.19213">
        <ele>266.9</ele>
        <time>2020-11-27T14:35:15Z</time>
      </trkpt>
      <trkpt lat="47.65078" lon="6.19207">
        <ele>266.7</ele>
        <time>2020-11-27T14:35:17Z</time>
      </trkpt>
      <trkpt lat="47.65074" lon="6.19201">
        <ele>266.5</ele>
        <time>2020-11-27T14:35:20Z</time>
      </trkpt>
      <trkpt lat="47.6507" lon="6.19196">
        <ele>266.3</ele>
        <time>2020-11-27T14:35:20Z</time>
      </trkpt>
      <trkpt lat="47.65066" lon="6.19191">
        <ele>266.1</ele>
        <time>2020-11-27T14:35:21Z</time>
      </trkpt>
      <trkpt lat="47.65063" lon="6.19186">
        <ele>266</ele>
        <time>2020-11-27T14:35:23Z</time>
      </trkpt>
      <trkpt lat="47.65059" lon="6.19181">
        <ele>265.8</ele>
        <time>2020-11-27T14:35:24Z</time>
      </trkpt>
      <trkpt lat="47.65056" lon="6.19176">
        <ele>265.6</ele>
        <time>2020-11-27T14:35:25Z</time>
      </trkpt>
      <trkpt lat="47.65052" lon="6.19169">
        <ele>265.5</ele>
        <time>2020-11-27T14:35:27Z</time>
      </trkpt>
      <trkpt lat="47.65045" lon="6.1916">
        <ele>265.3</ele>
        <time>2020-11-27T14:35:29Z</time>
      </trkpt>
      <trkpt lat="47.65041" lon="6.19154">
        <ele>265.1</ele>
        <time>2020-11-27T14:35:31Z</time>
      </trkpt>
      <trkpt lat="47.65038" lon="6.19147">
        <ele>265.1</ele>
        <time>2020-11-27T14:35:33Z</time>
      </trkpt>
      <trkpt lat="47.65034" lon="6.19139">
        <ele>265</ele>
        <time>2020-11-27T14:35:35Z</time>
      </trkpt>
      <trkpt lat="47.6503" lon="6.19131">
        <ele>264.9</ele>
        <time>2020-11-27T14:35:38Z</time>
      </trkpt>
      <trkpt lat="47.65023" lon="6.19119">
        <ele>264.7</ele>
        <time>2020-11-27T14:35:40Z</time>
      </trkpt>
      <trkpt lat="47.6502" lon="6.19113">
        <ele>264.6</ele>
        <time>2020-11-27T14:35:41Z</time>
      </trkpt>
      <trkpt lat="47.65016" lon="6.19108">
        <ele>264.5</ele>
        <time>2020-11-27T14:35:42Z</time>
      </trkpt>
      <trkpt lat="47.65013" lon="6.19103">
        <ele>264.4</ele>
        <time>2020-11-27T14:35:43Z</time>
      </trkpt>
      <trkpt lat="47.6501" lon="6.19098">
        <ele>264.3</ele>
        <time>2020-11-27T14:35:44Z</time>
      </trkpt>
      <trkpt lat="47.65006" lon="6.19093">
        <ele>264.2</ele>
        <time>2020-11-27T14:35:45Z</time>
      </trkpt>
      <trkpt lat="47.65004" lon="6.19087">
        <ele>264.1</ele>
        <time>2020-11-27T14:35:46Z</time>
      </trkpt>
      <trkpt lat="47.65001" lon="6.19082">
        <ele>264</ele>
        <time>2020-11-27T14:35:47Z</time>
      </trkpt>
      <trkpt lat="47.64995" lon="6.19072">
        <ele>263.8</ele>
        <time>2020-11-27T14:35:49Z</time>
      </trkpt>
      <trkpt lat="47.6499" lon="6.19063">
        <ele>263.6</ele>
        <time>2020-11-27T14:35:51Z</time>
      </trkpt>
      <trkpt lat="47.64987" lon="6.19058">
        <ele>263.5</ele>
        <time>2020-11-27T14:35:52Z</time>
      </trkpt>
      <trkpt lat="47.64982" lon="6.19048">
        <ele>263.4</ele>
        <time>2020-11-27T14:35:54Z</time>
      </trkpt>
      <trkpt lat="47.64978" lon="6.19039">
        <ele>263.2</ele>
        <time>2020-11-27T14:35:56Z</time>
      </trkpt>
      <trkpt lat="47.64973" lon="6.19034">
        <ele>263</ele>
        <time>2020-11-27T14:35:57Z</time>
      </trkpt>
      <trkpt lat="47.64969" lon="6.19026">
        <ele>262.8</ele>
        <time>2020-11-27T14:35:58Z</time>
      </trkpt>
      <trkpt lat="47.64963" lon="6.19015">
        <ele>262.6</ele>
        <time>2020-11-27T14:36:02Z</time>
      </trkpt>
      <trkpt lat="47.6496" lon="6.19006">
        <ele>262.5</ele>
        <time>2020-11-27T14:36:02Z</time>
      </trkpt>
      <trkpt lat="47.64957" lon="6.19">
        <ele>262.4</ele>
        <time>2020-11-27T14:36:03Z</time>
      </trkpt>
      <trkpt lat="47.64954" lon="6.18994">
        <ele>262.4</ele>
        <time>2020-11-27T14:36:06Z</time>
      </trkpt>
      <trkpt lat="47.64951" lon="6.18985">
        <ele>262.3</ele>
        <time>2020-11-27T14:36:06Z</time>
      </trkpt>
      <trkpt lat="47.64947" lon="6.18978">
        <ele>262.2</ele>
        <time>2020-11-27T14:36:07Z</time>
      </trkpt>
      <trkpt lat="47.64941" lon="6.1897">
        <ele>262.1</ele>
        <time>2020-11-27T14:36:09Z</time>
      </trkpt>
      <trkpt lat="47.64937" lon="6.18962">
        <ele>262</ele>
        <time>2020-11-27T14:36:11Z</time>
      </trkpt>
      <trkpt lat="47.64933" lon="6.18955">
        <ele>262</ele>
        <time>2020-11-27T14:36:14Z</time>
      </trkpt>
      <trkpt lat="47.64929" lon="6.18947">
        <ele>261.9</ele>
        <time>2020-11-27T14:36:14Z</time>
      </trkpt>
      <trkpt lat="47.64924" lon="6.18939">
        <ele>261.8</ele>
        <time>2020-11-27T14:36:17Z</time>
      </trkpt>
      <trkpt lat="47.64917" lon="6.18929">
        <ele>261.7</ele>
        <time>2020-11-27T14:36:19Z</time>
      </trkpt>
      <trkpt lat="47.64914" lon="6.18924">
        <ele>261.7</ele>
        <time>2020-11-27T14:36:20Z</time>
      </trkpt>
      <trkpt lat="47.6491" lon="6.18919">
        <ele>261.6</ele>
        <time>2020-11-27T14:36:21Z</time>
      </trkpt>
      <trkpt lat="47.64907" lon="6.18914">
        <ele>261.6</ele>
        <time>2020-11-27T14:36:22Z</time>
      </trkpt>
      <trkpt lat="47.64903" lon="6.18905">
        <ele>261.6</ele>
        <time>2020-11-27T14:36:22Z</time>
      </trkpt>
      <trkpt lat="47.64899" lon="6.18899">
        <ele>261.5</ele>
        <time>2020-11-27T14:36:25Z</time>
      </trkpt>
      <trkpt lat="47.64896" lon="6.18893">
        <ele>261.4</ele>
        <time>2020-11-27T14:36:25Z</time>
      </trkpt>
      <trkpt lat="47.64893" lon="6.18887">
        <ele>261.4</ele>
        <time>2020-11-27T14:36:26Z</time>
      </trkpt>
      <trkpt lat="47.6489" lon="6.1888">
        <ele>261.3</ele>
        <time>2020-11-27T14:36:27Z</time>
      </trkpt>
      <trkpt lat="47.64885" lon="6.18869">
        <ele>261.2</ele>
        <time>2020-11-27T14:36:31Z</time>
      </trkpt>
      <trkpt lat="47.64881" lon="6.1886">
        <ele>261.1</ele>
        <time>2020-11-27T14:36:31Z</time>
      </trkpt>
      <trkpt lat="47.64876" lon="6.18853">
        <ele>260.9</ele>
        <time>2020-11-27T14:36:33Z</time>
      </trkpt>
      <trkpt lat="47.6487" lon="6.18852">
        <ele>260.4</ele>
        <time>2020-11-27T14:36:35Z</time>
      </trkpt>
      <trkpt lat="47.64866" lon="6.18855">
        <ele>260.1</ele>
        <time>2020-11-27T14:36:37Z</time>
      </trkpt>
      <trkpt lat="47.6486" lon="6.1886">
        <ele>259.7</ele>
        <time>2020-11-27T14:36:41Z</time>
      </trkpt>
      <trkpt lat="47.64853" lon="6.18864">
        <ele>259.2</ele>
        <time>2020-11-27T14:36:41Z</time>
      </trkpt>
      <trkpt lat="47.64849" lon="6.18867">
        <ele>259</ele>
        <time>2020-11-27T14:36:42Z</time>
      </trkpt>
      <trkpt lat="47.64844" lon="6.18871">
        <ele>258.7</ele>
        <time>2020-11-27T14:36:43Z</time>
      </trkpt>
      <trkpt lat="47.64839" lon="6.18873">
        <ele>258.3</ele>
        <time>2020-11-27T14:36:44Z</time>
      </trkpt>
      <trkpt lat="47.64833" lon="6.18876">
        <ele>257.9</ele>
        <time>2020-11-27T14:36:47Z</time>
      </trkpt>
      <trkpt lat="47.64828" lon="6.18875">
        <ele>257.6</ele>
        <time>2020-11-27T14:36:48Z</time>
      </trkpt>
      <trkpt lat="47.64823" lon="6.18872">
        <ele>257.2</ele>
        <time>2020-11-27T14:36:49Z</time>
      </trkpt>
      <trkpt lat="47.64819" lon="6.18867">
        <ele>256.9</ele>
        <time>2020-11-27T14:36:50Z</time>
      </trkpt>
      <trkpt lat="47.64815" lon="6.18862">
        <ele>256.7</ele>
        <time>2020-11-27T14:36:51Z</time>
      </trkpt>
      <trkpt lat="47.64811" lon="6.18857">
        <ele>256.5</ele>
        <time>2020-11-27T14:36:52Z</time>
      </trkpt>
      <trkpt lat="47.64808" lon="6.18852">
        <ele>256.3</ele>
        <time>2020-11-27T14:36:53Z</time>
      </trkpt>
      <trkpt lat="47.64808" lon="6.18844">
        <ele>256.4</ele>
        <time>2020-11-27T14:36:53Z</time>
      </trkpt>
      <trkpt lat="47.64806" lon="6.18837">
        <ele>256.3</ele>
        <time>2020-11-27T14:36:56Z</time>
      </trkpt>
      <trkpt lat="47.64801" lon="6.18829">
        <ele>256.1</ele>
        <time>2020-11-27T14:36:56Z</time>
      </trkpt>
      <trkpt lat="47.64799" lon="6.18822">
        <ele>255.9</ele>
        <time>2020-11-27T14:36:58Z</time>
      </trkpt>
      <trkpt lat="47.64798" lon="6.18815">
        <ele>255.8</ele>
        <time>2020-11-27T14:37:00Z</time>
      </trkpt>
      <trkpt lat="47.64797" lon="6.18808">
        <ele>255.7</ele>
        <time>2020-11-27T14:37:04Z</time>
      </trkpt>
      <trkpt lat="47.64793" lon="6.188">
        <ele>255.4</ele>
        <time>2020-11-27T14:37:05Z</time>
      </trkpt>
      <trkpt lat="47.64791" lon="6.18793">
        <ele>255.2</ele>
        <time>2020-11-27T14:37:07Z</time>
      </trkpt>
      <trkpt lat="47.64788" lon="6.18785">
        <ele>254.9</ele>
        <time>2020-11-27T14:37:09Z</time>
      </trkpt>
      <trkpt lat="47.64785" lon="6.18778">
        <ele>254.7</ele>
        <time>2020-11-27T14:37:10Z</time>
      </trkpt>
      <trkpt lat="47.64781" lon="6.18768">
        <ele>254.4</ele>
        <time>2020-11-27T14:37:14Z</time>
      </trkpt>
      <trkpt lat="47.64778" lon="6.18759">
        <ele>254.1</ele>
        <time>2020-11-27T14:37:14Z</time>
      </trkpt>
      <trkpt lat="47.64774" lon="6.18752">
        <ele>253.8</ele>
        <time>2020-11-27T14:37:16Z</time>
      </trkpt>
      <trkpt lat="47.6477" lon="6.18743">
        <ele>253.4</ele>
        <time>2020-11-27T14:37:18Z</time>
      </trkpt>
      <trkpt lat="47.64767" lon="6.18737">
        <ele>253.3</ele>
        <time>2020-11-27T14:37:21Z</time>
      </trkpt>
      <trkpt lat="47.64764" lon="6.1873">
        <ele>253</ele>
        <time>2020-11-27T14:37:21Z</time>
      </trkpt>
      <trkpt lat="47.64761" lon="6.18724">
        <ele>252.8</ele>
        <time>2020-11-27T14:37:22Z</time>
      </trkpt>
      <trkpt lat="47.64758" lon="6.18717">
        <ele>252.6</ele>
        <time>2020-11-27T14:37:24Z</time>
      </trkpt>
      <trkpt lat="47.64754" lon="6.1871">
        <ele>252.3</ele>
        <time>2020-11-27T14:37:27Z</time>
      </trkpt>
      <trkpt lat="47.64749" lon="6.18704">
        <ele>251.9</ele>
        <time>2020-11-27T14:37:27Z</time>
      </trkpt>
      <trkpt lat="47.64745" lon="6.18699">
        <ele>251.3</ele>
        <time>2020-11-27T14:37:29Z</time>
      </trkpt>
      <trkpt lat="47.64739" lon="6.18693">
        <ele>250.6</ele>
        <time>2020-11-27T14:37:31Z</time>
      </trkpt>
      <trkpt lat="47.64736" lon="6.18687">
        <ele>250.2</ele>
        <time>2020-11-27T14:37:32Z</time>
      </trkpt>
      <trkpt lat="47.64732" lon="6.18682">
        <ele>249.9</ele>
        <time>2020-11-27T14:37:33Z</time>
      </trkpt>
      <trkpt lat="47.64728" lon="6.18676">
        <ele>249.4</ele>
        <time>2020-11-27T14:37:35Z</time>
      </trkpt>
      <trkpt lat="47.64723" lon="6.1867">
        <ele>249</ele>
        <time>2020-11-27T14:37:36Z</time>
      </trkpt>
      <trkpt lat="47.64717" lon="6.18662">
        <ele>248.6</ele>
        <time>2020-11-27T14:37:38Z</time>
      </trkpt>
      <trkpt lat="47.64711" lon="6.18654">
        <ele>248.3</ele>
        <time>2020-11-27T14:37:40Z</time>
      </trkpt>
      <trkpt lat="47.64706" lon="6.18651">
        <ele>247.9</ele>
        <time>2020-11-27T14:37:43Z</time>
      </trkpt>
      <trkpt lat="47.647" lon="6.18644">
        <ele>247.6</ele>
        <time>2020-11-27T14:37:43Z</time>
      </trkpt>
      <trkpt lat="47.64694" lon="6.18635">
        <ele>247.4</ele>
        <time>2020-11-27T14:37:44Z</time>
      </trkpt>
      <trkpt lat="47.64685" lon="6.18622">
        <ele>247.1</ele>
        <time>2020-11-27T14:37:46Z</time>
      </trkpt>
      <trkpt lat="47.64682" lon="6.18618">
        <ele>246.9</ele>
        <time>2020-11-27T14:37:47Z</time>
      </trkpt>
      <trkpt lat="47.64676" lon="6.18613">
        <ele>246.5</ele>
        <time>2020-11-27T14:37:48Z</time>
      </trkpt>
      <trkpt lat="47.64665" lon="6.18604">
        <ele>245.9</ele>
        <time>2020-11-27T14:37:51Z</time>
      </trkpt>
      <trkpt lat="47.64659" lon="6.18599">
        <ele>245.8</ele>
        <time>2020-11-27T14:37:52Z</time>
      </trkpt>
      <trkpt lat="47.64654" lon="6.18594">
        <ele>245.7</ele>
        <time>2020-11-27T14:37:53Z</time>
      </trkpt>
      <trkpt lat="47.64649" lon="6.1859">
        <ele>245.7</ele>
        <time>2020-11-27T14:37:54Z</time>
      </trkpt>
      <trkpt lat="47.64643" lon="6.18587">
        <ele>245.6</ele>
        <time>2020-11-27T14:37:55Z</time>
      </trkpt>
      <trkpt lat="47.64638" lon="6.18585">
        <ele>245.5</ele>
        <time>2020-11-27T14:37:56Z</time>
      </trkpt>
      <trkpt lat="47.64633" lon="6.18584">
        <ele>245.4</ele>
        <time>2020-11-27T14:37:57Z</time>
      </trkpt>
      <trkpt lat="47.64626" lon="6.18582">
        <ele>245.1</ele>
        <time>2020-11-27T14:37:57Z</time>
      </trkpt>
      <trkpt lat="47.64619" lon="6.18583">
        <ele>244.7</ele>
        <time>2020-11-27T14:37:59Z</time>
      </trkpt>
      <trkpt lat="47.64613" lon="6.18583">
        <ele>244.4</ele>
        <time>2020-11-27T14:38:01Z</time>
      </trkpt>
      <trkpt lat="47.64607" lon="6.18583">
        <ele>244.2</ele>
        <time>2020-11-27T14:38:03Z</time>
      </trkpt>
      <trkpt lat="47.64602" lon="6.18581">
        <ele>244.1</ele>
        <time>2020-11-27T14:38:05Z</time>
      </trkpt>
      <trkpt lat="47.64596" lon="6.18578">
        <ele>244.1</ele>
        <time>2020-11-27T14:38:07Z</time>
      </trkpt>
      <trkpt lat="47.64592" lon="6.18575">
        <ele>244.2</ele>
        <time>2020-11-27T14:38:09Z</time>
      </trkpt>
      <trkpt lat="47.64587" lon="6.1857">
        <ele>244.4</ele>
        <time>2020-11-27T14:38:13Z</time>
      </trkpt>
      <trkpt lat="47.64582" lon="6.18566">
        <ele>244.5</ele>
        <time>2020-11-27T14:38:14Z</time>
      </trkpt>
      <trkpt lat="47.64578" lon="6.18562">
        <ele>244.6</ele>
        <time>2020-11-27T14:38:15Z</time>
      </trkpt>
      <trkpt lat="47.64572" lon="6.18558">
        <ele>244.4</ele>
        <time>2020-11-27T14:38:19Z</time>
      </trkpt>
      <trkpt lat="47.64568" lon="6.18556">
        <ele>244.3</ele>
        <time>2020-11-27T14:38:19Z</time>
      </trkpt>
      <trkpt lat="47.64563" lon="6.18551">
        <ele>244.4</ele>
        <time>2020-11-27T14:38:21Z</time>
      </trkpt>
      <trkpt lat="47.64558" lon="6.18547">
        <ele>244.5</ele>
        <time>2020-11-27T14:38:23Z</time>
      </trkpt>
      <trkpt lat="47.6455" lon="6.18542">
        <ele>244.6</ele>
        <time>2020-11-27T14:38:27Z</time>
      </trkpt>
      <trkpt lat="47.64544" lon="6.18539">
        <ele>244.5</ele>
        <time>2020-11-27T14:38:27Z</time>
      </trkpt>
      <trkpt lat="47.64537" lon="6.18536">
        <ele>244.5</ele>
        <time>2020-11-27T14:38:29Z</time>
      </trkpt>
      <trkpt lat="47.64528" lon="6.18533">
        <ele>244.3</ele>
        <time>2020-11-27T14:38:31Z</time>
      </trkpt>
      <trkpt lat="47.64522" lon="6.18531">
        <ele>244.2</ele>
        <time>2020-11-27T14:38:33Z</time>
      </trkpt>
      <trkpt lat="47.64515" lon="6.18531">
        <ele>243.8</ele>
        <time>2020-11-27T14:38:35Z</time>
      </trkpt>
      <trkpt lat="47.6451" lon="6.1853">
        <ele>243.5</ele>
        <time>2020-11-27T14:38:37Z</time>
      </trkpt>
      <trkpt lat="47.64506" lon="6.18531">
        <ele>243.1</ele>
        <time>2020-11-27T14:38:39Z</time>
      </trkpt>
      <trkpt lat="47.645" lon="6.18531">
        <ele>242.8</ele>
        <time>2020-11-27T14:38:43Z</time>
      </trkpt>
      <trkpt lat="47.64496" lon="6.18529">
        <ele>242.6</ele>
        <time>2020-11-27T14:38:45Z</time>
      </trkpt>
      <trkpt lat="47.64491" lon="6.18524">
        <ele>242.9</ele>
        <time>2020-11-27T14:38:47Z</time>
      </trkpt>
      <trkpt lat="47.64485" lon="6.18518">
        <ele>243.1</ele>
        <time>2020-11-27T14:38:47Z</time>
      </trkpt>
      <trkpt lat="47.64479" lon="6.18512">
        <ele>243.2</ele>
        <time>2020-11-27T14:38:48Z</time>
      </trkpt>
      <trkpt lat="47.64474" lon="6.18507">
        <ele>243.2</ele>
        <time>2020-11-27T14:38:49Z</time>
      </trkpt>
      <trkpt lat="47.64468" lon="6.18502">
        <ele>243.2</ele>
        <time>2020-11-27T14:38:51Z</time>
      </trkpt>
      <trkpt lat="47.64463" lon="6.18496">
        <ele>242.8</ele>
        <time>2020-11-27T14:38:54Z</time>
      </trkpt>
      <trkpt lat="47.64458" lon="6.18491">
        <ele>242.2</ele>
        <time>2020-11-27T14:38:56Z</time>
      </trkpt>
      <trkpt lat="47.64453" lon="6.18487">
        <ele>241.7</ele>
        <time>2020-11-27T14:38:56Z</time>
      </trkpt>
      <trkpt lat="47.64449" lon="6.18484">
        <ele>241.3</ele>
        <time>2020-11-27T14:38:57Z</time>
      </trkpt>
      <trkpt lat="47.64446" lon="6.1848">
        <ele>240.8</ele>
        <time>2020-11-27T14:38:58Z</time>
      </trkpt>
      <trkpt lat="47.64441" lon="6.18477">
        <ele>240.3</ele>
        <time>2020-11-27T14:39:00Z</time>
      </trkpt>
      <trkpt lat="47.64436" lon="6.18474">
        <ele>239.6</ele>
        <time>2020-11-27T14:39:02Z</time>
      </trkpt>
      <trkpt lat="47.64432" lon="6.18473">
        <ele>238.9</ele>
        <time>2020-11-27T14:39:04Z</time>
      </trkpt>
      <trkpt lat="47.64427" lon="6.18472">
        <ele>238.2</ele>
        <time>2020-11-27T14:39:08Z</time>
      </trkpt>
      <trkpt lat="47.64422" lon="6.18472">
        <ele>237.5</ele>
        <time>2020-11-27T14:39:09Z</time>
      </trkpt>
      <trkpt lat="47.64417" lon="6.18471">
        <ele>236.8</ele>
        <time>2020-11-27T14:39:11Z</time>
      </trkpt>
      <trkpt lat="47.64412" lon="6.1847">
        <ele>236</ele>
        <time>2020-11-27T14:39:13Z</time>
      </trkpt>
      <trkpt lat="47.64407" lon="6.18469">
        <ele>235.3</ele>
        <time>2020-11-27T14:39:15Z</time>
      </trkpt>
      <trkpt lat="47.64401" lon="6.18467">
        <ele>234.2</ele>
        <time>2020-11-27T14:39:19Z</time>
      </trkpt>
      <trkpt lat="47.64396" lon="6.18466">
        <ele>233.4</ele>
        <time>2020-11-27T14:39:19Z</time>
      </trkpt>
      <trkpt lat="47.64389" lon="6.18465">
        <ele>232.2</ele>
        <time>2020-11-27T14:39:21Z</time>
      </trkpt>
      <trkpt lat="47.6438" lon="6.18465">
        <ele>230.9</ele>
        <time>2020-11-27T14:39:25Z</time>
      </trkpt>
      <trkpt lat="47.64374" lon="6.18463">
        <ele>229.8</ele>
        <time>2020-11-27T14:39:25Z</time>
      </trkpt>
      <trkpt lat="47.64368" lon="6.18459">
        <ele>228.8</ele>
        <time>2020-11-27T14:39:27Z</time>
      </trkpt>
      <trkpt lat="47.6436" lon="6.18454">
        <ele>227.5</ele>
        <time>2020-11-27T14:39:31Z</time>
      </trkpt>
      <trkpt lat="47.64354" lon="6.1845">
        <ele>226.4</ele>
        <time>2020-11-27T14:39:31Z</time>
      </trkpt>
      <trkpt lat="47.64347" lon="6.18443">
        <ele>225</ele>
        <time>2020-11-27T14:39:33Z</time>
      </trkpt>
      <trkpt lat="47.64344" lon="6.18438">
        <ele>224.3</ele>
        <time>2020-11-27T14:39:34Z</time>
      </trkpt>
      <trkpt lat="47.64339" lon="6.18427">
        <ele>223.2</ele>
        <time>2020-11-27T14:39:36Z</time>
      </trkpt>
      <trkpt lat="47.6434" lon="6.18414">
        <ele>223.3</ele>
        <time>2020-11-27T14:39:38Z</time>
      </trkpt>
      <trkpt lat="47.64343" lon="6.18408">
        <ele>223.7</ele>
        <time>2020-11-27T14:39:40Z</time>
      </trkpt>
      <trkpt lat="47.64348" lon="6.18397">
        <ele>224.2</ele>
        <time>2020-11-27T14:39:44Z</time>
      </trkpt>
      <trkpt lat="47.64352" lon="6.1839">
        <ele>224.6</ele>
        <time>2020-11-27T14:39:44Z</time>
      </trkpt>
      <trkpt lat="47.64356" lon="6.18383">
        <ele>224.9</ele>
        <time>2020-11-27T14:39:46Z</time>
      </trkpt>
      <trkpt lat="47.64362" lon="6.18376">
        <ele>225.5</ele>
        <time>2020-11-27T14:39:50Z</time>
      </trkpt>
      <trkpt lat="47.64367" lon="6.18372">
        <ele>226</ele>
        <time>2020-11-27T14:39:50Z</time>
      </trkpt>
      <trkpt lat="47.64372" lon="6.18369">
        <ele>226.5</ele>
        <time>2020-11-27T14:39:51Z</time>
      </trkpt>
      <trkpt lat="47.64377" lon="6.18368">
        <ele>227</ele>
        <time>2020-11-27T14:39:53Z</time>
      </trkpt>
      <trkpt lat="47.64383" lon="6.18362">
        <ele>227.4</ele>
        <time>2020-11-27T14:39:55Z</time>
      </trkpt>
      <trkpt lat="47.64387" lon="6.18358">
        <ele>227.6</ele>
        <time>2020-11-27T14:39:57Z</time>
      </trkpt>
      <trkpt lat="47.64392" lon="6.18355">
        <ele>227.8</ele>
        <time>2020-11-27T14:40:00Z</time>
      </trkpt>
      <trkpt lat="47.64396" lon="6.18351">
        <ele>228</ele>
        <time>2020-11-27T14:40:02Z</time>
      </trkpt>
      <trkpt lat="47.64401" lon="6.18346">
        <ele>228</ele>
        <time>2020-11-27T14:40:04Z</time>
      </trkpt>
      <trkpt lat="47.64406" lon="6.18338">
        <ele>227.6</ele>
        <time>2020-11-27T14:40:05Z</time>
      </trkpt>
      <trkpt lat="47.64411" lon="6.18335">
        <ele>227.7</ele>
        <time>2020-11-27T14:40:08Z</time>
      </trkpt>
      <trkpt lat="47.64416" lon="6.18334">
        <ele>228</ele>
        <time>2020-11-27T14:40:13Z</time>
      </trkpt>
      <trkpt lat="47.64411" lon="6.18336">
        <ele>227.8</ele>
        <time>2020-11-27T14:40:17Z</time>
      </trkpt>
      <trkpt lat="47.64415" lon="6.18333">
        <ele>227.8</ele>
        <time>2020-11-27T14:40:50Z</time>
      </trkpt>
      <trkpt lat="47.64421" lon="6.1833">
        <ele>228.5</ele>
        <time>2020-11-27T14:40:55Z</time>
      </trkpt>
      <trkpt lat="47.64425" lon="6.18323">
        <ele>228.8</ele>
        <time>2020-11-27T14:41:00Z</time>
      </trkpt>
      <trkpt lat="47.64429" lon="6.18317">
        <ele>229.1</ele>
        <time>2020-11-27T14:41:01Z</time>
      </trkpt>
      <trkpt lat="47.64433" lon="6.18312">
        <ele>229.1</ele>
        <time>2020-11-27T14:41:06Z</time>
      </trkpt>
      <trkpt lat="47.64437" lon="6.1831">
        <ele>229.8</ele>
        <time>2020-11-27T14:41:21Z</time>
      </trkpt>
      <trkpt lat="47.64443" lon="6.18309">
        <ele>230.6</ele>
        <time>2020-11-27T14:41:29Z</time>
      </trkpt>
    </trkseg>
  </trk>
</gpx>